Time,TemperatureF,DewpointF,PressureIn,WindDirection,WindDirectionDegrees,WindSpeedMPH,WindSpeedGustMPH,Humidity,HourlyPrecipIn,Conditions,Clouds,dailyrainin,SoftwareType,DateUTC
2013-03-17 00:00:00,42.1,38.2,29.86,NE,44,3.0,5.0,86,0.00,,SKC,0.02,VWS V14.01,2013-03-17 04:00:00,
2013-03-17 00:01:00,41.8,37.9,29.85,North,11,9.0,10.0,86,0.00,,SKC,0.00,VWS V14.01,2013-03-17 04:01:00,
2013-03-17 00:02:00,41.7,37.8,29.85,North,9,5.0,9.0,86,0.00,,SKC,0.00,VWS V14.01,2013-03-17 04:02:00,
2013-03-17 00:03:00,41.7,38.1,29.85,North,10,6.0,7.0,87,0.00,,SKC,0.00,VWS V14.01,2013-03-17 04:03:00,
2013-03-17 00:04:00,41.7,38.1,29.85,NE,43,3.0,6.0,87,0.00,,SKC,0.00,VWS V14.01,2013-03-17 04:04:00,
2013-03-17 00:05:00,41.9,38.0,29.86,North,349,7.0,7.0,86,0.00,,SKC,0.02,VWS V14.01,2013-03-17 04:05:00,
2013-03-17 00:06:00,41.6,38.0,29.85,NNE,26,2.0,4.0,87,0.00,,SKC,0.00,VWS V14.01,2013-03-17 04:06:00,
2013-03-17 00:07:00,41.6,38.0,29.85,North,5,5.0,5.0,87,0.00,,SKC,0.00,VWS V14.01,2013-03-17 04:07:00,
2013-03-17 00:08:00,41.6,38.0,29.85,North,9,5.0,6.0,87,0.00,,SKC,0.00,VWS V14.01,2013-03-17 04:08:00,
2013-03-17 00:09:00,41.5,37.9,29.85,NNE,30,6.0,6.0,87,0.00,,SKC,0.00,VWS V14.01,2013-03-17 04:09:00,
2013-03-17 00:10:00,41.7,37.8,29.85,NNE,16,5.0,5.0,86,0.00,,SKC,0.00,VWS V14.01,2013-03-17 04:10:00,
2013-03-17 00:11:00,41.5,37.9,29.85,North,9,8.0,8.0,87,0.00,,SKC,0.00,VWS V14.01,2013-03-17 04:11:00,
2013-03-17 00:12:00,41.5,37.9,29.85,NNE,24,2.0,8.0,87,0.00,,SKC,0.00,VWS V14.01,2013-03-17 04:12:00,
2013-03-17 00:13:00,41.5,37.9,29.85,NNE,14,2.0,6.0,87,0.00,,SKC,0.00,VWS V14.01,2013-03-17 04:13:00,
2013-03-17 00:14:00,41.5,37.9,29.85,NE,40,5.0,6.0,87,0.00,,SKC,0.00,VWS V14.01,2013-03-17 04:14:00,
2013-03-17 00:15:00,41.6,38.0,29.85,NNE,26,6.0,6.0,87,0.00,,SKC,0.00,VWS V14.01,2013-03-17 04:15:00,
2013-03-17 00:16:00,41.4,37.8,29.85,NE,40,2.0,2.0,87,0.00,,SKC,0.00,VWS V14.01,2013-03-17 04:16:00,
2013-03-17 00:17:00,41.4,37.8,29.85,NE,37,4.0,4.0,87,0.00,,SKC,0.00,VWS V14.01,2013-03-17 04:17:00,
2013-03-17 00:18:00,41.3,37.7,29.85,North,9,2.0,6.0,87,0.00,,SKC,0.00,VWS V14.01,2013-03-17 04:18:00,
2013-03-17 00:19:00,41.3,37.7,29.86,North,9,0.0,2.0,87,0.00,,SKC,0.00,VWS V14.01,2013-03-17 04:19:00,
2013-03-17 00:20:00,41.5,37.9,29.85,NNE,24,2.0,2.0,87,0.00,,SKC,0.00,VWS V14.01,2013-03-17 04:20:00,
2013-03-17 00:21:00,41.2,37.6,29.85,NNE,24,5.0,5.0,87,0.00,,SKC,0.00,VWS V14.01,2013-03-17 04:21:00,
2013-03-17 00:22:00,41.2,37.6,29.85,NNE,31,6.0,6.0,87,0.00,,SKC,0.00,VWS V14.01,2013-03-17 04:22:00,
2013-03-17 00:23:00,41.2,37.6,29.85,NE,34,4.0,6.0,87,0.00,,SKC,0.00,VWS V14.01,2013-03-17 04:23:00,
2013-03-17 00:24:00,41.1,37.5,29.85,ENE,61,1.0,5.0,87,0.00,,SKC,0.00,VWS V14.01,2013-03-17 04:24:00,
2013-03-17 00:25:00,41.4,37.8,29.85,NNE,26,5.0,5.0,87,0.00,,SKC,0.00,VWS V14.01,2013-03-17 04:25:00,
2013-03-17 00:26:00,41.1,37.5,29.85,East,96,2.0,3.0,87,0.00,,SKC,0.00,VWS V14.01,2013-03-17 04:26:00,
2013-03-17 00:27:00,41.1,37.5,29.85,NNE,26,4.0,6.0,87,0.00,,SKC,0.00,VWS V14.01,2013-03-17 04:27:00,
2013-03-17 00:29:00,41.1,37.5,29.85,NNE,26,5.0,7.0,87,0.00,,SKC,0.00,VWS V14.01,2013-03-17 04:29:00,
2013-03-17 00:30:00,41.2,37.6,29.85,NNE,19,6.0,6.0,87,0.00,,SKC,0.00,VWS V14.01,2013-03-17 04:30:00,
2013-03-17 00:31:00,41.1,37.5,29.85,NE,48,5.0,5.0,87,0.00,,SKC,0.00,VWS V14.01,2013-03-17 04:31:00,
2013-03-17 00:32:00,41.0,37.4,29.85,NNE,17,7.0,10.0,87,0.00,,SKC,0.00,VWS V14.01,2013-03-17 04:32:00,
2013-03-17 00:33:00,41.0,37.4,29.85,NE,37,5.0,7.0,87,0.00,,SKC,0.00,VWS V14.01,2013-03-17 04:33:00,
2013-03-17 00:34:00,41.0,37.4,29.85,NNE,26,2.0,5.0,87,0.00,,SKC,0.00,VWS V14.01,2013-03-17 04:34:00,
2013-03-17 00:35:00,41.1,37.5,29.85,NNE,26,4.0,6.0,87,0.00,,SKC,0.00,VWS V14.01,2013-03-17 04:35:00,
2013-03-17 00:36:00,41.0,38.9,29.85,NE,42,3.0,4.0,92,0.00,,SKC,0.00,VWS V14.01,2013-03-17 04:36:00,
2013-03-17 00:37:00,41.0,38.9,29.85,NE,47,6.0,7.0,92,0.00,,SKC,0.00,VWS V14.01,2013-03-17 04:37:00,
2013-03-17 00:38:00,41.0,37.4,29.85,NE,53,1.0,6.0,87,0.00,,SKC,0.00,VWS V14.01,2013-03-17 04:38:00,
2013-03-17 00:39:00,40.9,37.3,29.85,NE,41,4.0,4.0,87,0.00,,SKC,0.00,VWS V14.01,2013-03-17 04:39:00,
2013-03-17 00:40:00,41.0,37.4,29.85,NNE,17,7.0,10.0,87,0.00,,SKC,0.00,VWS V14.01,2013-03-17 04:40:00,
2013-03-17 00:41:00,40.9,37.3,29.85,NNE,32,0.0,2.0,87,0.00,,SKC,0.00,VWS V14.01,2013-03-17 04:41:00,
2013-03-17 00:42:00,40.9,37.3,29.85,ENE,70,2.0,4.0,87,0.00,,SKC,0.00,VWS V14.01,2013-03-17 04:42:00,
2013-03-17 00:43:00,40.9,37.3,29.85,NNE,26,5.0,5.0,87,0.00,,SKC,0.00,VWS V14.01,2013-03-17 04:43:00,
2013-03-17 00:44:00,40.9,37.3,29.85,North,11,3.0,6.0,87,0.00,,SKC,0.00,VWS V14.01,2013-03-17 04:44:00,
2013-03-17 00:45:00,41.0,38.9,29.85,NE,47,6.0,7.0,92,0.00,,SKC,0.00,VWS V14.01,2013-03-17 04:45:00,
2013-03-17 00:46:00,40.9,37.3,29.85,NE,36,2.0,6.0,87,0.00,,SKC,0.00,VWS V14.01,2013-03-17 04:46:00,
2013-03-17 00:47:00,40.8,37.2,29.85,NE,51,3.0,6.0,87,0.00,,SKC,0.00,VWS V14.01,2013-03-17 04:47:00,
2013-03-17 00:48:00,40.9,37.3,29.85,NE,38,2.0,4.0,87,0.00,,SKC,0.00,VWS V14.01,2013-03-17 04:48:00,
2013-03-17 00:49:00,40.8,37.2,29.85,ENE,59,3.0,4.0,87,0.00,,SKC,0.00,VWS V14.01,2013-03-17 04:49:00,
2013-03-17 00:50:00,40.9,37.3,29.85,ENE,70,2.0,4.0,87,0.00,,SKC,0.00,VWS V14.01,2013-03-17 04:50:00,
2013-03-17 00:51:00,40.8,37.2,29.85,North,11,5.0,5.0,87,0.00,,SKC,0.00,VWS V14.01,2013-03-17 04:51:00,
2013-03-17 00:52:00,40.8,37.2,29.85,ENE,64,3.0,5.0,87,0.00,,SKC,0.00,VWS V14.01,2013-03-17 04:52:00,
2013-03-17 00:53:00,40.8,37.2,29.85,ENE,64,0.0,4.0,87,0.00,,SKC,0.00,VWS V14.01,2013-03-17 04:53:00,
2013-03-17 00:54:00,40.8,37.2,29.85,NE,53,2.0,4.0,87,0.00,,SKC,0.00,VWS V14.01,2013-03-17 04:54:00,
2013-03-17 00:55:00,40.8,37.2,29.85,NE,51,3.0,6.0,87,0.00,,SKC,0.00,VWS V14.01,2013-03-17 04:55:00,
2013-03-17 00:56:00,40.8,37.2,29.85,NNE,32,1.0,2.0,87,0.00,,SKC,0.00,VWS V14.01,2013-03-17 04:56:00,
2013-03-17 00:57:00,40.7,37.1,29.85,NE,55,0.0,4.0,87,0.00,,SKC,0.00,VWS V14.01,2013-03-17 04:57:00,
2013-03-17 00:58:00,40.7,37.1,29.85,ENE,69,2.0,5.0,87,0.00,,SKC,0.00,VWS V14.01,2013-03-17 04:58:00,
2013-03-17 00:59:00,40.7,37.1,29.85,NNE,17,0.0,5.0,87,0.00,,SKC,0.00,VWS V14.01,2013-03-17 04:59:00,
2013-03-17 01:00:00,40.8,37.2,29.85,ENE,64,4.0,5.0,87,0.00,,SKC,0.00,VWS V14.01,2013-03-17 05:00:00,
2013-03-17 01:01:00,40.7,37.1,29.85,NE,44,1.0,2.0,87,0.00,,SKC,0.00,VWS V14.01,2013-03-17 05:01:00,
2013-03-17 01:02:00,40.6,37.0,29.86,NE,43,1.0,4.0,87,0.00,,SKC,0.00,VWS V14.01,2013-03-17 05:02:00,
2013-03-17 01:03:00,40.6,37.0,29.86,NE,43,1.0,2.0,87,0.00,,SKC,0.00,VWS V14.01,2013-03-17 05:03:00,
2013-03-17 01:04:00,40.6,37.0,29.86,NE,44,1.0,5.0,87,0.00,,SKC,0.00,VWS V14.01,2013-03-17 05:04:00,
2013-03-17 01:05:00,40.7,37.1,29.85,NE,55,0.0,4.0,87,0.00,,SKC,0.00,VWS V14.01,2013-03-17 05:05:00,
2013-03-17 01:06:00,40.6,37.0,29.86,East,88,2.0,4.0,87,0.00,,SKC,0.00,VWS V14.01,2013-03-17 05:06:00,
2013-03-17 01:07:00,40.6,37.0,29.86,East,86,4.0,4.0,87,0.00,,SKC,0.00,VWS V14.01,2013-03-17 05:07:00,
2013-03-17 01:08:00,40.7,37.1,29.86,East,87,2.0,4.0,87,0.00,,SKC,0.00,VWS V14.01,2013-03-17 05:08:00,
2013-03-17 01:09:00,40.7,37.1,29.86,East,85,1.0,2.0,87,0.00,,SKC,0.00,VWS V14.01,2013-03-17 05:09:00,
2013-03-17 01:10:00,40.6,37.0,29.86,NE,43,1.0,4.0,87,0.00,,SKC,0.00,VWS V14.01,2013-03-17 05:10:00,
2013-03-17 01:11:00,40.7,37.1,29.86,ESE,115,2.0,5.0,87,0.00,,SKC,0.00,VWS V14.01,2013-03-17 05:11:00,
2013-03-17 01:12:00,40.7,37.1,29.86,East,94,1.0,4.0,87,0.00,,SKC,0.00,VWS V14.01,2013-03-17 05:12:00,
2013-03-17 01:13:00,40.7,36.8,29.86,NE,47,1.0,5.0,86,0.00,,SKC,0.00,VWS V14.01,2013-03-17 05:13:00,
2013-03-17 01:14:00,40.7,36.8,29.86,ENE,71,2.0,5.0,86,0.00,,SKC,0.00,VWS V14.01,2013-03-17 05:14:00,
2013-03-17 01:15:00,40.6,37.0,29.86,East,86,4.0,4.0,87,0.00,,SKC,0.00,VWS V14.01,2013-03-17 05:15:00,
2013-03-17 01:16:00,40.8,36.9,29.86,ENE,65,3.0,5.0,86,0.00,,SKC,0.00,VWS V14.01,2013-03-17 05:16:00,
2013-03-17 01:17:00,40.8,36.9,29.86,ESE,105,5.0,5.0,86,0.00,,SKC,0.00,VWS V14.01,2013-03-17 05:17:00,
2013-03-17 01:18:00,40.8,36.9,29.86,East,90,2.0,6.0,86,0.00,,SKC,0.00,VWS V14.01,2013-03-17 05:18:00,
2013-03-17 01:19:00,40.8,36.9,29.86,ENE,62,4.0,5.0,86,0.00,,SKC,0.00,VWS V14.01,2013-03-17 05:19:00,
2013-03-17 01:20:00,40.7,37.1,29.86,East,94,0.0,4.0,87,0.00,,SKC,0.00,VWS V14.01,2013-03-17 05:20:00,
2013-03-17 01:21:00,40.8,36.9,29.86,ENE,70,4.0,6.0,86,0.00,,SKC,0.00,VWS V14.01,2013-03-17 05:21:00,
2013-03-17 01:22:00,40.9,37.0,29.86,ENE,63,5.0,5.0,86,0.00,,SKC,0.00,VWS V14.01,2013-03-17 05:22:00,
2013-03-17 01:23:00,40.9,37.0,29.86,ENE,61,2.0,6.0,86,0.00,,SKC,0.00,VWS V14.01,2013-03-17 05:23:00,
2013-03-17 01:24:00,40.9,37.0,29.86,NE,36,0.0,5.0,86,0.00,,SKC,0.00,VWS V14.01,2013-03-17 05:24:00,
2013-03-17 01:25:00,40.8,36.9,29.86,ENE,77,4.0,5.0,86,0.00,,SKC,0.00,VWS V14.01,2013-03-17 05:25:00,
2013-03-17 01:26:00,40.9,37.0,29.86,NNE,25,6.0,7.0,86,0.00,,SKC,0.00,VWS V14.01,2013-03-17 05:26:00,
2013-03-17 01:27:00,40.9,36.8,29.86,NE,50,2.0,6.0,85,0.00,,SKC,0.00,VWS V14.01,2013-03-17 05:27:00,
2013-03-17 01:28:00,40.9,36.8,29.86,NE,53,2.0,6.0,85,0.00,,SKC,0.00,VWS V14.01,2013-03-17 05:28:00,
2013-03-17 01:29:00,40.9,36.8,29.86,NE,42,4.0,5.0,85,0.00,,SKC,0.00,VWS V14.01,2013-03-17 05:29:00,
2013-03-17 01:30:00,40.9,37.0,29.86,ENE,68,4.0,4.0,86,0.00,,SKC,0.00,VWS V14.01,2013-03-17 05:30:00,
2013-03-17 01:31:00,40.9,36.8,29.86,NNE,31,5.0,6.0,85,0.00,,SKC,0.00,VWS V14.01,2013-03-17 05:31:00,
2013-03-17 01:32:00,40.9,36.8,29.86,NNE,26,2.0,5.0,85,0.00,,SKC,0.00,VWS V14.01,2013-03-17 05:32:00,
2013-03-17 01:33:00,40.9,36.8,29.86,NE,46,2.0,5.0,85,0.00,,SKC,0.00,VWS V14.01,2013-03-17 05:33:00,
2013-03-17 01:34:00,40.9,36.8,29.86,NE,49,4.0,5.0,85,0.00,,SKC,0.00,VWS V14.01,2013-03-17 05:34:00,
2013-03-17 01:35:00,40.9,36.8,29.86,NE,50,2.0,6.0,85,0.00,,SKC,0.00,VWS V14.01,2013-03-17 05:35:00,
2013-03-17 01:36:00,40.8,36.7,29.87,NE,34,5.0,7.0,85,0.00,,SKC,0.00,VWS V14.01,2013-03-17 05:36:00,
2013-03-17 01:37:00,40.8,36.7,29.87,NE,44,1.0,6.0,85,0.00,,SKC,0.00,VWS V14.01,2013-03-17 05:37:00,
2013-03-17 01:38:00,40.7,36.5,29.87,NE,51,2.0,4.0,85,0.00,,SKC,0.00,VWS V14.01,2013-03-17 05:38:00,
2013-03-17 01:39:00,40.7,36.5,29.87,NE,52,6.0,6.0,85,0.00,,SKC,0.00,VWS V14.01,2013-03-17 05:39:00,
2013-03-17 01:40:00,40.9,36.8,29.86,NNE,26,1.0,5.0,85,0.00,,SKC,0.00,VWS V14.01,2013-03-17 05:40:00,
2013-03-17 01:41:00,40.7,36.5,29.87,NNE,32,7.0,8.0,85,0.00,,SKC,0.00,VWS V14.01,2013-03-17 05:41:00,
2013-03-17 01:42:00,40.6,36.5,29.87,NE,55,2.0,7.0,85,0.00,,SKC,0.00,VWS V14.01,2013-03-17 05:42:00,
2013-03-17 01:43:00,40.6,36.5,29.87,NE,49,3.0,5.0,85,0.00,,SKC,0.00,VWS V14.01,2013-03-17 05:43:00,
2013-03-17 01:44:00,40.6,36.5,29.87,ENE,74,5.0,5.0,85,0.00,,SKC,0.00,VWS V14.01,2013-03-17 05:44:00,
2013-03-17 01:45:00,40.8,36.7,29.87,NE,44,2.0,6.0,85,0.00,,SKC,0.00,VWS V14.01,2013-03-17 05:45:00,
2013-03-17 01:46:00,40.6,36.5,29.87,NE,46,2.0,7.0,85,0.00,,SKC,0.00,VWS V14.01,2013-03-17 05:46:00,
2013-03-17 01:47:00,40.5,36.3,29.87,NNE,14,4.0,5.0,85,0.00,,SKC,0.00,VWS V14.01,2013-03-17 05:47:00,
2013-03-17 01:48:00,40.5,36.3,29.87,NNE,17,3.0,6.0,85,0.00,,SKC,0.00,VWS V14.01,2013-03-17 05:48:00,
2013-03-17 01:49:00,40.5,36.3,29.87,ENE,67,4.0,5.0,85,0.00,,SKC,0.00,VWS V14.01,2013-03-17 05:49:00,
2013-03-17 01:50:00,40.7,36.5,29.87,NE,50,3.0,7.0,85,0.00,,SKC,0.00,VWS V14.01,2013-03-17 05:50:00,
2013-03-17 01:51:00,40.4,36.3,29.87,NNE,26,5.0,5.0,85,0.00,,SKC,0.00,VWS V14.01,2013-03-17 05:51:00,
2013-03-17 01:52:00,40.4,36.3,29.88,NE,55,6.0,7.0,85,0.00,,SKC,0.00,VWS V14.01,2013-03-17 05:52:00,
2013-03-17 01:53:00,40.4,36.3,29.88,North,5,5.0,6.0,85,0.00,,SKC,0.00,VWS V14.01,2013-03-17 05:53:00,
2013-03-17 01:54:00,40.4,36.3,29.88,NNE,20,7.0,7.0,85,0.00,,SKC,0.00,VWS V14.01,2013-03-17 05:54:00,
2013-03-17 01:55:00,40.6,36.5,29.87,NNE,14,4.0,5.0,85,0.00,,SKC,0.00,VWS V14.01,2013-03-17 05:55:00,
2013-03-17 01:56:00,40.4,36.3,29.88,NNE,28,2.0,6.0,85,0.00,,SKC,0.00,VWS V14.01,2013-03-17 05:56:00,
2013-03-17 01:57:00,40.4,36.3,29.88,ENE,73,4.0,4.0,85,0.00,,SKC,0.00,VWS V14.01,2013-03-17 05:57:00,
2013-03-17 01:58:00,40.4,36.3,29.88,NE,53,3.0,7.0,85,0.00,,SKC,0.00,VWS V14.01,2013-03-17 05:58:00,
2013-03-17 01:59:00,40.4,36.3,29.88,NNE,25,1.0,5.0,85,0.00,,SKC,0.00,VWS V14.01,2013-03-17 05:59:00,
2013-03-17 02:00:00,40.4,36.3,29.88,North,355,6.0,7.0,85,0.00,,SKC,0.00,VWS V14.01,2013-03-17 06:00:00,
2013-03-17 02:01:00,40.4,36.3,29.89,NNE,26,0.0,5.0,85,0.00,,SKC,0.00,VWS V14.01,2013-03-17 06:01:00,
2013-03-17 02:02:00,40.3,36.2,29.89,NNE,26,0.0,2.0,85,0.00,,SKC,0.00,VWS V14.01,2013-03-17 06:02:00,
2013-03-17 02:03:00,40.3,36.2,29.89,NNE,30,0.0,5.0,85,0.00,,SKC,0.00,VWS V14.01,2013-03-17 06:03:00,
2013-03-17 02:04:00,40.3,36.2,29.89,ENE,78,2.0,5.0,85,0.00,,SKC,0.00,VWS V14.01,2013-03-17 06:04:00,
2013-03-17 02:05:00,40.4,36.3,29.88,NNE,28,2.0,2.0,85,0.00,,SKC,0.00,VWS V14.01,2013-03-17 06:05:00,
2013-03-17 02:06:00,40.3,36.2,29.89,ENE,78,0.0,2.0,85,0.00,,SKC,0.00,VWS V14.01,2013-03-17 06:06:00,
2013-03-17 02:07:00,40.3,36.5,29.89,NE,38,1.0,2.0,86,0.00,,SKC,0.00,VWS V14.01,2013-03-17 06:07:00,
2013-03-17 02:08:00,40.3,36.5,29.89,ENE,67,2.0,6.0,86,0.00,,SKC,0.00,VWS V14.01,2013-03-17 06:08:00,
2013-03-17 02:09:00,40.3,36.5,29.89,NE,37,2.0,5.0,86,0.00,,SKC,0.00,VWS V14.01,2013-03-17 06:09:00,
2013-03-17 02:10:00,40.4,36.3,29.89,NNE,26,0.0,2.0,85,0.00,,SKC,0.00,VWS V14.01,2013-03-17 06:10:00,
2013-03-17 02:11:00,40.2,36.3,29.89,East,83,3.0,4.0,86,0.00,,SKC,0.00,VWS V14.01,2013-03-17 06:11:00,
2013-03-17 02:12:00,40.3,36.5,29.89,ENE,59,2.0,5.0,86,0.00,,SKC,0.00,VWS V14.01,2013-03-17 06:12:00,
2013-03-17 02:13:00,40.2,36.3,29.89,NE,40,2.0,6.0,86,0.00,,SKC,0.00,VWS V14.01,2013-03-17 06:13:00,
2013-03-17 02:14:00,40.2,36.3,29.89,ENE,70,5.0,5.0,86,0.00,,SKC,0.00,VWS V14.01,2013-03-17 06:14:00,
2013-03-17 02:15:00,40.3,36.5,29.89,NNE,26,2.0,2.0,86,0.00,,SKC,0.00,VWS V14.01,2013-03-17 06:15:00,
2013-03-17 02:16:00,40.2,36.3,29.89,NNE,13,2.0,5.0,86,0.00,,SKC,0.00,VWS V14.01,2013-03-17 06:16:00,
2013-03-17 02:17:00,40.2,36.3,29.89,NE,36,2.0,5.0,86,0.00,,SKC,0.00,VWS V14.01,2013-03-17 06:17:00,
2013-03-17 02:18:00,40.1,36.3,29.89,NE,36,0.0,3.0,86,0.00,,SKC,0.00,VWS V14.01,2013-03-17 06:18:00,
2013-03-17 02:19:00,40.1,36.3,29.89,NE,36,0.0,0.0,86,0.00,,SKC,0.00,VWS V14.01,2013-03-17 06:19:00,
2013-03-17 02:20:00,40.3,36.5,29.89,ENE,59,5.0,5.0,86,0.00,,SKC,0.00,VWS V14.01,2013-03-17 06:20:00,
2013-03-17 02:21:00,40.1,36.3,29.89,NNE,12,0.0,2.0,86,0.00,,SKC,0.00,VWS V14.01,2013-03-17 06:21:00,
2013-03-17 02:22:00,40.1,36.3,29.89,NNE,12,0.0,2.0,86,0.00,,SKC,0.00,VWS V14.01,2013-03-17 06:22:00,
2013-03-17 02:23:00,40.1,36.0,29.90,NE,38,5.0,5.0,85,0.00,,SKC,0.00,VWS V14.01,2013-03-17 06:23:00,
2013-03-17 02:24:00,40.0,35.9,29.90,North,355,1.0,6.0,85,0.00,,SKC,0.00,VWS V14.01,2013-03-17 06:24:00,
2013-03-17 02:25:00,40.2,36.3,29.89,NE,36,0.0,5.0,86,0.00,,SKC,0.00,VWS V14.01,2013-03-17 06:25:00,
2013-03-17 02:26:00,40.0,35.9,29.89,NE,44,2.0,8.0,85,0.00,,SKC,0.00,VWS V14.01,2013-03-17 06:26:00,
2013-03-17 02:27:00,40.0,35.9,29.89,NE,43,5.0,5.0,85,0.00,,SKC,0.00,VWS V14.01,2013-03-17 06:27:00,
2013-03-17 02:28:00,40.0,35.9,29.90,NE,53,2.0,6.0,85,0.00,,SKC,0.00,VWS V14.01,2013-03-17 06:28:00,
2013-03-17 02:29:00,39.9,35.8,29.90,NE,52,2.0,4.0,85,0.00,,SKC,0.00,VWS V14.01,2013-03-17 06:29:00,
2013-03-17 02:30:00,40.1,36.3,29.89,NNE,12,0.0,2.0,86,0.00,,SKC,0.00,VWS V14.01,2013-03-17 06:30:00,
2013-03-17 02:31:00,39.9,36.1,29.90,NE,52,0.0,1.0,86,0.00,,SKC,0.00,VWS V14.01,2013-03-17 06:31:00,
2013-03-17 02:32:00,39.9,36.1,29.90,NE,44,0.0,2.0,86,0.00,,SKC,0.00,VWS V14.01,2013-03-17 06:32:00,
2013-03-17 02:33:00,39.8,36.0,29.90,NE,43,4.0,5.0,86,0.00,,SKC,0.00,VWS V14.01,2013-03-17 06:33:00,
2013-03-17 02:34:00,39.8,36.0,29.90,NE,43,0.0,4.0,86,0.00,,SKC,0.00,VWS V14.01,2013-03-17 06:34:00,
2013-03-17 02:35:00,40.0,35.9,29.89,ENE,65,2.0,5.0,85,0.00,,SKC,0.00,VWS V14.01,2013-03-17 06:35:00,
2013-03-17 02:36:00,39.7,35.9,29.90,NE,45,2.0,2.0,86,0.00,,SKC,0.00,VWS V14.01,2013-03-17 06:36:00,
2013-03-17 02:37:00,39.6,35.8,29.90,NE,45,0.0,2.0,86,0.00,,SKC,0.00,VWS V14.01,2013-03-17 06:37:00,
2013-03-17 02:38:00,39.6,35.8,29.90,NNW,342,5.0,7.0,86,0.00,,SKC,0.00,VWS V14.01,2013-03-17 06:38:00,
2013-03-17 02:39:00,39.5,35.7,29.90,NNW,342,0.0,5.0,86,0.00,,SKC,0.00,VWS V14.01,2013-03-17 06:39:00,
2013-03-17 02:40:00,39.9,36.1,29.90,NE,44,0.0,2.0,86,0.00,,SKC,0.00,VWS V14.01,2013-03-17 06:40:00,
2013-03-17 02:41:00,39.5,35.7,29.90,NE,53,2.0,6.0,86,0.00,,SKC,0.00,VWS V14.01,2013-03-17 06:41:00,
2013-03-17 02:42:00,39.5,35.7,29.90,NNE,26,2.0,5.0,86,0.00,,SKC,0.00,VWS V14.01,2013-03-17 06:42:00,
2013-03-17 02:43:00,39.6,35.8,29.90,NNE,26,2.0,2.0,86,0.00,,SKC,0.00,VWS V14.01,2013-03-17 06:43:00,
2013-03-17 02:44:00,39.5,35.7,29.90,NE,42,4.0,7.0,86,0.00,,SKC,0.00,VWS V14.01,2013-03-17 06:44:00,
2013-03-17 02:45:00,39.6,35.8,29.90,NE,45,1.0,2.0,86,0.00,,SKC,0.00,VWS V14.01,2013-03-17 06:45:00,
2013-03-17 02:46:00,39.5,35.7,29.90,NE,40,2.0,6.0,86,0.00,,SKC,0.00,VWS V14.01,2013-03-17 06:46:00,
2013-03-17 02:47:00,39.5,35.7,29.90,NNE,22,4.0,8.0,86,0.00,,SKC,0.00,VWS V14.01,2013-03-17 06:47:00,
2013-03-17 02:48:00,39.5,35.7,29.90,NE,41,5.0,6.0,86,0.00,,SKC,0.00,VWS V14.01,2013-03-17 06:48:00,
2013-03-17 02:49:00,39.5,35.7,29.90,ENE,57,4.0,5.0,86,0.00,,SKC,0.00,VWS V14.01,2013-03-17 06:49:00,
2013-03-17 02:50:00,39.5,35.7,29.90,NNE,26,1.0,5.0,86,0.00,,SKC,0.00,VWS V14.01,2013-03-17 06:50:00,
2013-03-17 02:51:00,39.4,35.6,29.90,NNE,28,4.0,5.0,86,0.00,,SKC,0.00,VWS V14.01,2013-03-17 06:51:00,
2013-03-17 02:52:00,39.4,35.6,29.90,NE,37,3.0,5.0,86,0.00,,SKC,0.00,VWS V14.01,2013-03-17 06:52:00,
2013-03-17 02:53:00,39.4,35.6,29.90,NE,37,2.0,3.0,86,0.00,,SKC,0.00,VWS V14.01,2013-03-17 06:53:00,
2013-03-17 02:54:00,39.4,35.6,29.90,North,5,4.0,6.0,86,0.00,,SKC,0.00,VWS V14.01,2013-03-17 06:54:00,
2013-03-17 02:55:00,39.5,35.7,29.90,NNE,18,8.0,8.0,86,0.00,,SKC,0.00,VWS V14.01,2013-03-17 06:55:00,
2013-03-17 02:56:00,39.4,35.6,29.90,ENE,58,4.0,6.0,86,0.00,,SKC,0.00,VWS V14.01,2013-03-17 06:56:00,
2013-03-17 02:57:00,39.3,35.5,29.90,East,95,4.0,6.0,86,0.00,,SKC,0.00,VWS V14.01,2013-03-17 06:57:00,
2013-03-17 02:58:00,39.3,35.5,29.90,NNE,16,2.0,9.0,86,0.00,,SKC,0.00,VWS V14.01,2013-03-17 06:58:00,
2013-03-17 02:59:00,39.3,35.5,29.90,ENE,76,2.0,5.0,86,0.00,,SKC,0.00,VWS V14.01,2013-03-17 06:59:00,
2013-03-17 03:00:00,39.4,35.6,29.90,NE,53,2.0,5.0,86,0.00,,SKC,0.00,VWS V14.01,2013-03-17 07:00:00,
2013-03-17 03:01:00,39.3,35.5,29.91,NNE,28,4.0,6.0,86,0.00,,SKC,0.00,VWS V14.01,2013-03-17 07:01:00,
2013-03-17 03:02:00,39.3,35.5,29.91,NNE,32,2.0,7.0,86,0.00,,SKC,0.00,VWS V14.01,2013-03-17 07:02:00,
2013-03-17 03:03:00,39.3,35.5,29.91,NE,41,4.0,6.0,86,0.00,,SKC,0.00,VWS V14.01,2013-03-17 07:03:00,
2013-03-17 03:04:00,39.3,35.5,29.91,North,5,3.0,4.0,86,0.00,,SKC,0.00,VWS V14.01,2013-03-17 07:04:00,
2013-03-17 03:05:00,39.3,35.5,29.90,ENE,77,6.0,6.0,86,0.00,,SKC,0.00,VWS V14.01,2013-03-17 07:05:00,
2013-03-17 03:06:00,39.2,35.4,29.91,NE,36,4.0,4.0,86,0.00,,SKC,0.00,VWS V14.01,2013-03-17 07:06:00,
2013-03-17 03:07:00,39.2,35.4,29.91,ESE,119,2.0,4.0,86,0.00,,SKC,0.00,VWS V14.01,2013-03-17 07:07:00,
2013-03-17 03:08:00,39.2,35.4,29.91,East,101,4.0,4.0,86,0.00,,SKC,0.00,VWS V14.01,2013-03-17 07:08:00,
2013-03-17 03:09:00,39.2,35.4,29.91,ENE,76,2.0,6.0,86,0.00,,SKC,0.00,VWS V14.01,2013-03-17 07:09:00,
2013-03-17 03:10:00,39.3,35.5,29.91,NNE,32,1.0,7.0,86,0.00,,SKC,0.00,VWS V14.01,2013-03-17 07:10:00,
2013-03-17 03:11:00,39.2,35.4,29.91,North,360,5.0,7.0,86,0.00,,SKC,0.00,VWS V14.01,2013-03-17 07:11:00,
2013-03-17 03:12:00,39.2,35.4,29.91,NE,47,4.0,5.0,86,0.00,,SKC,0.00,VWS V14.01,2013-03-17 07:12:00,
2013-03-17 03:13:00,39.2,35.4,29.91,ENE,77,5.0,8.0,86,0.00,,SKC,0.00,VWS V14.01,2013-03-17 07:13:00,
2013-03-17 03:14:00,39.2,35.4,29.91,NNE,28,4.0,5.0,86,0.00,,SKC,0.00,VWS V14.01,2013-03-17 07:14:00,
2013-03-17 03:15:00,39.2,35.4,29.91,ESE,119,4.0,4.0,86,0.00,,SKC,0.00,VWS V14.01,2013-03-17 07:15:00,
2013-03-17 03:16:00,39.2,35.4,29.91,ENE,63,5.0,6.0,86,0.00,,SKC,0.00,VWS V14.01,2013-03-17 07:16:00,
2013-03-17 03:17:00,39.2,35.4,29.91,ENE,61,4.0,6.0,86,0.00,,SKC,0.00,VWS V14.01,2013-03-17 07:17:00,
2013-03-17 03:18:00,39.2,35.4,29.91,NE,41,6.0,7.0,86,0.00,,SKC,0.00,VWS V14.01,2013-03-17 07:18:00,
2013-03-17 03:19:00,39.2,35.4,29.91,NE,44,4.0,7.0,86,0.00,,SKC,0.00,VWS V14.01,2013-03-17 07:19:00,
2013-03-17 03:20:00,39.2,35.4,29.91,NNE,22,3.0,5.0,86,0.00,,SKC,0.00,VWS V14.01,2013-03-17 07:20:00,
2013-03-17 03:21:00,39.2,35.4,29.91,NE,36,4.0,7.0,86,0.00,,SKC,0.00,VWS V14.01,2013-03-17 07:21:00,
2013-03-17 03:22:00,39.2,35.4,29.91,ENE,70,2.0,5.0,86,0.00,,SKC,0.00,VWS V14.01,2013-03-17 07:22:00,
2013-03-17 03:23:00,39.2,35.4,29.91,East,86,3.0,5.0,86,0.00,,SKC,0.00,VWS V14.01,2013-03-17 07:23:00,
2013-03-17 03:24:00,39.1,35.3,29.91,NE,37,3.0,5.0,86,0.00,,SKC,0.00,VWS V14.01,2013-03-17 07:24:00,
2013-03-17 03:25:00,39.2,35.4,29.91,NE,50,4.0,6.0,86,0.00,,SKC,0.00,VWS V14.01,2013-03-17 07:25:00,
2013-03-17 03:26:00,39.1,35.3,29.91,ENE,67,1.0,6.0,86,0.00,,SKC,0.00,VWS V14.01,2013-03-17 07:26:00,
2013-03-17 03:27:00,39.1,35.3,29.91,NE,43,2.0,5.0,86,0.00,,SKC,0.00,VWS V14.01,2013-03-17 07:27:00,
2013-03-17 03:28:00,39.1,35.3,29.91,North,5,1.0,4.0,86,0.00,,SKC,0.00,VWS V14.01,2013-03-17 07:28:00,
2013-03-17 03:29:00,39.1,35.3,29.91,NNE,29,0.0,5.0,86,0.00,,SKC,0.00,VWS V14.01,2013-03-17 07:29:00,
2013-03-17 03:30:00,39.2,35.4,29.91,ENE,70,0.0,5.0,86,0.00,,SKC,0.00,VWS V14.01,2013-03-17 07:30:00,
2013-03-17 03:31:00,39.1,35.3,29.91,NNE,31,4.0,7.0,86,0.00,,SKC,0.00,VWS V14.01,2013-03-17 07:31:00,
2013-03-17 03:32:00,39.1,35.3,29.91,ENE,65,6.0,6.0,86,0.00,,SKC,0.00,VWS V14.01,2013-03-17 07:32:00,
2013-03-17 03:33:00,39.1,35.3,29.91,NNE,26,3.0,7.0,86,0.00,,SKC,0.00,VWS V14.01,2013-03-17 07:33:00,
2013-03-17 03:34:00,39.1,35.0,29.91,NNE,20,5.0,5.0,85,0.00,,SKC,0.00,VWS V14.01,2013-03-17 07:34:00,
2013-03-17 03:35:00,39.2,35.4,29.91,ENE,59,2.0,2.0,86,0.00,,SKC,0.00,VWS V14.01,2013-03-17 07:35:00,
2013-03-17 03:36:00,39.1,35.0,29.91,NE,50,5.0,5.0,85,0.00,,SKC,0.00,VWS V14.01,2013-03-17 07:36:00,
2013-03-17 03:37:00,39.0,34.9,29.91,NE,35,6.0,6.0,85,0.00,,SKC,0.00,VWS V14.01,2013-03-17 07:37:00,
2013-03-17 03:38:00,39.0,34.9,29.91,NNE,22,6.0,8.0,85,0.00,,SKC,0.00,VWS V14.01,2013-03-17 07:38:00,
2013-03-17 03:39:00,39.0,34.9,29.91,NNE,13,5.0,7.0,85,0.00,,SKC,0.00,VWS V14.01,2013-03-17 07:39:00,
2013-03-17 03:40:00,39.1,35.3,29.91,NNE,17,4.0,5.0,86,0.00,,SKC,0.00,VWS V14.01,2013-03-17 07:40:00,
2013-03-17 03:41:00,38.9,34.8,29.91,NE,55,4.0,4.0,85,0.00,,SKC,0.00,VWS V14.01,2013-03-17 07:41:00,
2013-03-17 03:42:00,38.9,34.8,29.91,ENE,73,5.0,5.0,85,0.00,,SKC,0.00,VWS V14.01,2013-03-17 07:42:00,
2013-03-17 03:43:00,38.8,34.7,29.91,ENE,63,3.0,6.0,85,0.00,,SKC,0.00,VWS V14.01,2013-03-17 07:43:00,
2013-03-17 03:44:00,38.8,34.7,29.91,NE,36,6.0,9.0,85,0.00,,SKC,0.00,VWS V14.01,2013-03-17 07:44:00,
2013-03-17 03:45:00,39.1,35.0,29.91,NNE,33,5.0,6.0,85,0.00,,SKC,0.00,VWS V14.01,2013-03-17 07:45:00,
2013-03-17 03:46:00,38.7,34.6,29.91,ENE,61,4.0,9.0,85,0.00,,SKC,0.00,VWS V14.01,2013-03-17 07:46:00,
2013-03-17 03:47:00,38.6,34.5,29.91,NE,50,5.0,7.0,85,0.00,,SKC,0.00,VWS V14.01,2013-03-17 07:47:00,
2013-03-17 03:48:00,38.6,34.5,29.91,ENE,60,1.0,6.0,85,0.00,,SKC,0.00,VWS V14.01,2013-03-17 07:48:00,
2013-03-17 03:49:00,38.6,34.5,29.91,NE,53,4.0,4.0,85,0.00,,SKC,0.00,VWS V14.01,2013-03-17 07:49:00,
2013-03-17 03:50:00,38.9,34.8,29.91,NE,44,4.0,5.0,85,0.00,,SKC,0.00,VWS V14.01,2013-03-17 07:50:00,
2013-03-17 03:51:00,38.5,34.4,29.91,ENE,59,2.0,4.0,85,0.00,,SKC,0.00,VWS V14.01,2013-03-17 07:51:00,
2013-03-17 03:52:00,38.5,34.4,29.91,NE,52,6.0,8.0,85,0.00,,SKC,0.00,VWS V14.01,2013-03-17 07:52:00,
2013-03-17 03:53:00,38.4,34.3,29.91,NE,44,4.0,8.0,85,0.00,,SKC,0.00,VWS V14.01,2013-03-17 07:53:00,
2013-03-17 03:54:00,38.4,34.3,29.91,NE,35,4.0,7.0,85,0.00,,SKC,0.00,VWS V14.01,2013-03-17 07:54:00,
2013-03-17 03:55:00,38.7,34.6,29.91,NNE,18,4.0,7.0,85,0.00,,SKC,0.00,VWS V14.01,2013-03-17 07:55:00,
2013-03-17 03:56:00,38.3,34.2,29.92,NE,40,2.0,5.0,85,0.00,,SKC,0.00,VWS V14.01,2013-03-17 07:56:00,
2013-03-17 03:57:00,38.3,34.2,29.92,ENE,60,2.0,6.0,85,0.00,,SKC,0.00,VWS V14.01,2013-03-17 07:57:00,
2013-03-17 03:58:00,38.3,34.2,29.92,NNE,21,4.0,5.0,85,0.00,,SKC,0.00,VWS V14.01,2013-03-17 07:58:00,
2013-03-17 03:59:00,38.3,34.2,29.92,NE,55,5.0,7.0,85,0.00,,SKC,0.00,VWS V14.01,2013-03-17 07:59:00,
2013-03-17 04:00:00,38.5,34.4,29.91,NNE,31,7.0,8.0,85,0.00,,SKC,0.00,VWS V14.01,2013-03-17 08:00:00,
2013-03-17 04:01:00,38.2,34.1,29.92,NNE,22,4.0,5.0,85,0.00,,SKC,0.00,VWS V14.01,2013-03-17 08:01:00,
2013-03-17 04:02:00,38.1,34.0,29.92,NNE,22,2.0,4.0,85,0.00,,SKC,0.00,VWS V14.01,2013-03-17 08:02:00,
2013-03-17 04:03:00,38.1,34.0,29.92,NNE,14,6.0,8.0,85,0.00,,SKC,0.00,VWS V14.01,2013-03-17 08:03:00,
2013-03-17 04:04:00,38.1,34.0,29.92,ENE,71,5.0,8.0,85,0.00,,SKC,0.00,VWS V14.01,2013-03-17 08:04:00,
2013-03-17 04:05:00,38.3,34.2,29.92,ENE,60,3.0,6.0,85,0.00,,SKC,0.00,VWS V14.01,2013-03-17 08:05:00,
2013-03-17 04:06:00,38.0,33.9,29.92,NNE,18,5.0,6.0,85,0.00,,SKC,0.00,VWS V14.01,2013-03-17 08:06:00,
2013-03-17 04:07:00,38.0,33.9,29.92,NNE,24,2.0,5.0,85,0.00,,SKC,0.00,VWS V14.01,2013-03-17 08:07:00,
2013-03-17 04:08:00,37.9,33.8,29.92,NE,38,4.0,5.0,85,0.00,,SKC,0.00,VWS V14.01,2013-03-17 08:08:00,
2013-03-17 04:09:00,37.9,33.8,29.92,ENE,57,4.0,5.0,85,0.00,,SKC,0.00,VWS V14.01,2013-03-17 08:09:00,
2013-03-17 04:10:00,38.1,34.0,29.92,NNE,22,1.0,4.0,85,0.00,,SKC,0.00,VWS V14.01,2013-03-17 08:10:00,
2013-03-17 04:11:00,37.9,33.8,29.92,NE,44,5.0,7.0,85,0.00,,SKC,0.00,VWS V14.01,2013-03-17 08:11:00,
2013-03-17 04:12:00,37.8,33.7,29.92,NE,44,4.0,6.0,85,0.00,,SKC,0.00,VWS V14.01,2013-03-17 08:12:00,
2013-03-17 04:13:00,37.8,33.7,29.92,NE,50,6.0,8.0,85,0.00,,SKC,0.00,VWS V14.01,2013-03-17 08:13:00,
2013-03-17 04:14:00,37.8,33.7,29.91,NNE,26,4.0,7.0,85,0.00,,SKC,0.00,VWS V14.01,2013-03-17 08:14:00,
2013-03-17 04:15:00,38.0,33.9,29.92,NE,42,5.0,5.0,85,0.00,,SKC,0.00,VWS V14.01,2013-03-17 08:15:00,
2013-03-17 04:16:00,37.7,33.6,29.91,East,80,5.0,9.0,85,0.00,,SKC,0.00,VWS V14.01,2013-03-17 08:16:00,
2013-03-17 04:17:00,37.7,33.6,29.91,NE,37,2.0,8.0,85,0.00,,SKC,0.00,VWS V14.01,2013-03-17 08:17:00,
2013-03-17 04:18:00,37.7,33.6,29.91,ENE,66,5.0,6.0,85,0.00,,SKC,0.00,VWS V14.01,2013-03-17 08:18:00,
2013-03-17 04:19:00,37.8,33.7,29.92,NE,42,5.0,5.0,85,0.00,,SKC,0.00,VWS V14.01,2013-03-17 08:19:00,
2013-03-17 04:20:00,37.6,33.5,29.91,NNE,26,7.0,9.0,85,0.00,,SKC,0.00,VWS V14.01,2013-03-17 08:20:00,
2013-03-17 04:21:00,37.6,33.5,29.91,North,355,4.0,7.0,85,0.00,,SKC,0.00,VWS V14.01,2013-03-17 08:21:00,
2013-03-17 04:22:00,37.6,33.5,29.92,NNE,26,3.0,4.0,85,0.00,,SKC,0.00,VWS V14.01,2013-03-17 08:22:00,
2013-03-17 04:23:00,37.6,33.5,29.92,NNE,28,3.0,6.0,85,0.00,,SKC,0.00,VWS V14.01,2013-03-17 08:23:00,
2013-03-17 04:24:00,37.7,33.6,29.91,NE,37,3.0,8.0,85,0.00,,SKC,0.00,VWS V14.01,2013-03-17 08:24:00,
2013-03-17 04:25:00,37.6,33.5,29.91,NE,47,2.0,5.0,85,0.00,,SKC,0.00,VWS V14.01,2013-03-17 08:25:00,
2013-03-17 04:26:00,37.6,33.5,29.91,NE,55,2.0,6.0,85,0.00,,SKC,0.00,VWS V14.01,2013-03-17 08:26:00,
2013-03-17 04:27:00,37.5,33.4,29.91,NNE,13,4.0,5.0,85,0.00,,SKC,0.00,VWS V14.01,2013-03-17 08:27:00,
2013-03-17 04:28:00,37.5,33.4,29.91,NNE,30,4.0,6.0,85,0.00,,SKC,0.00,VWS V14.01,2013-03-17 08:28:00,
2013-03-17 04:29:00,37.6,33.5,29.92,North,5,2.0,4.0,85,0.00,,SKC,0.00,VWS V14.01,2013-03-17 08:29:00,
2013-03-17 04:30:00,37.5,33.4,29.91,NE,43,7.0,9.0,85,0.00,,SKC,0.00,VWS V14.01,2013-03-17 08:30:00,
2013-03-17 04:31:00,37.5,33.4,29.91,NE,53,6.0,7.0,85,0.00,,SKC,0.00,VWS V14.01,2013-03-17 08:31:00,
2013-03-17 04:32:00,37.5,33.4,29.91,North,11,6.0,9.0,85,0.00,,SKC,0.00,VWS V14.01,2013-03-17 08:32:00,
2013-03-17 04:33:00,37.5,33.4,29.91,NE,44,2.0,6.0,85,0.00,,SKC,0.00,VWS V14.01,2013-03-17 08:33:00,
2013-03-17 04:34:00,37.5,33.4,29.91,NNE,31,4.0,4.0,85,0.00,,SKC,0.00,VWS V14.01,2013-03-17 08:34:00,
2013-03-17 04:35:00,37.4,33.3,29.92,NNE,20,4.0,5.0,85,0.00,,SKC,0.00,VWS V14.01,2013-03-17 08:35:00,
2013-03-17 04:36:00,37.4,33.3,29.92,NNE,24,5.0,7.0,85,0.00,,SKC,0.00,VWS V14.01,2013-03-17 08:36:00,
2013-03-17 04:37:00,37.4,33.3,29.92,NE,42,4.0,7.0,85,0.00,,SKC,0.00,VWS V14.01,2013-03-17 08:37:00,
2013-03-17 04:38:00,37.4,33.3,29.92,NE,44,5.0,5.0,85,0.00,,SKC,0.00,VWS V14.01,2013-03-17 08:38:00,
2013-03-17 04:39:00,37.5,33.4,29.91,NE,49,7.0,9.0,85,0.00,,SKC,0.00,VWS V14.01,2013-03-17 08:39:00,
2013-03-17 04:40:00,37.3,33.2,29.92,NE,50,6.0,9.0,85,0.00,,SKC,0.00,VWS V14.01,2013-03-17 08:40:00,
2013-03-17 04:41:00,37.3,33.2,29.92,NE,46,4.0,8.0,85,0.00,,SKC,0.00,VWS V14.01,2013-03-17 08:41:00,
2013-03-17 04:42:00,37.3,33.2,29.92,NE,55,6.0,7.0,85,0.00,,SKC,0.00,VWS V14.01,2013-03-17 08:42:00,
2013-03-17 04:43:00,37.3,33.2,29.92,ENE,57,4.0,6.0,85,0.00,,SKC,0.00,VWS V14.01,2013-03-17 08:43:00,
2013-03-17 04:44:00,37.3,33.2,29.92,ENE,76,5.0,6.0,85,0.00,,SKC,0.00,VWS V14.01,2013-03-17 08:44:00,
2013-03-17 04:45:00,37.4,33.3,29.92,NNE,33,2.0,7.0,85,0.00,,SKC,0.00,VWS V14.01,2013-03-17 08:45:00,
2013-03-17 04:46:00,37.3,33.2,29.92,NE,37,4.0,6.0,85,0.00,,SKC,0.00,VWS V14.01,2013-03-17 08:46:00,
2013-03-17 04:47:00,37.3,33.2,29.92,ENE,62,4.0,6.0,85,0.00,,SKC,0.00,VWS V14.01,2013-03-17 08:47:00,
2013-03-17 04:48:00,37.3,33.2,29.92,NNE,29,4.0,7.0,85,0.00,,SKC,0.00,VWS V14.01,2013-03-17 08:48:00,
2013-03-17 04:49:00,37.2,33.1,29.92,NNE,24,3.0,5.0,85,0.00,,SKC,0.00,VWS V14.01,2013-03-17 08:49:00,
2013-03-17 04:50:00,37.3,33.2,29.92,NNE,31,5.0,7.0,85,0.00,,SKC,0.00,VWS V14.01,2013-03-17 08:50:00,
2013-03-17 04:51:00,37.2,33.1,29.92,NE,46,4.0,11.0,85,0.00,,SKC,0.00,VWS V14.01,2013-03-17 08:51:00,
2013-03-17 04:52:00,37.2,33.1,29.92,ENE,71,4.0,5.0,85,0.00,,SKC,0.00,VWS V14.01,2013-03-17 08:52:00,
2013-03-17 04:53:00,37.2,33.1,29.92,NE,36,6.0,7.0,85,0.00,,SKC,0.00,VWS V14.01,2013-03-17 08:53:00,
2013-03-17 04:54:00,37.2,33.1,29.92,NNE,19,7.0,9.0,85,0.00,,SKC,0.00,VWS V14.01,2013-03-17 08:54:00,
2013-03-17 04:55:00,37.3,33.2,29.92,ENE,61,5.0,6.0,85,0.00,,SKC,0.00,VWS V14.01,2013-03-17 08:55:00,
2013-03-17 04:56:00,37.2,33.1,29.92,NE,40,6.0,7.0,85,0.00,,SKC,0.00,VWS V14.01,2013-03-17 08:56:00,
2013-03-17 04:57:00,37.2,33.1,29.92,NE,52,4.0,10.0,85,0.00,,SKC,0.00,VWS V14.01,2013-03-17 08:57:00,
2013-03-17 04:58:00,37.2,33.1,29.92,NNE,23,5.0,7.0,85,0.00,,SKC,0.00,VWS V14.01,2013-03-17 08:58:00,
2013-03-17 04:59:00,37.2,33.1,29.92,NE,38,4.0,5.0,85,0.00,,SKC,0.00,VWS V14.01,2013-03-17 08:59:00,
2013-03-17 05:00:00,37.2,33.1,29.92,ENE,60,4.0,5.0,85,0.00,,SKC,0.00,VWS V14.01,2013-03-17 09:00:00,
2013-03-17 05:01:00,37.2,33.1,29.92,NNE,24,4.0,5.0,85,0.00,,SKC,0.00,VWS V14.01,2013-03-17 09:01:00,
2013-03-17 05:02:00,37.2,33.1,29.92,NE,40,3.0,5.0,85,0.00,,SKC,0.00,VWS V14.01,2013-03-17 09:02:00,
2013-03-17 05:03:00,37.2,33.1,29.92,ENE,59,6.0,8.0,85,0.00,,SKC,0.00,VWS V14.01,2013-03-17 09:03:00,
2013-03-17 05:04:00,37.2,33.1,29.92,NE,34,6.0,9.0,85,0.00,,SKC,0.00,VWS V14.01,2013-03-17 09:04:00,
2013-03-17 05:05:00,37.2,33.1,29.92,NE,44,5.0,10.0,85,0.00,,SKC,0.00,VWS V14.01,2013-03-17 09:05:00,
2013-03-17 05:06:00,37.2,33.1,29.93,NE,50,1.0,5.0,85,0.00,,SKC,0.00,VWS V14.01,2013-03-17 09:06:00,
2013-03-17 05:07:00,37.2,33.1,29.93,NE,51,5.0,6.0,85,0.00,,SKC,0.00,VWS V14.01,2013-03-17 09:07:00,
2013-03-17 05:08:00,37.2,33.1,29.93,NE,50,4.0,5.0,85,0.00,,SKC,0.00,VWS V14.01,2013-03-17 09:08:00,
2013-03-17 05:09:00,37.2,33.1,29.92,NNE,18,4.0,7.0,85,0.00,,SKC,0.00,VWS V14.01,2013-03-17 09:09:00,
2013-03-17 05:10:00,37.2,33.1,29.92,NNE,30,3.0,5.0,85,0.00,,SKC,0.00,VWS V14.01,2013-03-17 09:10:00,
2013-03-17 05:11:00,37.2,33.1,29.92,NNE,12,6.0,9.0,85,0.00,,SKC,0.00,VWS V14.01,2013-03-17 09:11:00,
2013-03-17 05:12:00,37.2,33.1,29.92,ENE,64,6.0,6.0,85,0.00,,SKC,0.00,VWS V14.01,2013-03-17 09:12:00,
2013-03-17 05:13:00,37.1,33.0,29.92,NE,34,2.0,7.0,85,0.00,,SKC,0.00,VWS V14.01,2013-03-17 09:13:00,
2013-03-17 05:14:00,37.1,33.0,29.92,NNE,25,5.0,7.0,85,0.00,,SKC,0.00,VWS V14.01,2013-03-17 09:14:00,
2013-03-17 05:15:00,37.2,33.1,29.93,ENE,57,4.0,6.0,85,0.00,,SKC,0.00,VWS V14.01,2013-03-17 09:15:00,
2013-03-17 05:16:00,37.1,33.0,29.93,North,355,5.0,8.0,85,0.00,,SKC,0.00,VWS V14.01,2013-03-17 09:16:00,
2013-03-17 05:17:00,37.1,33.0,29.93,NNE,29,4.0,5.0,85,0.00,,SKC,0.00,VWS V14.01,2013-03-17 09:17:00,
2013-03-17 05:18:00,37.1,33.0,29.93,NE,46,4.0,9.0,85,0.00,,SKC,0.00,VWS V14.01,2013-03-17 09:18:00,
2013-03-17 05:19:00,37.1,33.0,29.93,NE,46,3.0,5.0,85,0.00,,SKC,0.00,VWS V14.01,2013-03-17 09:19:00,
2013-03-17 05:20:00,37.1,33.0,29.92,NE,39,4.0,6.0,85,0.00,,SKC,0.00,VWS V14.01,2013-03-17 09:20:00,
2013-03-17 05:21:00,37.1,33.0,29.93,NNE,30,3.0,3.0,85,0.00,,SKC,0.00,VWS V14.01,2013-03-17 09:21:00,
2013-03-17 05:22:00,37.1,33.0,29.93,NE,41,5.0,6.0,85,0.00,,SKC,0.00,VWS V14.01,2013-03-17 09:22:00,
2013-03-17 05:23:00,37.1,33.0,29.93,NNE,29,5.0,6.0,85,0.00,,SKC,0.00,VWS V14.01,2013-03-17 09:23:00,
2013-03-17 05:24:00,37.1,33.0,29.93,NE,44,4.0,6.0,85,0.00,,SKC,0.00,VWS V14.01,2013-03-17 09:24:00,
2013-03-17 05:25:00,37.1,33.0,29.93,ENE,59,3.0,5.0,85,0.00,,SKC,0.00,VWS V14.01,2013-03-17 09:25:00,
2013-03-17 05:26:00,37.0,32.9,29.93,North,360,2.0,5.0,85,0.00,,SKC,0.00,VWS V14.01,2013-03-17 09:26:00,
2013-03-17 05:27:00,37.0,32.9,29.93,NE,40,6.0,6.0,85,0.00,,SKC,0.00,VWS V14.01,2013-03-17 09:27:00,
2013-03-17 05:28:00,37.1,33.0,29.93,NE,45,5.0,7.0,85,0.00,,SKC,0.00,VWS V14.01,2013-03-17 09:28:00,
2013-03-17 05:29:00,37.1,33.0,29.93,NNE,23,6.0,6.0,85,0.00,,SKC,0.00,VWS V14.01,2013-03-17 09:29:00,
2013-03-17 05:30:00,37.0,32.9,29.93,NE,51,5.0,6.0,85,0.00,,SKC,0.00,VWS V14.01,2013-03-17 09:30:00,
2013-03-17 05:31:00,37.0,32.9,29.93,NNE,14,4.0,7.0,85,0.00,,SKC,0.00,VWS V14.01,2013-03-17 09:31:00,
2013-03-17 05:32:00,37.0,32.9,29.93,NNE,29,5.0,5.0,85,0.00,,SKC,0.00,VWS V14.01,2013-03-17 09:32:00,
2013-03-17 05:33:00,37.0,32.9,29.93,ENE,62,7.0,9.0,85,0.00,,SKC,0.00,VWS V14.01,2013-03-17 09:33:00,
2013-03-17 05:34:00,37.0,32.9,29.93,NE,41,4.0,5.0,85,0.00,,SKC,0.00,VWS V14.01,2013-03-17 09:34:00,
2013-03-17 05:35:00,37.0,32.9,29.93,NE,50,4.0,7.0,85,0.00,,SKC,0.00,VWS V14.01,2013-03-17 09:35:00,
2013-03-17 05:36:00,37.0,32.9,29.93,East,88,9.0,9.0,85,0.00,,SKC,0.00,VWS V14.01,2013-03-17 09:36:00,
2013-03-17 05:37:00,36.9,32.8,29.93,NNE,16,2.0,9.0,85,0.00,,SKC,0.00,VWS V14.01,2013-03-17 09:37:00,
2013-03-17 05:38:00,36.9,32.8,29.93,NE,41,4.0,5.0,85,0.00,,SKC,0.00,VWS V14.01,2013-03-17 09:38:00,
2013-03-17 05:39:00,37.0,32.9,29.93,NNE,30,3.0,5.0,85,0.00,,SKC,0.00,VWS V14.01,2013-03-17 09:39:00,
2013-03-17 05:40:00,36.9,32.8,29.94,ENE,62,3.0,6.0,85,0.00,,SKC,0.00,VWS V14.01,2013-03-17 09:40:00,
2013-03-17 05:41:00,36.9,32.8,29.94,NE,55,4.0,5.0,85,0.00,,SKC,0.00,VWS V14.01,2013-03-17 09:41:00,
2013-03-17 05:42:00,36.9,32.8,29.94,NE,43,2.0,5.0,85,0.00,,SKC,0.00,VWS V14.01,2013-03-17 09:42:00,
2013-03-17 05:43:00,36.9,32.8,29.94,NE,35,1.0,4.0,85,0.00,,SKC,0.00,VWS V14.01,2013-03-17 09:43:00,
2013-03-17 05:44:00,36.9,32.8,29.95,NE,49,2.0,3.0,85,0.00,,SKC,0.00,VWS V14.01,2013-03-17 09:44:00,
2013-03-17 05:45:00,37.0,32.9,29.93,NNE,13,4.0,9.0,85,0.00,,SKC,0.00,VWS V14.01,2013-03-17 09:45:00,
2013-03-17 05:46:00,36.9,32.8,29.95,NE,41,2.0,4.0,85,0.00,,SKC,0.00,VWS V14.01,2013-03-17 09:46:00,
2013-03-17 05:47:00,36.9,32.8,29.95,NNE,19,1.0,5.0,85,0.00,,SKC,0.00,VWS V14.01,2013-03-17 09:47:00,
2013-03-17 05:48:00,36.9,32.8,29.96,NE,40,2.0,3.0,85,0.00,,SKC,0.00,VWS V14.01,2013-03-17 09:48:00,
2013-03-17 05:49:00,36.9,32.8,29.94,NE,37,5.0,5.0,85,0.00,,SKC,0.00,VWS V14.01,2013-03-17 09:49:00,
2013-03-17 05:50:00,36.9,32.8,29.96,NE,53,4.0,6.0,85,0.00,,SKC,0.00,VWS V14.01,2013-03-17 09:50:00,
2013-03-17 05:51:00,36.9,32.8,29.95,NE,45,6.0,7.0,85,0.00,,SKC,0.00,VWS V14.01,2013-03-17 09:51:00,
2013-03-17 05:52:00,36.9,32.8,29.95,NE,46,2.0,6.0,85,0.00,,SKC,0.00,VWS V14.01,2013-03-17 09:52:00,
2013-03-17 05:53:00,37.0,32.9,29.96,North,355,4.0,5.0,85,0.00,,SKC,0.00,VWS V14.01,2013-03-17 09:53:00,
2013-03-17 05:54:00,36.9,32.8,29.95,NNE,19,0.0,5.0,85,0.00,,SKC,0.00,VWS V14.01,2013-03-17 09:54:00,
2013-03-17 05:55:00,37.0,32.9,29.96,ENE,68,3.0,6.0,85,0.00,,SKC,0.00,VWS V14.01,2013-03-17 09:55:00,
2013-03-17 05:56:00,36.9,32.8,29.96,NNE,33,5.0,6.0,85,0.00,,SKC,0.00,VWS V14.01,2013-03-17 09:56:00,
2013-03-17 05:57:00,36.9,32.5,29.96,NE,44,4.0,6.0,84,0.00,,SKC,0.00,VWS V14.01,2013-03-17 09:57:00,
2013-03-17 05:58:00,36.9,32.5,29.96,NE,41,6.0,7.0,84,0.00,,SKC,0.00,VWS V14.01,2013-03-17 09:58:00,
2013-03-17 05:59:00,36.9,32.8,29.95,NE,46,1.0,6.0,85,0.00,,SKC,0.00,VWS V14.01,2013-03-17 09:59:00,
2013-03-17 06:00:00,36.9,32.8,29.96,NE,36,4.0,6.0,85,0.00,,SKC,0.00,VWS V14.01,2013-03-17 10:00:00,
2013-03-17 06:01:00,36.9,32.5,29.97,NE,49,2.0,6.0,84,0.00,,SKC,0.00,VWS V14.01,2013-03-17 10:01:00,
2013-03-17 06:02:00,36.9,32.8,29.97,ENE,59,3.0,5.0,85,0.00,,SKC,0.00,VWS V14.01,2013-03-17 10:02:00,
2013-03-17 06:03:00,36.9,32.8,29.97,ENE,63,2.0,5.0,85,0.00,,SKC,0.00,VWS V14.01,2013-03-17 10:03:00,
2013-03-17 06:04:00,36.9,32.5,29.96,NE,52,5.0,5.0,84,0.00,,SKC,0.00,VWS V14.01,2013-03-17 10:04:00,
2013-03-17 06:05:00,36.9,32.5,29.97,NNE,19,5.0,5.0,84,0.00,,SKC,0.00,VWS V14.01,2013-03-17 10:05:00,
2013-03-17 06:06:00,36.9,32.5,29.97,NE,34,4.0,6.0,84,0.00,,SKC,0.00,VWS V14.01,2013-03-17 10:06:00,
2013-03-17 06:07:00,36.9,32.5,29.97,NE,44,2.0,6.0,84,0.00,,SKC,0.00,VWS V14.01,2013-03-17 10:07:00,
2013-03-17 06:08:00,36.9,32.5,29.98,NE,46,3.0,5.0,84,0.00,,SKC,0.00,VWS V14.01,2013-03-17 10:08:00,
2013-03-17 06:09:00,36.9,32.8,29.97,NE,46,4.0,4.0,85,0.00,,SKC,0.00,VWS V14.01,2013-03-17 10:09:00,
2013-03-17 06:10:00,36.9,32.5,29.98,NE,40,6.0,7.0,84,0.00,,SKC,0.00,VWS V14.01,2013-03-17 10:10:00,
2013-03-17 06:11:00,36.9,32.5,29.98,NNE,28,4.0,6.0,84,0.00,,SKC,0.00,VWS V14.01,2013-03-17 10:11:00,
2013-03-17 06:12:00,36.8,32.4,29.98,NE,51,4.0,8.0,84,0.00,,SKC,0.00,VWS V14.01,2013-03-17 10:12:00,
2013-03-17 06:13:00,36.8,32.4,29.98,ENE,63,3.0,5.0,84,0.00,,SKC,0.00,VWS V14.01,2013-03-17 10:13:00,
2013-03-17 06:14:00,36.9,32.5,29.97,NE,46,5.0,5.0,84,0.00,,SKC,0.00,VWS V14.01,2013-03-17 10:14:00,
2013-03-17 06:15:00,36.8,32.4,29.98,NNE,13,2.0,5.0,84,0.00,,SKC,0.00,VWS V14.01,2013-03-17 10:15:00,
2013-03-17 06:16:00,36.8,32.4,29.98,NNE,17,3.0,4.0,84,0.00,,SKC,0.00,VWS V14.01,2013-03-17 10:16:00,
2013-03-17 06:17:00,36.8,32.4,29.98,North,355,1.0,5.0,84,0.00,,SKC,0.00,VWS V14.01,2013-03-17 10:17:00,
2013-03-17 06:18:00,36.7,32.3,29.98,ENE,63,4.0,8.0,84,0.00,,SKC,0.00,VWS V14.01,2013-03-17 10:18:00,
2013-03-17 06:19:00,36.8,32.4,29.98,NE,52,2.0,8.0,84,0.00,,SKC,0.00,VWS V14.01,2013-03-17 10:19:00,
2013-03-17 06:20:00,36.7,32.3,29.98,NNE,21,4.0,7.0,84,0.00,,SKC,0.00,VWS V14.01,2013-03-17 10:20:00,
2013-03-17 06:21:00,36.7,32.3,29.98,NE,44,4.0,5.0,84,0.00,,SKC,0.00,VWS V14.01,2013-03-17 10:21:00,
2013-03-17 06:22:00,36.6,32.2,29.99,NNE,19,6.0,6.0,84,0.00,,SKC,0.00,VWS V14.01,2013-03-17 10:22:00,
2013-03-17 06:23:00,36.6,32.2,29.99,NNW,338,0.0,7.0,84,0.00,,SKC,0.00,VWS V14.01,2013-03-17 10:23:00,
2013-03-17 06:24:00,36.8,32.4,29.98,North,355,5.0,5.0,84,0.00,,SKC,0.00,VWS V14.01,2013-03-17 10:24:00,
2013-03-17 06:25:00,36.6,32.2,29.99,NE,47,10.0,10.0,84,0.00,,SKC,0.00,VWS V14.01,2013-03-17 10:25:00,
2013-03-17 06:26:00,36.6,32.2,29.99,NE,50,4.0,10.0,84,0.00,,SKC,0.00,VWS V14.01,2013-03-17 10:26:00,
2013-03-17 06:27:00,36.6,32.2,29.99,NE,36,1.0,6.0,84,0.00,,SKC,0.00,VWS V14.01,2013-03-17 10:27:00,
2013-03-17 06:28:00,36.6,32.2,29.99,NE,53,0.0,4.0,84,0.00,,SKC,0.00,VWS V14.01,2013-03-17 10:28:00,
2013-03-17 06:29:00,36.7,32.3,29.99,NE,48,2.0,6.0,84,0.00,,SKC,0.00,VWS V14.01,2013-03-17 10:29:00,
2013-03-17 06:30:00,36.5,32.1,29.99,NNE,22,3.0,5.0,84,0.00,,SKC,0.00,VWS V14.01,2013-03-17 10:30:00,
2013-03-17 06:32:00,36.5,32.1,29.99,NNE,32,5.0,7.0,84,0.00,,SKC,0.00,VWS V14.01,2013-03-17 10:32:00,
2013-03-17 06:33:00,36.5,32.1,29.99,ENE,62,2.0,8.0,84,0.00,,SKC,0.00,VWS V14.01,2013-03-17 10:33:00,
2013-03-17 06:34:00,36.6,32.2,29.99,NNE,30,1.0,6.0,84,0.00,,SKC,0.00,VWS V14.01,2013-03-17 10:34:00,
2013-03-17 06:35:00,36.5,32.1,29.99,NE,44,4.0,6.0,84,0.00,,SKC,0.00,VWS V14.01,2013-03-17 10:35:00,
2013-03-17 06:36:00,36.5,32.1,29.99,NE,46,4.0,8.0,84,0.00,,SKC,0.00,VWS V14.01,2013-03-17 10:36:00,
2013-03-17 06:37:00,36.5,32.1,29.99,East,90,3.0,6.0,84,0.00,,SKC,0.00,VWS V14.01,2013-03-17 10:37:00,
2013-03-17 06:38:00,36.5,32.1,29.99,NE,56,6.0,8.0,84,0.00,,SKC,0.00,VWS V14.01,2013-03-17 10:38:00,
2013-03-17 06:39:00,36.5,32.1,29.99,NNE,28,5.0,7.0,84,0.00,,SKC,0.00,VWS V14.01,2013-03-17 10:39:00,
2013-03-17 06:40:00,36.4,32.0,29.99,NE,40,4.0,6.0,84,0.00,,SKC,0.00,VWS V14.01,2013-03-17 10:40:00,
2013-03-17 06:41:00,36.4,32.0,29.99,NE,34,8.0,9.0,84,0.00,,SKC,0.00,VWS V14.01,2013-03-17 10:41:00,
2013-03-17 06:42:00,36.5,32.1,29.99,ENE,67,5.0,8.0,84,0.00,,SKC,0.00,VWS V14.01,2013-03-17 10:42:00,
2013-03-17 06:43:00,36.4,32.0,29.99,NNE,20,4.0,7.0,84,0.00,,SKC,0.00,VWS V14.01,2013-03-17 10:43:00,
2013-03-17 06:44:00,36.5,32.1,29.99,NE,48,5.0,6.0,84,0.00,,SKC,0.00,VWS V14.01,2013-03-17 10:44:00,
2013-03-17 06:45:00,36.4,32.0,29.99,NNE,17,5.0,5.0,84,0.00,,SKC,0.00,VWS V14.01,2013-03-17 10:45:00,
2013-03-17 06:46:00,36.4,32.0,29.99,NE,36,4.0,7.0,84,0.00,,SKC,0.00,VWS V14.01,2013-03-17 10:46:00,
2013-03-17 06:47:00,36.4,32.0,29.99,NE,38,4.0,6.0,84,0.00,,SKC,0.00,VWS V14.01,2013-03-17 10:47:00,
2013-03-17 06:48:00,36.3,31.9,29.99,ENE,65,5.0,6.0,84,0.00,,SKC,0.00,VWS V14.01,2013-03-17 10:48:00,
2013-03-17 06:49:00,36.4,32.0,29.99,NE,36,4.0,8.0,84,0.00,,SKC,0.00,VWS V14.01,2013-03-17 10:49:00,
2013-03-17 06:50:00,36.3,31.9,30.00,NE,36,3.0,6.0,84,0.00,,SKC,0.00,VWS V14.01,2013-03-17 10:50:00,
2013-03-17 06:51:00,36.2,31.8,30.00,NE,34,2.0,4.0,84,0.00,,SKC,0.00,VWS V14.01,2013-03-17 10:51:00,
2013-03-17 06:52:00,36.2,31.8,30.00,North,9,4.0,5.0,84,0.00,,SKC,0.00,VWS V14.01,2013-03-17 10:52:00,
2013-03-17 06:53:00,36.2,31.8,30.00,North,11,2.0,4.0,84,0.00,,SKC,0.00,VWS V14.01,2013-03-17 10:53:00,
2013-03-17 06:54:00,36.4,32.0,29.99,NE,40,5.0,5.0,84,0.00,,SKC,0.00,VWS V14.01,2013-03-17 10:54:00,
2013-03-17 06:55:00,36.1,31.7,30.00,NNE,24,7.0,7.0,84,0.00,,SKC,0.00,VWS V14.01,2013-03-17 10:55:00,
2013-03-17 06:56:00,36.1,31.7,30.00,NNE,28,7.0,8.0,84,0.00,,SKC,0.00,VWS V14.01,2013-03-17 10:56:00,
2013-03-17 06:57:00,36.1,31.7,30.00,ENE,58,6.0,7.0,84,0.00,,SKC,0.00,VWS V14.01,2013-03-17 10:57:00,
2013-03-17 06:58:00,36.1,31.7,30.00,ENE,77,2.0,6.0,84,0.00,,SKC,0.00,VWS V14.01,2013-03-17 10:58:00,
2013-03-17 06:59:00,36.2,31.8,30.00,North,9,4.0,5.0,84,0.00,,SKC,0.00,VWS V14.01,2013-03-17 10:59:00,
2013-03-17 07:00:00,36.1,31.7,30.00,NE,38,5.0,7.0,84,0.00,,SKC,0.00,VWS V14.01,2013-03-17 11:00:00,
2013-03-17 07:01:00,36.0,31.6,30.00,North,5,4.0,7.0,84,0.00,,SKC,0.00,VWS V14.01,2013-03-17 11:01:00,
2013-03-17 07:02:00,36.0,31.6,30.00,NNW,348,6.0,7.0,84,0.00,,SKC,0.00,VWS V14.01,2013-03-17 11:02:00,
2013-03-17 07:03:00,36.0,31.6,30.00,NNE,31,4.0,7.0,84,0.00,,SKC,0.00,VWS V14.01,2013-03-17 11:03:00,
2013-03-17 07:04:00,36.1,31.7,30.00,NE,38,4.0,7.0,84,0.00,,SKC,0.00,VWS V14.01,2013-03-17 11:04:00,
2013-03-17 07:05:00,36.0,31.6,30.00,North,5,5.0,7.0,84,0.00,,SKC,0.00,VWS V14.01,2013-03-17 11:05:00,
2013-03-17 07:06:00,36.0,31.6,30.00,NE,53,6.0,9.0,84,0.00,,SKC,0.00,VWS V14.01,2013-03-17 11:06:00,
2013-03-17 07:07:00,35.9,31.5,30.00,North,360,12.0,12.0,84,0.00,,SKC,0.00,VWS V14.01,2013-03-17 11:07:00,
2013-03-17 07:08:00,35.9,31.5,30.00,NNE,19,5.0,13.0,84,0.00,,SKC,0.00,VWS V14.01,2013-03-17 11:08:00,
2013-03-17 07:09:00,36.0,31.6,30.00,NE,51,4.0,4.0,84,0.00,,SKC,0.00,VWS V14.01,2013-03-17 11:09:00,
2013-03-17 07:10:00,35.9,31.5,30.00,NNE,17,4.0,6.0,84,0.00,,SKC,0.00,VWS V14.01,2013-03-17 11:10:00,
2013-03-17 07:11:00,35.9,31.5,30.00,NNE,19,4.0,6.0,84,0.00,,SKC,0.00,VWS V14.01,2013-03-17 11:11:00,
2013-03-17 07:12:00,35.9,31.5,30.00,East,101,7.0,9.0,84,0.00,,SKC,0.00,VWS V14.01,2013-03-17 11:12:00,
2013-03-17 07:13:00,35.9,31.5,30.00,NNE,27,2.0,8.0,84,0.00,,SKC,0.00,VWS V14.01,2013-03-17 11:13:00,
2013-03-17 07:14:00,35.9,31.5,30.00,NE,40,1.0,8.0,84,0.00,,SKC,0.00,VWS V14.01,2013-03-17 11:14:00,
2013-03-17 07:15:00,35.9,31.5,30.01,ENE,71,4.0,6.0,84,0.00,,SKC,0.00,VWS V14.01,2013-03-17 11:15:00,
2013-03-17 07:16:00,35.9,31.5,30.01,ENE,59,4.0,7.0,84,0.00,,SKC,0.00,VWS V14.01,2013-03-17 11:16:00,
2013-03-17 07:17:00,35.9,31.5,30.01,NNE,33,5.0,6.0,84,0.00,,SKC,0.00,VWS V14.01,2013-03-17 11:17:00,
2013-03-17 07:18:00,35.9,31.5,30.01,ENE,74,4.0,6.0,84,0.00,,SKC,0.00,VWS V14.01,2013-03-17 11:18:00,
2013-03-17 07:19:00,35.9,31.5,30.00,NNE,30,4.0,9.0,84,0.00,,SKC,0.00,VWS V14.01,2013-03-17 11:19:00,
2013-03-17 07:20:00,35.9,31.5,30.01,NNE,19,4.0,5.0,84,0.00,,SKC,0.00,VWS V14.01,2013-03-17 11:20:00,
2013-03-17 07:21:00,35.9,31.5,30.02,NNE,26,4.0,5.0,84,0.00,,SKC,0.00,VWS V14.01,2013-03-17 11:21:00,
2013-03-17 07:22:00,35.9,31.5,30.02,NNE,30,4.0,8.0,84,0.00,,SKC,0.00,VWS V14.01,2013-03-17 11:22:00,
2013-03-17 07:23:00,35.9,31.5,30.02,NNE,26,4.0,7.0,84,0.00,,SKC,0.00,VWS V14.01,2013-03-17 11:23:00,
2013-03-17 07:24:00,35.9,31.5,30.01,ENE,66,4.0,4.0,84,0.00,,SKC,0.00,VWS V14.01,2013-03-17 11:24:00,
2013-03-17 07:25:00,35.9,31.5,30.02,NNE,26,3.0,3.0,84,0.00,,SKC,0.00,VWS V14.01,2013-03-17 11:25:00,
2013-03-17 07:26:00,35.9,31.5,30.02,NE,40,2.0,3.0,84,0.00,,SKC,0.00,VWS V14.01,2013-03-17 11:26:00,
2013-03-17 07:27:00,35.9,31.5,30.02,ENE,61,5.0,5.0,84,0.00,,SKC,0.00,VWS V14.01,2013-03-17 11:27:00,
2013-03-17 07:28:00,35.9,31.5,30.02,NE,34,3.0,6.0,84,0.00,,SKC,0.00,VWS V14.01,2013-03-17 11:28:00,
2013-03-17 07:29:00,35.9,31.5,30.02,NE,41,6.0,8.0,84,0.00,,SKC,0.00,VWS V14.01,2013-03-17 11:29:00,
2013-03-17 07:30:00,35.9,31.5,30.02,NNE,15,1.0,4.0,84,0.00,,SKC,0.00,VWS V14.01,2013-03-17 11:30:00,
2013-03-17 07:31:00,35.9,31.5,30.02,NNE,23,5.0,5.0,84,0.00,,SKC,0.00,VWS V14.01,2013-03-17 11:31:00,
2013-03-17 07:32:00,35.8,31.5,30.02,NE,44,6.0,10.0,84,0.00,,SKC,0.00,VWS V14.01,2013-03-17 11:32:00,
2013-03-17 07:33:00,35.8,31.5,30.02,NNE,26,6.0,9.0,84,0.00,,SKC,0.00,VWS V14.01,2013-03-17 11:33:00,
2013-03-17 07:34:00,35.9,31.5,30.02,East,84,5.0,5.0,84,0.00,,SKC,0.00,VWS V14.01,2013-03-17 11:34:00,
2013-03-17 07:35:00,35.9,31.5,30.03,NNE,28,9.0,10.0,84,0.00,,SKC,0.00,VWS V14.01,2013-03-17 11:35:00,
2013-03-17 07:36:00,35.8,31.5,30.03,NE,46,7.0,11.0,84,0.00,,SKC,0.00,VWS V14.01,2013-03-17 11:36:00,
2013-03-17 07:37:00,35.8,31.5,30.03,NE,50,6.0,7.0,84,0.00,,SKC,0.00,VWS V14.01,2013-03-17 11:37:00,
2013-03-17 07:38:00,35.8,31.5,30.03,NE,41,10.0,10.0,84,0.00,,SKC,0.00,VWS V14.01,2013-03-17 11:38:00,
2013-03-17 07:39:00,35.8,31.5,30.02,North,9,10.0,10.0,84,0.00,,SKC,0.00,VWS V14.01,2013-03-17 11:39:00,
2013-03-17 07:40:00,35.8,31.5,30.03,ENE,60,1.0,9.0,84,0.00,,SKC,0.00,VWS V14.01,2013-03-17 11:40:00,
2013-03-17 07:41:00,35.8,31.5,30.03,NNE,19,2.0,7.0,84,0.00,,SKC,0.00,VWS V14.01,2013-03-17 11:41:00,
2013-03-17 07:42:00,35.8,31.5,30.03,NNE,18,2.0,5.0,84,0.00,,SKC,0.00,VWS V14.01,2013-03-17 11:42:00,
2013-03-17 07:43:00,35.8,31.5,30.03,North,9,3.0,6.0,84,0.00,,SKC,0.00,VWS V14.01,2013-03-17 11:43:00,
2013-03-17 07:44:00,35.9,31.5,30.03,North,360,5.0,7.0,84,0.00,,SKC,0.00,VWS V14.01,2013-03-17 11:44:00,
2013-03-17 07:45:00,35.7,31.4,30.03,NE,42,5.0,10.0,84,0.00,,SKC,0.00,VWS V14.01,2013-03-17 11:45:00,
2013-03-17 07:46:00,35.7,31.4,30.03,North,5,7.0,11.0,84,0.00,,SKC,0.00,VWS V14.01,2013-03-17 11:46:00,
2013-03-17 07:47:00,35.7,31.4,30.03,ENE,71,5.0,9.0,84,0.00,,SKC,0.00,VWS V14.01,2013-03-17 11:47:00,
2013-03-17 07:48:00,35.7,31.4,30.03,NNE,31,4.0,12.0,84,0.00,,SKC,0.00,VWS V14.01,2013-03-17 11:48:00,
2013-03-17 07:49:00,35.8,31.5,30.03,North,9,3.0,5.0,84,0.00,,SKC,0.00,VWS V14.01,2013-03-17 11:49:00,
2013-03-17 07:50:00,35.7,31.0,30.03,NE,43,7.0,11.0,83,0.00,,SKC,0.00,VWS V14.01,2013-03-17 11:50:00,
2013-03-17 07:51:00,35.6,31.0,30.03,NNE,27,4.0,8.0,83,0.00,,SKC,0.00,VWS V14.01,2013-03-17 11:51:00,
2013-03-17 07:52:00,35.6,31.0,30.03,NE,34,5.0,5.0,83,0.00,,SKC,0.00,VWS V14.01,2013-03-17 11:52:00,
2013-03-17 07:53:00,35.6,31.0,30.03,NNE,19,9.0,14.0,83,0.00,,SKC,0.00,VWS V14.01,2013-03-17 11:53:00,
2013-03-17 07:54:00,35.7,31.4,30.03,NE,44,6.0,8.0,84,0.00,,SKC,0.00,VWS V14.01,2013-03-17 11:54:00,
2013-03-17 07:55:00,35.6,31.0,30.03,NNE,21,8.0,12.0,83,0.00,,SKC,0.00,VWS V14.01,2013-03-17 11:55:00,
2013-03-17 07:56:00,35.5,30.9,30.03,NE,53,7.0,13.0,83,0.00,,SKC,0.00,VWS V14.01,2013-03-17 11:56:00,
2013-03-17 07:57:00,35.5,30.9,30.04,NE,44,7.0,13.0,83,0.00,,SKC,0.00,VWS V14.01,2013-03-17 11:57:00,
2013-03-17 07:58:00,35.5,30.9,30.04,NNE,23,8.0,11.0,83,0.00,,SKC,0.00,VWS V14.01,2013-03-17 11:58:00,
2013-03-17 07:59:00,35.6,31.0,30.03,NNE,27,5.0,5.0,83,0.00,,SKC,0.00,VWS V14.01,2013-03-17 11:59:00,
2013-03-17 08:00:00,35.4,30.8,30.04,NE,36,4.0,12.0,83,0.00,,SKC,0.00,VWS V14.01,2013-03-17 12:00:00,
2013-03-17 08:01:00,35.4,30.8,30.04,NNE,28,5.0,8.0,83,0.00,,SKC,0.00,VWS V14.01,2013-03-17 12:01:00,
2013-03-17 08:02:00,35.4,30.8,30.03,North,5,9.0,13.0,83,0.00,,SKC,0.00,VWS V14.01,2013-03-17 12:02:00,
2013-03-17 08:03:00,35.3,30.7,30.04,NE,36,4.0,11.0,83,0.00,,SKC,0.00,VWS V14.01,2013-03-17 12:03:00,
2013-03-17 08:04:00,35.5,30.9,30.04,NNE,30,10.0,10.0,83,0.00,,SKC,0.00,VWS V14.01,2013-03-17 12:04:00,
2013-03-17 08:05:00,35.3,30.7,30.03,NNE,26,6.0,10.0,83,0.00,,SKC,0.00,VWS V14.01,2013-03-17 12:05:00,
2013-03-17 08:06:00,35.3,30.7,30.03,North,355,7.0,12.0,83,0.00,,SKC,0.00,VWS V14.01,2013-03-17 12:06:00,
2013-03-17 08:07:00,35.3,30.7,30.04,NE,40,5.0,15.0,83,0.00,,SKC,0.00,VWS V14.01,2013-03-17 12:07:00,
2013-03-17 08:08:00,35.3,30.7,30.04,NE,34,5.0,11.0,83,0.00,,SKC,0.00,VWS V14.01,2013-03-17 12:08:00,
2013-03-17 08:09:00,35.4,30.8,30.03,NNE,27,6.0,13.0,83,0.00,,SKC,0.00,VWS V14.01,2013-03-17 12:09:00,
2013-03-17 08:10:00,35.2,30.3,30.04,NNE,19,5.0,11.0,82,0.00,,SKC,0.00,VWS V14.01,2013-03-17 12:10:00,
2013-03-17 08:11:00,35.2,30.3,30.04,NNE,17,6.0,9.0,82,0.00,,SKC,0.00,VWS V14.01,2013-03-17 12:11:00,
2013-03-17 08:12:00,35.2,30.3,30.04,NE,55,11.0,11.0,82,0.00,,SKC,0.00,VWS V14.01,2013-03-17 12:12:00,
2013-03-17 08:13:00,35.2,30.3,30.04,NE,38,7.0,11.0,82,0.00,,SKC,0.00,VWS V14.01,2013-03-17 12:13:00,
2013-03-17 08:14:00,35.3,30.7,30.04,NNE,13,7.0,7.0,83,0.00,,SKC,0.00,VWS V14.01,2013-03-17 12:14:00,
2013-03-17 08:15:00,35.2,30.3,30.05,NNE,29,5.0,9.0,82,0.00,,SKC,0.00,VWS V14.01,2013-03-17 12:15:00,
2013-03-17 08:16:00,35.2,30.3,30.04,North,5,6.0,8.0,82,0.00,,SKC,0.00,VWS V14.01,2013-03-17 12:16:00,
2013-03-17 08:17:00,35.2,30.3,30.04,NNE,20,2.0,6.0,82,0.00,,SKC,0.00,VWS V14.01,2013-03-17 12:17:00,
2013-03-17 08:18:00,35.2,30.3,30.04,NNE,19,4.0,7.0,82,0.00,,SKC,0.00,VWS V14.01,2013-03-17 12:18:00,
2013-03-17 08:19:00,35.2,30.3,30.04,North,5,8.0,9.0,82,0.00,,SKC,0.00,VWS V14.01,2013-03-17 12:19:00,
2013-03-17 08:20:00,35.2,30.3,30.04,NE,36,5.0,12.0,82,0.00,,SKC,0.00,VWS V14.01,2013-03-17 12:20:00,
2013-03-17 08:21:00,35.2,30.3,30.04,North,11,7.0,9.0,82,0.00,,SKC,0.00,VWS V14.01,2013-03-17 12:21:00,
2013-03-17 08:22:00,35.2,30.3,30.04,North,10,10.0,11.0,82,0.00,,SKC,0.00,VWS V14.01,2013-03-17 12:22:00,
2013-03-17 08:23:00,35.1,30.2,30.04,NNE,17,7.0,10.0,82,0.00,,SKC,0.00,VWS V14.01,2013-03-17 12:23:00,
2013-03-17 08:24:00,35.2,30.3,30.04,NNE,24,4.0,6.0,82,0.00,,SKC,0.00,VWS V14.01,2013-03-17 12:24:00,
2013-03-17 08:25:00,35.1,30.2,30.04,NNW,332,5.0,9.0,82,0.00,,SKC,0.00,VWS V14.01,2013-03-17 12:25:00,
2013-03-17 08:26:00,35.1,30.2,30.04,NNE,29,4.0,7.0,82,0.00,,SKC,0.00,VWS V14.01,2013-03-17 12:26:00,
2013-03-17 08:27:00,35.1,30.2,30.04,NNE,26,10.0,10.0,82,0.00,,SKC,0.00,VWS V14.01,2013-03-17 12:27:00,
2013-03-17 08:28:00,35.1,30.2,30.04,NE,42,7.0,12.0,82,0.00,,SKC,0.00,VWS V14.01,2013-03-17 12:28:00,
2013-03-17 08:29:00,35.2,30.3,30.04,North,9,10.0,11.0,82,0.00,,SKC,0.00,VWS V14.01,2013-03-17 12:29:00,
2013-03-17 08:30:00,35.0,30.1,30.04,North,5,4.0,10.0,82,0.00,,SKC,0.00,VWS V14.01,2013-03-17 12:30:00,
2013-03-17 08:31:00,35.0,30.1,30.05,NE,55,5.0,7.0,82,0.00,,SKC,0.00,VWS V14.01,2013-03-17 12:31:00,
2013-03-17 08:32:00,35.0,30.1,30.05,North,5,5.0,8.0,82,0.00,,SKC,0.00,VWS V14.01,2013-03-17 12:32:00,
2013-03-17 08:33:00,35.0,30.1,30.05,NNE,21,5.0,7.0,82,0.00,,SKC,0.00,VWS V14.01,2013-03-17 12:33:00,
2013-03-17 08:34:00,35.1,30.2,30.04,NNE,15,6.0,10.0,82,0.00,,SKC,0.00,VWS V14.01,2013-03-17 12:34:00,
2013-03-17 08:35:00,35.0,30.1,30.05,North,5,10.0,10.0,82,0.00,,SKC,0.00,VWS V14.01,2013-03-17 12:35:00,
2013-03-17 08:36:00,35.0,30.1,30.05,North,355,4.0,10.0,82,0.00,,SKC,0.00,VWS V14.01,2013-03-17 12:36:00,
2013-03-17 08:37:00,35.0,30.1,30.05,North,5,6.0,6.0,82,0.00,,SKC,0.00,VWS V14.01,2013-03-17 12:37:00,
2013-03-17 08:38:00,35.0,30.1,30.06,NNE,20,5.0,8.0,82,0.00,,SKC,0.00,VWS V14.01,2013-03-17 12:38:00,
2013-03-17 08:39:00,35.0,30.1,30.05,North,355,5.0,5.0,82,0.00,,SKC,0.00,VWS V14.01,2013-03-17 12:39:00,
2013-03-17 08:40:00,35.0,30.1,30.06,North,350,6.0,7.0,82,0.00,,SKC,0.00,VWS V14.01,2013-03-17 12:40:00,
2013-03-17 08:41:00,35.0,30.1,30.06,ENE,61,4.0,8.0,82,0.00,,SKC,0.00,VWS V14.01,2013-03-17 12:41:00,
2013-03-17 08:42:00,34.9,30.0,30.06,NNE,13,4.0,8.0,82,0.00,,SKC,0.00,VWS V14.01,2013-03-17 12:42:00,
2013-03-17 08:43:00,34.9,29.7,30.06,North,355,8.0,8.0,81,0.00,,SKC,0.00,VWS V14.01,2013-03-17 12:43:00,
2013-03-17 08:44:00,35.0,30.1,30.05,North,5,4.0,4.0,82,0.00,,SKC,0.00,VWS V14.01,2013-03-17 12:44:00,
2013-03-17 08:45:00,34.9,29.7,30.06,NNE,21,5.0,9.0,81,0.00,,SKC,0.00,VWS V14.01,2013-03-17 12:45:00,
2013-03-17 08:46:00,34.8,29.6,30.06,North,5,7.0,7.0,81,0.00,,SKC,0.00,VWS V14.01,2013-03-17 12:46:00,
2013-03-17 08:47:00,34.8,29.6,30.06,NNE,18,6.0,10.0,81,0.00,,SKC,0.00,VWS V14.01,2013-03-17 12:47:00,
2013-03-17 08:48:00,34.8,29.6,30.06,NNE,21,3.0,6.0,81,0.00,,SKC,0.00,VWS V14.01,2013-03-17 12:48:00,
2013-03-17 08:49:00,35.0,30.1,30.06,NNE,22,6.0,8.0,82,0.00,,SKC,0.00,VWS V14.01,2013-03-17 12:49:00,
2013-03-17 08:50:00,34.8,29.9,30.06,NNE,32,2.0,6.0,82,0.00,,SKC,0.00,VWS V14.01,2013-03-17 12:50:00,
2013-03-17 08:51:00,34.8,29.9,30.07,NE,42,7.0,7.0,82,0.00,,SKC,0.00,VWS V14.01,2013-03-17 12:51:00,
2013-03-17 08:52:00,34.8,29.9,30.07,ENE,65,2.0,7.0,82,0.00,,SKC,0.00,VWS V14.01,2013-03-17 12:52:00,
2013-03-17 08:53:00,34.8,29.9,30.07,ENE,65,2.0,4.0,82,0.00,,SKC,0.00,VWS V14.01,2013-03-17 12:53:00,
2013-03-17 08:54:00,34.8,29.6,30.06,North,5,4.0,10.0,81,0.00,,SKC,0.00,VWS V14.01,2013-03-17 12:54:00,
2013-03-17 08:55:00,34.8,29.6,30.07,NNE,22,4.0,7.0,81,0.00,,SKC,0.00,VWS V14.01,2013-03-17 12:55:00,
2013-03-17 08:56:00,34.8,29.6,30.07,NE,40,6.0,7.0,81,0.00,,SKC,0.00,VWS V14.01,2013-03-17 12:56:00,
2013-03-17 08:57:00,34.8,29.6,30.07,NE,49,1.0,6.0,81,0.00,,SKC,0.00,VWS V14.01,2013-03-17 12:57:00,
2013-03-17 08:58:00,34.8,29.6,30.07,NNE,26,6.0,6.0,81,0.00,,SKC,0.00,VWS V14.01,2013-03-17 12:58:00,
2013-03-17 08:59:00,34.8,29.9,30.07,ENE,67,2.0,7.0,82,0.00,,SKC,0.00,VWS V14.01,2013-03-17 12:59:00,
2013-03-17 09:00:00,34.8,29.6,30.07,ENE,60,4.0,8.0,81,0.00,,SKC,0.00,VWS V14.01,2013-03-17 13:00:00,
2013-03-17 09:01:00,34.8,29.6,30.07,North,5,4.0,5.0,81,0.00,,SKC,0.00,VWS V14.01,2013-03-17 13:01:00,
2013-03-17 09:02:00,34.8,29.6,30.07,NNE,30,2.0,7.0,81,0.00,,SKC,0.00,VWS V14.01,2013-03-17 13:02:00,
2013-03-17 09:03:00,34.8,29.6,30.07,NNE,28,8.0,8.0,81,0.00,,SKC,0.00,VWS V14.01,2013-03-17 13:03:00,
2013-03-17 09:04:00,34.8,29.6,30.07,NE,49,1.0,6.0,81,0.00,,SKC,0.00,VWS V14.01,2013-03-17 13:04:00,
2013-03-17 09:05:00,34.7,29.5,30.07,NNE,22,4.0,4.0,81,0.00,,SKC,0.00,VWS V14.01,2013-03-17 13:05:00,
2013-03-17 09:06:00,34.7,29.5,30.07,NNE,13,1.0,7.0,81,0.00,,SKC,0.00,VWS V14.01,2013-03-17 13:06:00,
2013-03-17 09:07:00,34.7,29.5,30.07,NNE,13,0.0,1.0,81,0.00,,SKC,0.00,VWS V14.01,2013-03-17 13:07:00,
2013-03-17 09:08:00,34.7,29.5,30.07,ESE,107,4.0,4.0,81,0.00,,SKC,0.00,VWS V14.01,2013-03-17 13:08:00,
2013-03-17 09:09:00,34.8,29.6,30.07,NNE,26,4.0,7.0,81,0.00,,SKC,0.00,VWS V14.01,2013-03-17 13:09:00,
2013-03-17 09:10:00,34.7,29.5,30.07,NE,40,4.0,5.0,81,0.00,,SKC,0.00,VWS V14.01,2013-03-17 13:10:00,
2013-03-17 09:11:00,34.7,29.5,30.07,NE,47,7.0,7.0,81,0.00,,SKC,0.00,VWS V14.01,2013-03-17 13:11:00,
2013-03-17 09:12:00,34.7,29.5,30.08,NE,36,4.0,8.0,81,0.00,,SKC,0.00,VWS V14.01,2013-03-17 13:12:00,
2013-03-17 09:13:00,34.7,29.5,30.08,NE,36,2.0,4.0,81,0.00,,SKC,0.00,VWS V14.01,2013-03-17 13:13:00,
2013-03-17 09:14:00,34.7,29.5,30.07,NNE,13,0.0,1.0,81,0.00,,SKC,0.00,VWS V14.01,2013-03-17 13:14:00,
2013-03-17 09:15:00,34.7,29.5,30.08,NNE,27,4.0,5.0,81,0.00,,SKC,0.00,VWS V14.01,2013-03-17 13:15:00,
2013-03-17 09:16:00,34.6,29.4,30.08,North,11,2.0,5.0,81,0.00,,SKC,0.00,VWS V14.01,2013-03-17 13:16:00,
2013-03-17 09:17:00,34.6,29.4,30.08,NE,51,1.0,5.0,81,0.00,,SKC,0.00,VWS V14.01,2013-03-17 13:17:00,
2013-03-17 09:18:00,34.6,29.4,30.08,NNE,13,5.0,5.0,81,0.00,,SKC,0.00,VWS V14.01,2013-03-17 13:18:00,
2013-03-17 09:19:00,34.7,29.5,30.08,East,83,5.0,8.0,81,0.00,,SKC,0.00,VWS V14.01,2013-03-17 13:19:00,
2013-03-17 09:20:00,34.6,29.4,30.08,North,5,3.0,4.0,81,0.00,,SKC,0.00,VWS V14.01,2013-03-17 13:20:00,
2013-03-17 09:21:00,34.6,29.4,30.09,North,10,6.0,6.0,81,0.00,,SKC,0.00,VWS V14.01,2013-03-17 13:21:00,
2013-03-17 09:22:00,34.6,29.4,30.08,North,355,5.0,6.0,81,0.00,,SKC,0.00,VWS V14.01,2013-03-17 13:22:00,
2013-03-17 09:23:00,34.6,29.4,30.09,North,9,4.0,7.0,81,0.00,,SKC,0.00,VWS V14.01,2013-03-17 13:23:00,
2013-03-17 09:24:00,34.6,29.4,30.08,NE,44,2.0,5.0,81,0.00,,SKC,0.00,VWS V14.01,2013-03-17 13:24:00,
2013-03-17 09:25:00,34.5,29.3,30.09,North,9,4.0,9.0,81,0.00,,SKC,0.00,VWS V14.01,2013-03-17 13:25:00,
2013-03-17 09:26:00,34.6,29.4,30.09,North,5,6.0,7.0,81,0.00,,SKC,0.00,VWS V14.01,2013-03-17 13:26:00,
2013-03-17 09:27:00,34.5,29.3,30.09,NNE,13,2.0,8.0,81,0.00,,SKC,0.00,VWS V14.01,2013-03-17 13:27:00,
2013-03-17 09:28:00,34.5,29.3,30.09,North,360,4.0,5.0,81,0.00,,SKC,0.00,VWS V14.01,2013-03-17 13:28:00,
2013-03-17 09:29:00,34.6,29.4,30.08,NNE,16,5.0,6.0,81,0.00,,SKC,0.00,VWS V14.01,2013-03-17 13:29:00,
2013-03-17 09:30:00,34.5,29.3,30.09,NNE,26,4.0,7.0,81,0.00,,SKC,0.00,VWS V14.01,2013-03-17 13:30:00,
2013-03-17 09:31:00,34.5,29.3,30.09,NNE,24,0.0,6.0,81,0.00,,SKC,0.00,VWS V14.01,2013-03-17 13:31:00,
2013-03-17 09:32:00,34.4,29.2,30.09,NNE,24,2.0,2.0,81,0.00,,SKC,0.00,VWS V14.01,2013-03-17 13:32:00,
2013-03-17 09:33:00,34.4,29.2,30.09,North,5,2.0,5.0,81,0.00,,SKC,0.00,VWS V14.01,2013-03-17 13:33:00,
2013-03-17 09:34:00,34.6,29.4,30.09,NNE,16,5.0,8.0,81,0.00,,SKC,0.00,VWS V14.01,2013-03-17 13:34:00,
2013-03-17 09:35:00,34.4,29.2,30.09,NNE,13,3.0,6.0,81,0.00,,SKC,0.00,VWS V14.01,2013-03-17 13:35:00,
2013-03-17 09:36:00,34.4,29.2,30.09,ENE,66,4.0,8.0,81,0.00,,SKC,0.00,VWS V14.01,2013-03-17 13:36:00,
2013-03-17 09:37:00,34.4,29.2,30.09,North,9,4.0,8.0,81,0.00,,SKC,0.00,VWS V14.01,2013-03-17 13:37:00,
2013-03-17 09:38:00,34.4,29.2,30.10,NE,55,4.0,5.0,81,0.00,,SKC,0.00,VWS V14.01,2013-03-17 13:38:00,
2013-03-17 09:39:00,34.5,29.3,30.09,NNE,24,0.0,1.0,81,0.00,,SKC,0.00,VWS V14.01,2013-03-17 13:39:00,
2013-03-17 09:40:00,34.4,29.2,30.10,NNE,28,4.0,7.0,81,0.00,,SKC,0.00,VWS V14.01,2013-03-17 13:40:00,
2013-03-17 09:41:00,34.4,28.9,30.10,NNE,24,5.0,7.0,80,0.00,,SKC,0.00,VWS V14.01,2013-03-17 13:41:00,
2013-03-17 09:42:00,34.4,28.9,30.10,NNE,28,4.0,6.0,80,0.00,,SKC,0.00,VWS V14.01,2013-03-17 13:42:00,
2013-03-17 09:43:00,34.4,28.9,30.10,North,5,5.0,5.0,80,0.00,,SKC,0.00,VWS V14.01,2013-03-17 13:43:00,
2013-03-17 09:44:00,34.4,29.2,30.09,NNE,26,7.0,8.0,81,0.00,,SKC,0.00,VWS V14.01,2013-03-17 13:44:00,
2013-03-17 09:45:00,34.4,28.9,30.10,ESE,108,2.0,11.0,80,0.00,,SKC,0.00,VWS V14.01,2013-03-17 13:45:00,
2013-03-17 09:46:00,34.4,28.9,30.10,NE,43,6.0,8.0,80,0.00,,SKC,0.00,VWS V14.01,2013-03-17 13:46:00,
2013-03-17 09:47:00,34.3,28.8,30.10,North,5,4.0,8.0,80,0.00,,SKC,0.00,VWS V14.01,2013-03-17 13:47:00,
2013-03-17 09:48:00,34.2,28.7,30.10,ENE,58,7.0,9.0,80,0.00,,SKC,0.00,VWS V14.01,2013-03-17 13:48:00,
2013-03-17 09:49:00,34.4,28.9,30.10,NNE,22,4.0,6.0,80,0.00,,SKC,0.00,VWS V14.01,2013-03-17 13:49:00,
2013-03-17 09:50:00,34.2,28.7,30.10,North,9,5.0,7.0,80,0.00,,SKC,0.00,VWS V14.01,2013-03-17 13:50:00,
2013-03-17 09:51:00,34.1,28.6,30.11,NNE,17,6.0,8.0,80,0.00,,SKC,0.00,VWS V14.01,2013-03-17 13:51:00,
2013-03-17 09:52:00,34.1,28.6,30.11,NE,36,5.0,8.0,80,0.00,,SKC,0.00,VWS V14.01,2013-03-17 13:52:00,
2013-03-17 09:53:00,34.0,28.5,30.10,NE,49,5.0,5.0,80,0.00,,SKC,0.00,VWS V14.01,2013-03-17 13:53:00,
2013-03-17 09:54:00,34.3,28.8,30.10,NNE,19,5.0,8.0,80,0.00,,SKC,0.00,VWS V14.01,2013-03-17 13:54:00,
2013-03-17 09:55:00,33.9,28.1,30.10,North,355,6.0,8.0,79,0.00,,SKC,0.00,VWS V14.01,2013-03-17 13:55:00,
2013-03-17 09:56:00,33.9,28.1,30.10,NNE,20,3.0,7.0,79,0.00,,SKC,0.00,VWS V14.01,2013-03-17 13:56:00,
2013-03-17 09:57:00,33.9,28.1,30.10,NE,55,3.0,5.0,79,0.00,,SKC,0.00,VWS V14.01,2013-03-17 13:57:00,
2013-03-17 09:58:00,33.8,28.0,30.10,ENE,67,1.0,4.0,79,0.00,,SKC,0.00,VWS V14.01,2013-03-17 13:58:00,
2013-03-17 09:59:00,34.1,28.6,30.11,NNE,22,6.0,8.0,80,0.00,,SKC,0.00,VWS V14.01,2013-03-17 13:59:00,
2013-03-17 10:00:00,33.8,28.3,30.10,ENE,64,6.0,7.0,80,0.00,,SKC,0.00,VWS V14.01,2013-03-17 14:00:00,
2013-03-17 10:01:00,33.8,28.3,30.10,NNE,22,5.0,7.0,80,0.00,,SKC,0.00,VWS V14.01,2013-03-17 14:01:00,
2013-03-17 10:02:00,33.8,28.3,30.11,NNE,18,4.0,5.0,80,0.00,,SKC,0.00,VWS V14.01,2013-03-17 14:02:00,
2013-03-17 10:03:00,33.7,28.2,30.11,NE,47,6.0,6.0,80,0.00,,SKC,0.00,VWS V14.01,2013-03-17 14:03:00,
2013-03-17 10:04:00,33.9,28.1,30.10,NNE,28,0.0,5.0,79,0.00,,SKC,0.00,VWS V14.01,2013-03-17 14:04:00,
2013-03-17 10:05:00,33.7,27.9,30.11,ENE,59,7.0,7.0,79,0.00,,SKC,0.00,VWS V14.01,2013-03-17 14:05:00,
2013-03-17 10:06:00,33.7,27.9,30.10,ENE,71,0.0,7.0,79,0.00,,SKC,0.00,VWS V14.01,2013-03-17 14:06:00,
2013-03-17 10:07:00,33.6,28.1,30.10,ENE,67,0.0,2.0,80,0.00,,SKC,0.00,VWS V14.01,2013-03-17 14:07:00,
2013-03-17 10:08:00,33.6,28.1,30.10,ENE,67,0.0,0.0,80,0.00,,SKC,0.00,VWS V14.01,2013-03-17 14:08:00,
2013-03-17 10:09:00,33.8,28.3,30.11,North,9,2.0,5.0,80,0.00,,SKC,0.00,VWS V14.01,2013-03-17 14:09:00,
2013-03-17 10:10:00,33.6,28.1,30.10,ENE,66,0.0,3.0,80,0.00,,SKC,0.00,VWS V14.01,2013-03-17 14:10:00,
2013-03-17 10:11:00,33.6,28.1,30.10,ENE,66,0.0,1.0,80,0.00,,SKC,0.00,VWS V14.01,2013-03-17 14:11:00,
2013-03-17 10:12:00,33.6,28.1,30.10,ENE,66,4.0,4.0,80,0.00,,SKC,0.00,VWS V14.01,2013-03-17 14:12:00,
2013-03-17 10:13:00,33.5,28.0,30.10,North,9,5.0,5.0,80,0.00,,SKC,0.00,VWS V14.01,2013-03-17 14:13:00,
2013-03-17 10:14:00,33.6,27.8,30.10,ENE,68,1.0,2.0,79,0.00,,SKC,0.00,VWS V14.01,2013-03-17 14:14:00,
2013-03-17 10:15:00,33.5,28.0,30.10,NE,40,4.0,7.0,80,0.00,,SKC,0.00,VWS V14.01,2013-03-17 14:15:00,
2013-03-17 10:16:00,33.4,27.6,30.10,NE,34,6.0,8.0,79,0.00,,SKC,0.00,VWS V14.01,2013-03-17 14:16:00,
2013-03-17 10:17:00,33.5,27.7,30.10,NE,36,7.0,8.0,79,0.00,,SKC,0.00,VWS V14.01,2013-03-17 14:17:00,
2013-03-17 10:18:00,33.4,27.6,30.10,East,83,3.0,7.0,79,0.00,,SKC,0.00,VWS V14.01,2013-03-17 14:18:00,
2013-03-17 10:19:00,33.6,28.1,30.10,ENE,66,1.0,1.0,80,0.00,,SKC,0.00,VWS V14.01,2013-03-17 14:19:00,
2013-03-17 10:20:00,33.4,27.6,30.10,NE,35,5.0,7.0,79,0.00,,SKC,0.00,VWS V14.01,2013-03-17 14:20:00,
2013-03-17 10:21:00,33.4,27.6,30.10,NNE,24,4.0,6.0,79,0.00,,SKC,0.00,VWS V14.01,2013-03-17 14:21:00,
2013-03-17 10:22:00,33.4,27.6,30.10,NNE,32,4.0,6.0,79,0.00,,SKC,0.00,VWS V14.01,2013-03-17 14:22:00,
2013-03-17 10:23:00,33.4,27.6,30.10,NE,56,2.0,6.0,79,0.00,,SKC,0.00,VWS V14.01,2013-03-17 14:23:00,
2013-03-17 10:24:00,33.5,27.7,30.10,North,5,6.0,8.0,79,0.00,,SKC,0.00,VWS V14.01,2013-03-17 14:24:00,
2013-03-17 10:25:00,33.4,27.6,30.10,North,10,5.0,5.0,79,0.00,,SKC,0.00,VWS V14.01,2013-03-17 14:25:00,
2013-03-17 10:26:00,33.3,27.5,30.10,NE,44,7.0,7.0,79,0.00,,SKC,0.00,VWS V14.01,2013-03-17 14:26:00,
2013-03-17 10:27:00,33.3,27.5,30.10,NNE,22,3.0,7.0,79,0.00,,SKC,0.00,VWS V14.01,2013-03-17 14:27:00,
2013-03-17 10:28:00,33.3,27.5,30.11,NNE,28,2.0,6.0,79,0.00,,SKC,0.00,VWS V14.01,2013-03-17 14:28:00,
2013-03-17 10:29:00,33.4,27.6,30.10,NNE,20,4.0,6.0,79,0.00,,SKC,0.00,VWS V14.01,2013-03-17 14:29:00,
2013-03-17 10:30:00,33.3,27.5,30.10,North,360,2.0,4.0,79,0.00,,SKC,0.00,VWS V14.01,2013-03-17 14:30:00,
2013-03-17 10:31:00,33.3,27.5,30.10,North,355,6.0,6.0,79,0.00,,SKC,0.00,VWS V14.01,2013-03-17 14:31:00,
2013-03-17 10:32:00,33.3,27.5,30.10,East,88,2.0,6.0,79,0.00,,SKC,0.00,VWS V14.01,2013-03-17 14:32:00,
2013-03-17 10:33:00,33.3,27.5,30.10,East,88,2.0,8.0,79,0.00,,SKC,0.00,VWS V14.01,2013-03-17 14:33:00,
2013-03-17 10:34:00,33.4,27.6,30.10,NE,34,4.0,7.0,79,0.00,,SKC,0.00,VWS V14.01,2013-03-17 14:34:00,
2013-03-17 10:35:00,33.3,27.5,30.10,ENE,75,2.0,2.0,79,0.00,,SKC,0.00,VWS V14.01,2013-03-17 14:35:00,
2013-03-17 10:36:00,33.3,27.5,30.10,NNE,14,4.0,5.0,79,0.00,,SKC,0.00,VWS V14.01,2013-03-17 14:36:00,
2013-03-17 10:37:00,33.3,27.5,30.10,North,355,4.0,7.0,79,0.00,,SKC,0.00,VWS V14.01,2013-03-17 14:37:00,
2013-03-17 10:38:00,33.3,27.5,30.10,North,5,6.0,6.0,79,0.00,,SKC,0.00,VWS V14.01,2013-03-17 14:38:00,
2013-03-17 10:39:00,33.3,27.5,30.10,North,355,1.0,6.0,79,0.00,,SKC,0.00,VWS V14.01,2013-03-17 14:39:00,
2013-03-17 10:40:00,33.2,27.4,30.10,NE,45,5.0,6.0,79,0.00,,SKC,0.00,VWS V14.01,2013-03-17 14:40:00,
2013-03-17 10:41:00,33.2,27.4,30.10,NE,53,2.0,5.0,79,0.00,,SKC,0.00,VWS V14.01,2013-03-17 14:41:00,
2013-03-17 10:42:00,33.2,27.4,30.10,ENE,59,6.0,6.0,79,0.00,,SKC,0.00,VWS V14.01,2013-03-17 14:42:00,
2013-03-17 10:43:00,33.2,27.4,30.10,NNE,24,3.0,7.0,79,0.00,,SKC,0.00,VWS V14.01,2013-03-17 14:43:00,
2013-03-17 10:44:00,33.3,27.5,30.10,NE,36,5.0,7.0,79,0.00,,SKC,0.00,VWS V14.01,2013-03-17 14:44:00,
2013-03-17 10:45:00,33.2,27.1,30.10,NNE,13,1.0,2.0,78,0.00,,SKC,0.00,VWS V14.01,2013-03-17 14:45:00,
2013-03-17 10:46:00,33.2,27.4,30.10,North,9,5.0,5.0,79,0.00,,SKC,0.00,VWS V14.01,2013-03-17 14:46:00,
2013-03-17 10:47:00,33.1,27.3,30.10,NE,35,9.0,10.0,79,0.00,,SKC,0.00,VWS V14.01,2013-03-17 14:47:00,
2013-03-17 10:48:00,33.1,27.0,30.10,NE,42,4.0,9.0,78,0.00,,SKC,0.00,VWS V14.01,2013-03-17 14:48:00,
2013-03-17 10:49:00,33.2,27.4,30.10,NE,53,2.0,2.0,79,0.00,,SKC,0.00,VWS V14.01,2013-03-17 14:49:00,
2013-03-17 10:50:00,33.1,27.0,30.10,NNE,19,4.0,6.0,78,0.00,,SKC,0.00,VWS V14.01,2013-03-17 14:50:00,
2013-03-17 10:51:00,33.1,27.0,30.10,NNE,22,2.0,5.0,78,0.00,,SKC,0.00,VWS V14.01,2013-03-17 14:51:00,
2013-03-17 10:52:00,33.0,26.9,30.10,North,9,4.0,5.0,78,0.00,,SKC,0.00,VWS V14.01,2013-03-17 14:52:00,
2013-03-17 10:53:00,33.0,26.9,30.10,North,5,3.0,6.0,78,0.00,,SKC,0.00,VWS V14.01,2013-03-17 14:53:00,
2013-03-17 10:54:00,33.2,27.4,30.10,NNE,25,8.0,8.0,79,0.00,,SKC,0.00,VWS V14.01,2013-03-17 14:54:00,
2013-03-17 10:55:00,33.0,26.9,30.10,North,5,10.0,12.0,78,0.00,,SKC,0.00,VWS V14.01,2013-03-17 14:55:00,
2013-03-17 10:56:00,33.0,26.9,30.10,NNE,33,5.0,10.0,78,0.00,,SKC,0.00,VWS V14.01,2013-03-17 14:56:00,
2013-03-17 10:57:00,32.9,26.8,30.10,NNE,32,1.0,5.0,78,0.00,,SKC,0.00,VWS V14.01,2013-03-17 14:57:00,
2013-03-17 10:58:00,32.9,26.8,30.11,North,5,4.0,6.0,78,0.00,,SKC,0.00,VWS V14.01,2013-03-17 14:58:00,
2013-03-17 10:59:00,33.0,26.9,30.10,North,355,4.0,5.0,78,0.00,,SKC,0.00,VWS V14.01,2013-03-17 14:59:00,
2013-03-17 11:00:00,32.9,26.8,30.11,NNE,30,0.0,5.0,78,0.00,,SKC,0.00,VWS V14.01,2013-03-17 15:00:00,
2013-03-17 11:01:00,32.9,26.8,30.11,North,355,4.0,7.0,78,0.00,,SKC,0.00,VWS V14.01,2013-03-17 15:01:00,
2013-03-17 11:02:00,32.8,26.7,30.11,NNE,17,5.0,10.0,78,0.00,,SKC,0.00,VWS V14.01,2013-03-17 15:02:00,
2013-03-17 11:03:00,32.8,26.7,30.11,NNE,30,6.0,8.0,78,0.00,,SKC,0.00,VWS V14.01,2013-03-17 15:03:00,
2013-03-17 11:04:00,32.9,26.8,30.10,NNE,32,5.0,5.0,78,0.00,,SKC,0.00,VWS V14.01,2013-03-17 15:04:00,
2013-03-17 11:05:00,32.8,26.4,30.12,North,5,3.0,6.0,77,0.00,,SKC,0.00,VWS V14.01,2013-03-17 15:05:00,
2013-03-17 11:06:00,32.7,26.3,30.12,NE,42,4.0,4.0,77,0.00,,SKC,0.00,VWS V14.01,2013-03-17 15:06:00,
2013-03-17 11:07:00,32.7,26.3,30.12,NE,41,2.0,4.0,77,0.00,,SKC,0.00,VWS V14.01,2013-03-17 15:07:00,
2013-03-17 11:08:00,32.7,26.6,30.12,NNE,31,0.0,2.0,78,0.00,,SKC,0.00,VWS V14.01,2013-03-17 15:08:00,
2013-03-17 11:09:00,32.8,26.7,30.11,NNE,17,9.0,10.0,78,0.00,,SKC,0.00,VWS V14.01,2013-03-17 15:09:00,
2013-03-17 11:10:00,32.7,26.6,30.12,NNE,29,2.0,4.0,78,0.00,,SKC,0.00,VWS V14.01,2013-03-17 15:10:00,
2013-03-17 11:11:00,32.7,26.6,30.12,NNE,19,6.0,8.0,78,0.00,,SKC,0.00,VWS V14.01,2013-03-17 15:11:00,
2013-03-17 11:12:00,32.7,26.6,30.12,NE,44,4.0,6.0,78,0.00,,SKC,0.00,VWS V14.01,2013-03-17 15:12:00,
2013-03-17 11:13:00,32.6,26.5,30.12,NNE,17,5.0,10.0,78,0.00,,SKC,0.00,VWS V14.01,2013-03-17 15:13:00,
2013-03-17 11:14:00,32.8,26.4,30.12,NE,42,0.0,4.0,77,0.00,,SKC,0.00,VWS V14.01,2013-03-17 15:14:00,
2013-03-17 11:15:00,32.6,26.5,30.12,NE,50,5.0,6.0,78,0.00,,SKC,0.00,VWS V14.01,2013-03-17 15:15:00,
2013-03-17 11:16:00,32.6,26.5,30.12,NE,36,5.0,9.0,78,0.00,,SKC,0.00,VWS V14.01,2013-03-17 15:16:00,
2013-03-17 11:17:00,32.6,26.5,30.12,North,355,8.0,8.0,78,0.00,,SKC,0.00,VWS V14.01,2013-03-17 15:17:00,
2013-03-17 11:18:00,32.6,26.5,30.12,NNE,30,5.0,8.0,78,0.00,,SKC,0.00,VWS V14.01,2013-03-17 15:18:00,
2013-03-17 11:19:00,32.7,26.6,30.12,NNW,331,5.0,6.0,78,0.00,,SKC,0.00,VWS V14.01,2013-03-17 15:19:00,
2013-03-17 11:20:00,32.5,26.4,30.12,North,360,8.0,8.0,78,0.00,,SKC,0.00,VWS V14.01,2013-03-17 15:20:00,
2013-03-17 11:21:00,32.5,26.4,30.12,North,5,2.0,8.0,78,0.00,,SKC,0.00,VWS V14.01,2013-03-17 15:21:00,
2013-03-17 11:22:00,32.5,26.4,30.12,NE,39,3.0,5.0,78,0.00,,SKC,0.00,VWS V14.01,2013-03-17 15:22:00,
2013-03-17 11:23:00,32.5,26.4,30.13,NNE,29,4.0,6.0,78,0.00,,SKC,0.00,VWS V14.01,2013-03-17 15:23:00,
2013-03-17 11:24:00,32.6,26.5,30.12,NE,42,4.0,5.0,78,0.00,,SKC,0.00,VWS V14.01,2013-03-17 15:24:00,
2013-03-17 11:25:00,32.4,26.3,30.13,NNE,12,4.0,7.0,78,0.00,,SKC,0.00,VWS V14.01,2013-03-17 15:25:00,
2013-03-17 11:26:00,32.4,26.3,30.13,NE,50,2.0,5.0,78,0.00,,SKC,0.00,VWS V14.01,2013-03-17 15:26:00,
2013-03-17 11:27:00,32.4,26.3,30.13,North,10,2.0,6.0,78,0.00,,SKC,0.00,VWS V14.01,2013-03-17 15:27:00,
2013-03-17 11:28:00,32.4,26.3,30.13,North,10,0.0,2.0,78,0.00,,SKC,0.00,VWS V14.01,2013-03-17 15:28:00,
2013-03-17 11:29:00,32.5,26.4,30.12,NNE,18,5.0,5.0,78,0.00,,SKC,0.00,VWS V14.01,2013-03-17 15:29:00,
2013-03-17 11:30:00,32.4,26.3,30.13,NNE,28,0.0,2.0,78,0.00,,SKC,0.00,VWS V14.01,2013-03-17 15:30:00,
2013-03-17 11:31:00,32.4,26.3,30.13,NNE,28,0.0,0.0,78,0.00,,SKC,0.00,VWS V14.01,2013-03-17 15:31:00,
2013-03-17 11:32:00,32.4,26.3,30.13,NNE,24,3.0,4.0,78,0.00,,SKC,0.00,VWS V14.01,2013-03-17 15:32:00,
2013-03-17 11:33:00,32.4,26.3,30.14,North,10,3.0,5.0,78,0.00,,SKC,0.00,VWS V14.01,2013-03-17 15:33:00,
2013-03-17 11:34:00,32.4,26.3,30.13,NE,37,5.0,6.0,78,0.00,,SKC,0.00,VWS V14.01,2013-03-17 15:34:00,
2013-03-17 11:35:00,32.4,26.3,30.14,NNE,17,1.0,1.0,78,0.00,,SKC,0.00,VWS V14.01,2013-03-17 15:35:00,
2013-03-17 11:36:00,32.3,26.2,30.14,North,5,2.0,3.0,78,0.00,,SKC,0.00,VWS V14.01,2013-03-17 15:36:00,
2013-03-17 11:37:00,32.3,26.2,30.14,North,5,5.0,6.0,78,0.00,,SKC,0.00,VWS V14.01,2013-03-17 15:37:00,
2013-03-17 11:38:00,32.3,26.2,30.14,North,5,2.0,5.0,78,0.00,,SKC,0.00,VWS V14.01,2013-03-17 15:38:00,
2013-03-17 11:39:00,32.4,26.3,30.13,NNE,15,4.0,4.0,78,0.00,,SKC,0.00,VWS V14.01,2013-03-17 15:39:00,
2013-03-17 11:40:00,32.3,26.5,30.14,North,360,4.0,5.0,79,0.00,,SKC,0.00,VWS V14.01,2013-03-17 15:40:00,
2013-03-17 11:41:00,32.3,26.5,30.14,NNE,18,7.0,7.0,79,0.00,,SKC,0.00,VWS V14.01,2013-03-17 15:41:00,
2013-03-17 11:42:00,32.3,26.5,30.14,North,360,6.0,7.0,79,0.00,,SKC,0.00,VWS V14.01,2013-03-17 15:42:00,
2013-03-17 11:43:00,32.3,26.5,30.14,North,360,2.0,7.0,79,0.00,,SKC,0.00,VWS V14.01,2013-03-17 15:43:00,
2013-03-17 11:44:00,32.3,26.2,30.14,North,5,0.0,5.0,78,0.00,,SKC,0.00,VWS V14.01,2013-03-17 15:44:00,
2013-03-17 11:45:00,32.3,26.5,30.14,NE,38,3.0,5.0,79,0.00,,SKC,0.00,VWS V14.01,2013-03-17 15:45:00,
2013-03-17 11:46:00,32.3,26.5,30.14,NNE,13,3.0,6.0,79,0.00,,SKC,0.00,VWS V14.01,2013-03-17 15:46:00,
2013-03-17 11:47:00,32.3,26.5,30.14,NNW,340,1.0,6.0,79,0.00,,SKC,0.00,VWS V14.01,2013-03-17 15:47:00,
2013-03-17 11:48:00,32.3,26.5,30.14,NE,38,4.0,5.0,79,0.00,,SKC,0.00,VWS V14.01,2013-03-17 15:48:00,
2013-03-17 11:49:00,32.3,26.5,30.14,NNE,24,6.0,7.0,79,0.00,,SKC,0.00,VWS V14.01,2013-03-17 15:49:00,
2013-03-17 11:50:00,32.3,26.5,30.14,NE,46,1.0,5.0,79,0.00,,SKC,0.00,VWS V14.01,2013-03-17 15:50:00,
2013-03-17 11:51:00,32.3,26.5,30.14,NE,46,2.0,2.0,79,0.00,,SKC,0.00,VWS V14.01,2013-03-17 15:51:00,
2013-03-17 11:52:00,32.3,26.5,30.14,ENE,61,4.0,6.0,79,0.00,,SKC,0.00,VWS V14.01,2013-03-17 15:52:00,
2013-03-17 11:53:00,32.3,26.5,30.14,NE,46,2.0,4.0,79,0.00,,SKC,0.00,VWS V14.01,2013-03-17 15:53:00,
2013-03-17 11:54:00,32.3,26.5,30.14,NNE,28,6.0,6.0,79,0.00,,SKC,0.00,VWS V14.01,2013-03-17 15:54:00,
2013-03-17 11:55:00,32.3,26.5,30.13,NE,43,0.0,2.0,79,0.00,,SKC,0.00,VWS V14.01,2013-03-17 15:55:00,
2013-03-17 11:56:00,32.3,26.5,30.13,NE,43,3.0,4.0,79,0.00,,SKC,0.00,VWS V14.01,2013-03-17 15:56:00,
2013-03-17 11:57:00,32.4,26.6,30.14,NE,45,7.0,7.0,79,0.00,,SKC,0.00,VWS V14.01,2013-03-17 15:57:00,
2013-03-17 11:58:00,32.4,26.6,30.14,ENE,69,3.0,7.0,79,0.00,,SKC,0.00,VWS V14.01,2013-03-17 15:58:00,
2013-03-17 11:59:00,32.3,26.5,30.14,ENE,61,4.0,6.0,79,0.00,,SKC,0.00,VWS V14.01,2013-03-17 15:59:00,
2013-03-17 12:00:00,32.4,26.6,30.14,ENE,74,1.0,2.0,79,0.00,,SKC,0.00,VWS V14.01,2013-03-17 16:00:00,
2013-03-17 12:01:00,32.4,26.6,30.14,East,90,1.0,1.0,79,0.00,,SKC,0.00,VWS V14.01,2013-03-17 16:01:00,
2013-03-17 12:02:00,32.4,26.6,30.14,ENE,63,1.0,5.0,79,0.00,,SKC,0.00,VWS V14.01,2013-03-17 16:02:00,
2013-03-17 12:03:00,32.4,26.6,30.14,NNE,20,1.0,6.0,79,0.00,,SKC,0.00,VWS V14.01,2013-03-17 16:03:00,
2013-03-17 12:04:00,32.3,26.5,30.14,NNE,15,4.0,6.0,79,0.00,,SKC,0.00,VWS V14.01,2013-03-17 16:04:00,
2013-03-17 12:05:00,32.4,26.6,30.14,ENE,68,4.0,5.0,79,0.00,,SKC,0.00,VWS V14.01,2013-03-17 16:05:00,
2013-03-17 12:06:00,32.5,26.7,30.14,East,82,2.0,4.0,79,0.00,,SKC,0.00,VWS V14.01,2013-03-17 16:06:00,
2013-03-17 12:07:00,32.4,26.6,30.13,NNE,31,3.0,6.0,79,0.00,,SKC,0.00,VWS V14.01,2013-03-17 16:07:00,
2013-03-17 12:08:00,32.5,26.7,30.13,NNE,31,1.0,3.0,79,0.00,,SKC,0.00,VWS V14.01,2013-03-17 16:08:00,
2013-03-17 12:09:00,32.4,26.6,30.14,NNE,13,4.0,4.0,79,0.00,,SKC,0.00,VWS V14.01,2013-03-17 16:09:00,
2013-03-17 12:10:00,32.5,26.7,30.13,NNE,31,0.0,2.0,79,0.00,,SKC,0.00,VWS V14.01,2013-03-17 16:10:00,
2013-03-17 12:11:00,32.5,26.7,30.13,NE,42,1.0,3.0,79,0.00,,SKC,0.00,VWS V14.01,2013-03-17 16:11:00,
2013-03-17 12:12:00,32.5,26.7,30.13,ENE,65,0.0,2.0,79,0.00,,SKC,0.00,VWS V14.01,2013-03-17 16:12:00,
2013-03-17 12:13:00,32.5,26.7,30.13,ENE,65,0.0,1.0,79,0.00,,SKC,0.00,VWS V14.01,2013-03-17 16:13:00,
2013-03-17 12:14:00,32.5,26.7,30.13,NE,48,6.0,6.0,79,0.00,,SKC,0.00,VWS V14.01,2013-03-17 16:14:00,
2013-03-17 12:15:00,32.5,26.4,30.13,NE,46,2.0,6.0,78,0.00,,SKC,0.00,VWS V14.01,2013-03-17 16:15:00,
2013-03-17 12:16:00,32.5,26.7,30.13,NNE,13,5.0,5.0,79,0.00,,SKC,0.00,VWS V14.01,2013-03-17 16:16:00,
2013-03-17 12:17:00,32.5,26.4,30.13,North,5,1.0,6.0,78,0.00,,SKC,0.00,VWS V14.01,2013-03-17 16:17:00,
2013-03-17 12:18:00,32.5,26.4,30.13,NNE,27,1.0,2.0,78,0.00,,SKC,0.00,VWS V14.01,2013-03-17 16:18:00,
2013-03-17 12:19:00,32.5,26.7,30.13,ENE,65,2.0,2.0,79,0.00,,SKC,0.00,VWS V14.01,2013-03-17 16:19:00,
2013-03-17 12:20:00,32.5,26.4,30.12,North,10,3.0,3.0,78,0.00,,SKC,0.00,VWS V14.01,2013-03-17 16:20:00,
2013-03-17 12:21:00,32.5,26.4,30.12,NE,51,2.0,4.0,78,0.00,,SKC,0.00,VWS V14.01,2013-03-17 16:21:00,
2013-03-17 12:22:00,32.6,26.5,30.12,North,10,5.0,6.0,78,0.00,,SKC,0.00,VWS V14.01,2013-03-17 16:22:00,
2013-03-17 12:23:00,32.6,26.5,30.12,North,11,4.0,5.0,78,0.00,,SKC,0.00,VWS V14.01,2013-03-17 16:23:00,
2013-03-17 12:24:00,32.5,26.7,30.13,NNE,17,4.0,6.0,79,0.00,,SKC,0.00,VWS V14.01,2013-03-17 16:24:00,
2013-03-17 12:25:00,32.7,26.6,30.12,NE,54,6.0,7.0,78,0.00,,SKC,0.00,VWS V14.01,2013-03-17 16:25:00,
2013-03-17 12:27:00,32.7,26.6,30.12,North,5,1.0,5.0,78,0.00,,SKC,0.00,VWS V14.01,2013-03-17 16:27:00,
2013-03-17 12:29:00,32.6,26.5,30.12,NE,34,1.0,4.0,78,0.00,,SKC,0.00,VWS V14.01,2013-03-17 16:29:00,
2013-03-17 12:30:00,32.7,26.6,30.13,NNE,17,0.0,5.0,78,0.00,,SKC,0.00,VWS V14.01,2013-03-17 16:30:00,
2013-03-17 12:31:00,32.8,26.7,30.12,NNE,14,4.0,6.0,78,0.00,,SKC,0.00,VWS V14.01,2013-03-17 16:31:00,
2013-03-17 12:32:00,32.8,26.7,30.12,NNE,30,2.0,4.0,78,0.00,,SKC,0.00,VWS V14.01,2013-03-17 16:32:00,
2013-03-17 12:33:00,32.8,26.7,30.12,NNE,26,1.0,5.0,78,0.00,,SKC,0.00,VWS V14.01,2013-03-17 16:33:00,
2013-03-17 12:34:00,32.7,26.6,30.12,North,5,5.0,5.0,78,0.00,,SKC,0.00,VWS V14.01,2013-03-17 16:34:00,
2013-03-17 12:35:00,32.8,26.4,30.12,NNE,15,2.0,6.0,77,0.00,,SKC,0.00,VWS V14.01,2013-03-17 16:35:00,
2013-03-17 12:36:00,32.8,26.4,30.12,North,10,0.0,4.0,77,0.00,,SKC,0.00,VWS V14.01,2013-03-17 16:36:00,
2013-03-17 12:37:00,32.7,26.3,30.12,North,10,0.0,0.0,77,0.00,,SKC,0.00,VWS V14.01,2013-03-17 16:37:00,
2013-03-17 12:38:00,32.8,26.7,30.12,North,10,0.0,1.0,78,0.00,,SKC,0.00,VWS V14.01,2013-03-17 16:38:00,
2013-03-17 12:39:00,32.8,26.7,30.12,NNE,30,2.0,4.0,78,0.00,,SKC,0.00,VWS V14.01,2013-03-17 16:39:00,
2013-03-17 12:40:00,32.8,26.7,30.11,NNW,342,1.0,5.0,78,0.00,,SKC,0.00,VWS V14.01,2013-03-17 16:40:00,
2013-03-17 12:41:00,32.8,26.7,30.12,NNE,13,0.0,2.0,78,0.00,,SKC,0.00,VWS V14.01,2013-03-17 16:41:00,
2013-03-17 12:42:00,32.9,26.8,30.12,NNE,13,1.0,1.0,78,0.00,,SKC,0.00,VWS V14.01,2013-03-17 16:42:00,
2013-03-17 12:43:00,32.9,26.8,30.12,NNE,13,0.0,1.0,78,0.00,,SKC,0.00,VWS V14.01,2013-03-17 16:43:00,
2013-03-17 12:44:00,32.8,26.4,30.12,North,10,0.0,0.0,77,0.00,,SKC,0.00,VWS V14.01,2013-03-17 16:44:00,
2013-03-17 12:45:00,33.0,26.9,30.12,NNE,13,0.0,2.0,78,0.00,,SKC,0.00,VWS V14.01,2013-03-17 16:45:00,
2013-03-17 12:46:00,33.0,26.6,30.12,NNE,13,0.0,1.0,77,0.00,,SKC,0.00,VWS V14.01,2013-03-17 16:46:00,
2013-03-17 12:47:00,33.1,27.0,30.12,NNE,15,2.0,2.0,78,0.00,,SKC,0.00,VWS V14.01,2013-03-17 16:47:00,
2013-03-17 12:48:00,33.2,27.1,30.12,NNE,18,0.0,2.0,78,0.00,,SKC,0.00,VWS V14.01,2013-03-17 16:48:00,
2013-03-17 12:49:00,32.8,26.7,30.12,NNE,13,0.0,1.0,78,0.00,,SKC,0.00,VWS V14.01,2013-03-17 16:49:00,
2013-03-17 12:50:00,33.3,26.9,30.12,North,5,4.0,6.0,77,0.00,,SKC,0.00,VWS V14.01,2013-03-17 16:50:00,
2013-03-17 12:51:00,33.3,26.9,30.12,NNE,12,5.0,5.0,77,0.00,,SKC,0.00,VWS V14.01,2013-03-17 16:51:00,
2013-03-17 12:52:00,33.3,26.9,30.12,North,11,0.0,5.0,77,0.00,,SKC,0.00,VWS V14.01,2013-03-17 16:52:00,
2013-03-17 12:53:00,33.3,26.9,30.12,North,5,2.0,4.0,77,0.00,,SKC,0.00,VWS V14.01,2013-03-17 16:53:00,
2013-03-17 12:54:00,33.1,27.0,30.12,NNE,13,0.0,0.0,78,0.00,,SKC,0.00,VWS V14.01,2013-03-17 16:54:00,
2013-03-17 12:55:00,33.3,26.9,30.12,North,5,0.0,0.0,77,0.00,,SKC,0.00,VWS V14.01,2013-03-17 16:55:00,
2013-03-17 12:56:00,33.4,27.0,30.12,North,5,0.0,0.0,77,0.00,,SKC,0.00,VWS V14.01,2013-03-17 16:56:00,
2013-03-17 12:57:00,33.4,27.0,30.12,North,5,0.0,1.0,77,0.00,,SKC,0.00,VWS V14.01,2013-03-17 16:57:00,
2013-03-17 12:58:00,33.4,27.0,30.12,NE,34,0.0,5.0,77,0.00,,SKC,0.00,VWS V14.01,2013-03-17 16:58:00,
2013-03-17 12:59:00,33.3,26.9,30.12,North,10,1.0,5.0,77,0.00,,SKC,0.00,VWS V14.01,2013-03-17 16:59:00,
2013-03-17 13:00:00,33.3,26.9,30.12,NNE,12,5.0,6.0,77,0.00,,SKC,0.00,VWS V14.01,2013-03-17 17:00:00,
2013-03-17 13:01:00,33.3,26.6,30.12,NNE,21,0.0,5.0,76,0.00,,SKC,0.00,VWS V14.01,2013-03-17 17:01:00,
2013-03-17 13:02:00,33.2,26.5,30.12,North,11,5.0,5.0,76,0.00,,SKC,0.00,VWS V14.01,2013-03-17 17:02:00,
2013-03-17 13:03:00,33.2,26.5,30.12,NNW,346,2.0,5.0,76,0.00,,SKC,0.00,VWS V14.01,2013-03-17 17:03:00,
2013-03-17 13:04:00,33.4,27.0,30.12,North,5,0.0,1.0,77,0.00,,SKC,0.00,VWS V14.01,2013-03-17 17:04:00,
2013-03-17 13:05:00,33.3,26.9,30.12,NNE,19,2.0,6.0,77,0.00,,SKC,0.00,VWS V14.01,2013-03-17 17:05:00,
2013-03-17 13:06:00,33.4,27.0,30.12,North,355,3.0,5.0,77,0.00,,SKC,0.00,VWS V14.01,2013-03-17 17:06:00,
2013-03-17 13:07:00,33.4,27.0,30.12,North,355,0.0,4.0,77,0.00,,SKC,0.00,VWS V14.01,2013-03-17 17:07:00,
2013-03-17 13:08:00,33.5,27.1,30.12,North,360,2.0,2.0,77,0.00,,SKC,0.00,VWS V14.01,2013-03-17 17:08:00,
2013-03-17 13:09:00,33.2,26.5,30.12,NNE,21,0.0,1.0,76,0.00,,SKC,0.00,VWS V14.01,2013-03-17 17:09:00,
2013-03-17 13:10:00,33.5,26.8,30.12,NNW,348,0.0,2.0,76,0.00,,SKC,0.00,VWS V14.01,2013-03-17 17:10:00,
2013-03-17 13:11:00,33.5,26.8,30.12,North,360,2.0,6.0,76,0.00,,SKC,0.00,VWS V14.01,2013-03-17 17:11:00,
2013-03-17 13:12:00,33.5,26.8,30.12,North,11,8.0,8.0,76,0.00,,SKC,0.00,VWS V14.01,2013-03-17 17:12:00,
2013-03-17 13:13:00,33.5,26.8,30.12,North,360,4.0,8.0,76,0.00,,SKC,0.00,VWS V14.01,2013-03-17 17:13:00,
2013-03-17 13:14:00,33.4,27.0,30.12,North,355,1.0,3.0,77,0.00,,SKC,0.00,VWS V14.01,2013-03-17 17:14:00,
2013-03-17 13:15:00,33.5,26.4,30.12,NNW,344,4.0,8.0,75,0.00,,SKC,0.00,VWS V14.01,2013-03-17 17:15:00,
2013-03-17 13:16:00,33.4,26.3,30.12,NNE,12,1.0,5.0,75,0.00,,SKC,0.00,VWS V14.01,2013-03-17 17:16:00,
2013-03-17 13:17:00,33.4,26.3,30.12,NE,38,0.0,7.0,75,0.00,,SKC,0.00,VWS V14.01,2013-03-17 17:17:00,
2013-03-17 13:18:00,33.3,26.2,30.12,WNW,284,0.0,7.0,75,0.00,,SKC,0.00,VWS V14.01,2013-03-17 17:18:00,
2013-03-17 13:19:00,33.5,26.8,30.12,North,5,0.0,2.0,76,0.00,,SKC,0.00,VWS V14.01,2013-03-17 17:19:00,
2013-03-17 13:20:00,33.2,26.1,30.12,NNE,26,2.0,5.0,75,0.00,,SKC,0.00,VWS V14.01,2013-03-17 17:20:00,
2013-03-17 13:21:00,33.2,26.5,30.12,NNE,26,0.0,5.0,76,0.00,,SKC,0.00,VWS V14.01,2013-03-17 17:21:00,
2013-03-17 13:22:00,33.1,26.4,30.12,NNE,26,0.0,1.0,76,0.00,,SKC,0.00,VWS V14.01,2013-03-17 17:22:00,
2013-03-17 13:23:00,33.1,26.4,30.12,North,9,0.0,6.0,76,0.00,,SKC,0.00,VWS V14.01,2013-03-17 17:23:00,
2013-03-17 13:24:00,33.4,26.3,30.12,NNE,24,2.0,4.0,75,0.00,,SKC,0.00,VWS V14.01,2013-03-17 17:24:00,
2013-03-17 13:25:00,33.1,26.4,30.13,NNE,15,0.0,2.0,76,0.00,,SKC,0.00,VWS V14.01,2013-03-17 17:25:00,
2013-03-17 13:26:00,33.0,26.3,30.13,NNE,26,1.0,6.0,76,0.00,,SKC,0.00,VWS V14.01,2013-03-17 17:26:00,
2013-03-17 13:27:00,33.0,26.3,30.13,NNE,26,2.0,4.0,76,0.00,,SKC,0.00,VWS V14.01,2013-03-17 17:27:00,
2013-03-17 13:28:00,33.0,26.3,30.13,NNE,26,0.0,2.0,76,0.00,,SKC,0.00,VWS V14.01,2013-03-17 17:28:00,
2013-03-17 13:29:00,33.2,26.5,30.12,NNE,26,0.0,1.0,76,0.00,,SKC,0.00,VWS V14.01,2013-03-17 17:29:00,
2013-03-17 13:30:00,32.9,25.9,30.13,North,11,5.0,6.0,75,0.00,,SKC,0.00,VWS V14.01,2013-03-17 17:30:00,
2013-03-17 13:31:00,32.9,25.9,30.13,North,9,0.0,5.0,75,0.00,,SKC,0.00,VWS V14.01,2013-03-17 17:31:00,
2013-03-17 13:32:00,32.9,26.2,30.12,NE,36,2.0,2.0,76,0.00,,SKC,0.00,VWS V14.01,2013-03-17 17:32:00,
2013-03-17 13:33:00,32.9,26.2,30.12,NNE,24,6.0,6.0,76,0.00,,SKC,0.00,VWS V14.01,2013-03-17 17:33:00,
2013-03-17 13:34:00,33.0,26.3,30.13,NNE,26,1.0,4.0,76,0.00,,SKC,0.00,VWS V14.01,2013-03-17 17:34:00,
2013-03-17 13:35:00,32.8,25.8,30.12,North,5,4.0,6.0,75,0.00,,SKC,0.00,VWS V14.01,2013-03-17 17:35:00,
2013-03-17 13:36:00,32.8,26.1,30.13,North,5,0.0,4.0,76,0.00,,SKC,0.00,VWS V14.01,2013-03-17 17:36:00,
2013-03-17 13:37:00,32.7,26.0,30.13,North,360,2.0,5.0,76,0.00,,SKC,0.00,VWS V14.01,2013-03-17 17:37:00,
2013-03-17 13:38:00,32.7,26.0,30.13,North,360,0.0,2.0,76,0.00,,SKC,0.00,VWS V14.01,2013-03-17 17:38:00,
2013-03-17 13:39:00,32.9,25.9,30.12,NE,55,1.0,2.0,75,0.00,,SKC,0.00,VWS V14.01,2013-03-17 17:39:00,
2013-03-17 13:40:00,32.8,26.1,30.12,North,9,0.0,3.0,76,0.00,,SKC,0.00,VWS V14.01,2013-03-17 17:40:00,
2013-03-17 13:41:00,32.8,26.1,30.12,NNW,346,4.0,4.0,76,0.00,,SKC,0.00,VWS V14.01,2013-03-17 17:41:00,
2013-03-17 13:42:00,32.7,26.0,30.12,NNE,13,1.0,6.0,76,0.00,,SKC,0.00,VWS V14.01,2013-03-17 17:42:00,
2013-03-17 13:43:00,32.7,26.0,30.12,NNW,339,2.0,5.0,76,0.00,,SKC,0.00,VWS V14.01,2013-03-17 17:43:00,
2013-03-17 13:44:00,32.8,26.1,30.13,North,5,0.0,0.0,76,0.00,,SKC,0.00,VWS V14.01,2013-03-17 17:44:00,
2013-03-17 13:45:00,32.7,26.0,30.12,NE,49,0.0,5.0,76,0.00,,SKC,0.00,VWS V14.01,2013-03-17 17:45:00,
2013-03-17 13:46:00,32.6,25.9,30.12,NNE,31,5.0,6.0,76,0.00,,SKC,0.00,VWS V14.01,2013-03-17 17:46:00,
2013-03-17 13:47:00,32.6,25.9,30.12,North,5,2.0,7.0,76,0.00,,SKC,0.00,VWS V14.01,2013-03-17 17:47:00,
2013-03-17 13:48:00,32.6,25.9,30.12,NNE,22,8.0,8.0,76,0.00,,SKC,0.00,VWS V14.01,2013-03-17 17:48:00,
2013-03-17 13:49:00,32.7,26.0,30.12,North,5,6.0,6.0,76,0.00,,SKC,0.00,VWS V14.01,2013-03-17 17:49:00,
2013-03-17 13:50:00,32.7,26.0,30.12,North,360,2.0,5.0,76,0.00,,SKC,0.00,VWS V14.01,2013-03-17 17:50:00,
2013-03-17 13:51:00,32.7,26.0,30.13,NNE,13,2.0,4.0,76,0.00,,SKC,0.00,VWS V14.01,2013-03-17 17:51:00,
2013-03-17 13:52:00,32.7,26.0,30.13,NNE,22,5.0,5.0,76,0.00,,SKC,0.00,VWS V14.01,2013-03-17 17:52:00,
2013-03-17 13:53:00,32.7,25.7,30.13,NNE,19,2.0,5.0,75,0.00,,SKC,0.00,VWS V14.01,2013-03-17 17:53:00,
2013-03-17 13:54:00,32.6,25.9,30.12,North,5,4.0,7.0,76,0.00,,SKC,0.00,VWS V14.01,2013-03-17 17:54:00,
2013-03-17 13:55:00,32.7,25.7,30.13,NNE,17,0.0,2.0,75,0.00,,SKC,0.00,VWS V14.01,2013-03-17 17:55:00,
2013-03-17 13:56:00,32.7,25.7,30.13,NE,40,2.0,4.0,75,0.00,,SKC,0.00,VWS V14.01,2013-03-17 17:56:00,
2013-03-17 13:57:00,32.7,25.7,30.13,NNE,20,2.0,2.0,75,0.00,,SKC,0.00,VWS V14.01,2013-03-17 17:57:00,
2013-03-17 13:58:00,32.7,25.7,30.13,NNE,12,4.0,7.0,75,0.00,,SKC,0.00,VWS V14.01,2013-03-17 17:58:00,
2013-03-17 13:59:00,32.7,26.0,30.13,NNE,12,5.0,5.0,76,0.00,,SKC,0.00,VWS V14.01,2013-03-17 17:59:00,
2013-03-17 14:00:00,32.7,25.7,30.12,North,5,4.0,4.0,75,0.00,,SKC,0.00,VWS V14.01,2013-03-17 18:00:00,
2013-03-17 14:01:00,32.7,25.7,30.12,NNE,19,5.0,6.0,75,0.00,,SKC,0.00,VWS V14.01,2013-03-17 18:01:00,
2013-03-17 14:02:00,32.7,25.7,30.12,North,9,6.0,6.0,75,0.00,,SKC,0.00,VWS V14.01,2013-03-17 18:02:00,
2013-03-17 14:03:00,32.7,25.7,30.12,NNE,16,0.0,9.0,75,0.00,,SKC,0.00,VWS V14.01,2013-03-17 18:03:00,
2013-03-17 14:04:00,32.6,25.6,30.13,NE,40,1.0,2.0,75,0.00,,SKC,0.00,VWS V14.01,2013-03-17 18:04:00,
2013-03-17 14:05:00,32.7,25.7,30.12,NNE,15,1.0,4.0,75,0.00,,SKC,0.00,VWS V14.01,2013-03-17 18:05:00,
2013-03-17 14:06:00,32.8,25.8,30.12,North,355,4.0,6.0,75,0.00,,SKC,0.00,VWS V14.01,2013-03-17 18:06:00,
2013-03-17 14:07:00,32.7,25.7,30.12,NNE,15,4.0,7.0,75,0.00,,SKC,0.00,VWS V14.01,2013-03-17 18:07:00,
2013-03-17 14:08:00,32.8,25.8,30.13,NNE,12,3.0,5.0,75,0.00,,SKC,0.00,VWS V14.01,2013-03-17 18:08:00,
2013-03-17 14:09:00,32.7,25.7,30.12,NNE,19,1.0,5.0,75,0.00,,SKC,0.00,VWS V14.01,2013-03-17 18:09:00,
2013-03-17 14:10:00,32.7,25.7,30.13,NNE,18,5.0,5.0,75,0.00,,SKC,0.00,VWS V14.01,2013-03-17 18:10:00,
2013-03-17 14:11:00,32.7,25.7,30.13,NE,38,4.0,7.0,75,0.00,,SKC,0.00,VWS V14.01,2013-03-17 18:11:00,
2013-03-17 14:12:00,32.7,25.7,30.13,NNE,32,4.0,4.0,75,0.00,,SKC,0.00,VWS V14.01,2013-03-17 18:12:00,
2013-03-17 14:13:00,32.7,25.7,30.13,NNE,32,0.0,4.0,75,0.00,,SKC,0.00,VWS V14.01,2013-03-17 18:13:00,
2013-03-17 14:14:00,32.8,25.8,30.12,North,5,6.0,6.0,75,0.00,,SKC,0.00,VWS V14.01,2013-03-17 18:14:00,
2013-03-17 14:15:00,32.7,25.7,30.13,North,11,2.0,3.0,75,0.00,,SKC,0.00,VWS V14.01,2013-03-17 18:15:00,
2013-03-17 14:16:00,32.6,25.6,30.13,NNE,28,1.0,5.0,75,0.00,,SKC,0.00,VWS V14.01,2013-03-17 18:16:00,
2013-03-17 14:17:00,32.6,25.6,30.13,NNE,26,4.0,4.0,75,0.00,,SKC,0.00,VWS V14.01,2013-03-17 18:17:00,
2013-03-17 14:18:00,32.6,25.6,30.13,NNE,26,1.0,4.0,75,0.00,,SKC,0.00,VWS V14.01,2013-03-17 18:18:00,
2013-03-17 14:19:00,32.7,25.7,30.13,NE,38,0.0,4.0,75,0.00,,SKC,0.00,VWS V14.01,2013-03-17 18:19:00,
2013-03-17 14:20:00,32.6,25.6,30.13,NNE,30,1.0,4.0,75,0.00,,SKC,0.00,VWS V14.01,2013-03-17 18:20:00,
2013-03-17 14:21:00,32.6,25.6,30.13,NNE,30,0.0,2.0,75,0.00,,SKC,0.00,VWS V14.01,2013-03-17 18:21:00,
2013-03-17 14:22:00,32.6,25.6,30.13,NNE,30,0.0,0.0,75,0.00,,SKC,0.00,VWS V14.01,2013-03-17 18:22:00,
2013-03-17 14:23:00,32.6,25.6,30.13,NNE,28,0.0,2.0,75,0.00,,SKC,0.00,VWS V14.01,2013-03-17 18:23:00,
2013-03-17 14:24:00,32.6,25.6,30.13,NNE,28,0.0,1.0,75,0.00,,SKC,0.00,VWS V14.01,2013-03-17 18:24:00,
2013-03-17 14:25:00,32.6,25.6,30.13,NNE,29,2.0,4.0,75,0.00,,SKC,0.00,VWS V14.01,2013-03-17 18:25:00,
2013-03-17 14:26:00,32.6,25.6,30.13,NNE,28,1.0,2.0,75,0.00,,SKC,0.00,VWS V14.01,2013-03-17 18:26:00,
2013-03-17 14:27:00,32.7,25.7,30.13,NNE,27,4.0,4.0,75,0.00,,SKC,0.00,VWS V14.01,2013-03-17 18:27:00,
2013-03-17 14:28:00,32.6,25.6,30.13,NNE,30,5.0,5.0,75,0.00,,SKC,0.00,VWS V14.01,2013-03-17 18:28:00,
2013-03-17 14:29:00,32.6,25.6,30.13,NNE,30,0.0,0.0,75,0.00,,SKC,0.00,VWS V14.01,2013-03-17 18:29:00,
2013-03-17 14:30:00,32.6,25.6,30.13,NNE,30,0.0,1.0,75,0.00,,SKC,0.00,VWS V14.01,2013-03-17 18:30:00,
2013-03-17 14:31:00,32.6,25.6,30.13,WNW,288,0.0,2.0,75,0.00,,SKC,0.00,VWS V14.01,2013-03-17 18:31:00,
2013-03-17 14:32:00,32.6,25.6,30.13,WNW,288,0.0,0.0,75,0.00,,SKC,0.00,VWS V14.01,2013-03-17 18:32:00,
2013-03-17 14:33:00,32.6,25.6,30.13,North,355,5.0,5.0,75,0.00,,SKC,0.00,VWS V14.01,2013-03-17 18:33:00,
2013-03-17 14:34:00,32.6,25.6,30.13,NNE,28,4.0,4.0,75,0.00,,SKC,0.00,VWS V14.01,2013-03-17 18:34:00,
2013-03-17 14:35:00,32.6,25.6,30.13,North,5,2.0,5.0,75,0.00,,SKC,0.00,VWS V14.01,2013-03-17 18:35:00,
2013-03-17 14:36:00,32.6,25.6,30.13,North,5,2.0,5.0,75,0.00,,SKC,0.00,VWS V14.01,2013-03-17 18:36:00,
2013-03-17 14:37:00,32.6,25.6,30.13,North,9,4.0,5.0,75,0.00,,SKC,0.00,VWS V14.01,2013-03-17 18:37:00,
2013-03-17 14:38:00,32.6,25.6,30.13,NNE,24,0.0,6.0,75,0.00,,SKC,0.00,VWS V14.01,2013-03-17 18:38:00,
2013-03-17 14:39:00,32.6,25.6,30.13,WNW,288,0.0,0.0,75,0.00,,SKC,0.00,VWS V14.01,2013-03-17 18:39:00,
2013-03-17 14:40:00,32.6,25.6,30.13,NNE,24,0.0,2.0,75,0.00,,SKC,0.00,VWS V14.01,2013-03-17 18:40:00,
2013-03-17 14:41:00,32.6,25.6,30.13,North,10,2.0,5.0,75,0.00,,SKC,0.00,VWS V14.01,2013-03-17 18:41:00,
2013-03-17 14:42:00,32.6,25.6,30.13,NNE,13,5.0,5.0,75,0.00,,SKC,0.00,VWS V14.01,2013-03-17 18:42:00,
2013-03-17 14:43:00,32.6,25.6,30.13,NNE,13,2.0,5.0,75,0.00,,SKC,0.00,VWS V14.01,2013-03-17 18:43:00,
2013-03-17 14:44:00,32.6,25.6,30.13,North,5,4.0,5.0,75,0.00,,SKC,0.00,VWS V14.01,2013-03-17 18:44:00,
2013-03-17 14:45:00,32.6,25.6,30.13,NNE,26,2.0,6.0,75,0.00,,SKC,0.00,VWS V14.01,2013-03-17 18:45:00,
2013-03-17 14:46:00,32.5,25.5,30.13,NE,40,1.0,5.0,75,0.00,,SKC,0.00,VWS V14.01,2013-03-17 18:46:00,
2013-03-17 14:47:00,32.6,25.6,30.12,North,360,1.0,4.0,75,0.00,,SKC,0.00,VWS V14.01,2013-03-17 18:47:00,
2013-03-17 14:48:00,32.5,25.5,30.12,North,360,0.0,1.0,75,0.00,,SKC,0.00,VWS V14.01,2013-03-17 18:48:00,
2013-03-17 14:49:00,32.6,25.6,30.13,North,10,2.0,2.0,75,0.00,,SKC,0.00,VWS V14.01,2013-03-17 18:49:00,
2013-03-17 14:50:00,32.5,25.5,30.12,North,355,4.0,4.0,75,0.00,,SKC,0.00,VWS V14.01,2013-03-17 18:50:00,
2013-03-17 14:51:00,32.5,25.5,30.12,North,355,1.0,4.0,75,0.00,,SKC,0.00,VWS V14.01,2013-03-17 18:51:00,
2013-03-17 14:52:00,32.5,25.5,30.13,North,5,1.0,1.0,75,0.00,,SKC,0.00,VWS V14.01,2013-03-17 18:52:00,
2013-03-17 14:53:00,32.5,25.5,30.13,NNE,32,2.0,6.0,75,0.00,,SKC,0.00,VWS V14.01,2013-03-17 18:53:00,
2013-03-17 14:54:00,32.5,25.5,30.12,North,351,4.0,4.0,75,0.00,,SKC,0.00,VWS V14.01,2013-03-17 18:54:00,
2013-03-17 14:55:00,32.5,25.5,30.13,NNE,25,0.0,4.0,75,0.00,,SKC,0.00,VWS V14.01,2013-03-17 18:55:00,
2013-03-17 14:56:00,32.6,25.6,30.13,NE,47,1.0,3.0,75,0.00,,SKC,0.00,VWS V14.01,2013-03-17 18:56:00,
2013-03-17 14:57:00,32.6,25.6,30.13,North,360,4.0,6.0,75,0.00,,SKC,0.00,VWS V14.01,2013-03-17 18:57:00,
2013-03-17 14:58:00,32.6,25.6,30.13,NE,41,5.0,6.0,75,0.00,,SKC,0.00,VWS V14.01,2013-03-17 18:58:00,
2013-03-17 14:59:00,32.5,25.5,30.13,North,5,0.0,1.0,75,0.00,,SKC,0.00,VWS V14.01,2013-03-17 18:59:00,
2013-03-17 15:00:00,32.6,25.6,30.13,NE,51,0.0,2.0,75,0.00,,SKC,0.00,VWS V14.01,2013-03-17 19:00:00,
2013-03-17 15:01:00,32.7,25.7,30.13,NE,51,0.0,2.0,75,0.00,,SKC,0.00,VWS V14.01,2013-03-17 19:01:00,
2013-03-17 15:02:00,32.7,25.7,30.13,North,360,1.0,5.0,75,0.00,,SKC,0.00,VWS V14.01,2013-03-17 19:02:00,
2013-03-17 15:03:00,32.7,25.7,30.13,NE,50,4.0,5.0,75,0.00,,SKC,0.00,VWS V14.01,2013-03-17 19:03:00,
2013-03-17 15:04:00,32.6,25.6,30.13,NNE,23,6.0,6.0,75,0.00,,SKC,0.00,VWS V14.01,2013-03-17 19:04:00,
2013-03-17 15:05:00,32.7,25.7,30.13,NE,50,1.0,1.0,75,0.00,,SKC,0.00,VWS V14.01,2013-03-17 19:05:00,
2013-03-17 15:06:00,32.7,25.7,30.13,North,9,2.0,6.0,75,0.00,,SKC,0.00,VWS V14.01,2013-03-17 19:06:00,
2013-03-17 15:08:00,32.8,25.8,30.12,North,9,0.0,2.0,75,0.00,,SKC,0.00,VWS V14.01,2013-03-17 19:08:00,
2013-03-17 15:09:00,32.7,25.7,30.13,North,360,5.0,5.0,75,0.00,,SKC,0.00,VWS V14.01,2013-03-17 19:09:00,
2013-03-17 15:10:00,32.8,25.8,30.12,North,5,2.0,5.0,75,0.00,,SKC,0.00,VWS V14.01,2013-03-17 19:10:00,
2013-03-17 15:11:00,32.8,25.8,30.12,North,5,4.0,7.0,75,0.00,,SKC,0.00,VWS V14.01,2013-03-17 19:11:00,
2013-03-17 15:12:00,32.9,25.9,30.12,North,5,2.0,6.0,75,0.00,,SKC,0.00,VWS V14.01,2013-03-17 19:12:00,
2013-03-17 15:13:00,32.9,25.9,30.12,North,5,2.0,4.0,75,0.00,,SKC,0.00,VWS V14.01,2013-03-17 19:13:00,
2013-03-17 15:14:00,32.7,25.7,30.13,North,9,4.0,6.0,75,0.00,,SKC,0.00,VWS V14.01,2013-03-17 19:14:00,
2013-03-17 15:15:00,32.9,25.9,30.12,North,11,6.0,6.0,75,0.00,,SKC,0.00,VWS V14.01,2013-03-17 19:15:00,
2013-03-17 15:16:00,32.9,25.5,30.12,NNE,17,1.0,6.0,74,0.00,,SKC,0.00,VWS V14.01,2013-03-17 19:16:00,
2013-03-17 15:17:00,32.9,25.5,30.12,NNE,17,0.0,4.0,74,0.00,,SKC,0.00,VWS V14.01,2013-03-17 19:17:00,
2013-03-17 15:18:00,32.9,25.9,30.12,NNE,17,1.0,1.0,75,0.00,,SKC,0.00,VWS V14.01,2013-03-17 19:18:00,
2013-03-17 15:19:00,32.9,25.9,30.12,North,5,5.0,6.0,75,0.00,,SKC,0.00,VWS V14.01,2013-03-17 19:19:00,
2013-03-17 15:20:00,33.0,26.0,30.12,NNE,16,5.0,5.0,75,0.00,,SKC,0.00,VWS V14.01,2013-03-17 19:20:00,
2013-03-17 15:21:00,33.0,26.0,30.12,NNE,12,0.0,5.0,75,0.00,,SKC,0.00,VWS V14.01,2013-03-17 19:21:00,
2013-03-17 15:22:00,33.0,26.0,30.12,NNE,12,1.0,1.0,75,0.00,,SKC,0.00,VWS V14.01,2013-03-17 19:22:00,
2013-03-17 15:23:00,33.1,25.7,30.12,NNE,12,0.0,4.0,74,0.00,,SKC,0.00,VWS V14.01,2013-03-17 19:23:00,
2013-03-17 15:24:00,32.9,25.5,30.12,NNE,17,0.0,4.0,74,0.00,,SKC,0.00,VWS V14.01,2013-03-17 19:24:00,
2013-03-17 15:25:00,33.1,25.7,30.12,NNE,12,2.0,3.0,74,0.00,,SKC,0.00,VWS V14.01,2013-03-17 19:25:00,
2013-03-17 15:26:00,33.1,25.7,30.12,NNE,12,0.0,2.0,74,0.00,,SKC,0.00,VWS V14.01,2013-03-17 19:26:00,
2013-03-17 15:27:00,33.1,25.7,30.12,NNE,21,4.0,6.0,74,0.00,,SKC,0.00,VWS V14.01,2013-03-17 19:27:00,
2013-03-17 15:28:00,33.1,25.7,30.12,North,5,4.0,5.0,74,0.00,,SKC,0.00,VWS V14.01,2013-03-17 19:28:00,
2013-03-17 15:29:00,33.0,26.0,30.12,NNE,12,0.0,0.0,75,0.00,,SKC,0.00,VWS V14.01,2013-03-17 19:29:00,
2013-03-17 15:30:00,33.0,25.6,30.12,North,9,4.0,6.0,74,0.00,,SKC,0.00,VWS V14.01,2013-03-17 19:30:00,
2013-03-17 15:31:00,33.0,25.6,30.12,North,9,2.0,4.0,74,0.00,,SKC,0.00,VWS V14.01,2013-03-17 19:31:00,
2013-03-17 15:32:00,33.0,25.6,30.12,NNE,23,0.0,5.0,74,0.00,,SKC,0.00,VWS V14.01,2013-03-17 19:32:00,
2013-03-17 15:33:00,33.0,25.6,30.12,NE,41,4.0,5.0,74,0.00,,SKC,0.00,VWS V14.01,2013-03-17 19:33:00,
2013-03-17 15:34:00,33.1,25.7,30.12,NNE,12,0.0,0.0,74,0.00,,SKC,0.00,VWS V14.01,2013-03-17 19:34:00,
2013-03-17 15:35:00,33.0,25.6,30.12,North,5,5.0,5.0,74,0.00,,SKC,0.00,VWS V14.01,2013-03-17 19:35:00,
2013-03-17 15:36:00,32.9,25.5,30.12,North,350,5.0,5.0,74,0.00,,SKC,0.00,VWS V14.01,2013-03-17 19:36:00,
2013-03-17 15:37:00,32.9,25.5,30.12,North,11,1.0,6.0,74,0.00,,SKC,0.00,VWS V14.01,2013-03-17 19:37:00,
2013-03-17 15:38:00,32.9,25.5,30.12,NNE,25,5.0,5.0,74,0.00,,SKC,0.00,VWS V14.01,2013-03-17 19:38:00,
2013-03-17 15:39:00,33.0,25.6,30.12,NNE,23,4.0,5.0,74,0.00,,SKC,0.00,VWS V14.01,2013-03-17 19:39:00,
2013-03-17 15:40:00,32.9,25.5,30.12,North,9,2.0,3.0,74,0.00,,SKC,0.00,VWS V14.01,2013-03-17 19:40:00,
2013-03-17 15:41:00,32.9,25.5,30.12,North,9,1.0,4.0,74,0.00,,SKC,0.00,VWS V14.01,2013-03-17 19:41:00,
2013-03-17 15:42:00,32.9,25.5,30.12,NNE,25,5.0,5.0,74,0.00,,SKC,0.00,VWS V14.01,2013-03-17 19:42:00,
2013-03-17 15:43:00,32.9,25.5,30.12,NNE,21,5.0,5.0,74,0.00,,SKC,0.00,VWS V14.01,2013-03-17 19:43:00,
2013-03-17 15:44:00,32.9,25.5,30.12,North,11,3.0,6.0,74,0.00,,SKC,0.00,VWS V14.01,2013-03-17 19:44:00,
2013-03-17 15:45:00,32.9,25.5,30.12,NNE,22,4.0,5.0,74,0.00,,SKC,0.00,VWS V14.01,2013-03-17 19:45:00,
2013-03-17 15:46:00,32.8,25.8,30.12,North,5,1.0,5.0,75,0.00,,SKC,0.00,VWS V14.01,2013-03-17 19:46:00,
2013-03-17 15:47:00,32.8,25.8,30.12,NNE,16,4.0,5.0,75,0.00,,SKC,0.00,VWS V14.01,2013-03-17 19:47:00,
2013-03-17 15:48:00,32.8,25.8,30.12,NNE,16,2.0,4.0,75,0.00,,SKC,0.00,VWS V14.01,2013-03-17 19:48:00,
2013-03-17 15:49:00,32.9,25.5,30.12,North,9,1.0,2.0,74,0.00,,SKC,0.00,VWS V14.01,2013-03-17 19:49:00,
2013-03-17 15:50:00,32.8,25.8,30.12,North,10,2.0,5.0,75,0.00,,SKC,0.00,VWS V14.01,2013-03-17 19:50:00,
2013-03-17 15:51:00,32.8,25.8,30.12,North,10,3.0,4.0,75,0.00,,SKC,0.00,VWS V14.01,2013-03-17 19:51:00,
2013-03-17 15:52:00,32.8,25.8,30.12,North,10,2.0,6.0,75,0.00,,SKC,0.00,VWS V14.01,2013-03-17 19:52:00,
2013-03-17 15:53:00,32.8,25.8,30.12,North,11,2.0,5.0,75,0.00,,SKC,0.00,VWS V14.01,2013-03-17 19:53:00,
2013-03-17 15:54:00,32.8,25.8,30.12,North,5,3.0,5.0,75,0.00,,SKC,0.00,VWS V14.01,2013-03-17 19:54:00,
2013-03-17 15:55:00,32.8,25.8,30.13,NNE,25,0.0,4.0,75,0.00,,SKC,0.00,VWS V14.01,2013-03-17 19:55:00,
2013-03-17 15:56:00,32.8,25.8,30.13,NNE,25,0.0,1.0,75,0.00,,SKC,0.00,VWS V14.01,2013-03-17 19:56:00,
2013-03-17 15:57:00,32.8,25.8,30.13,NNE,25,4.0,4.0,75,0.00,,SKC,0.00,VWS V14.01,2013-03-17 19:57:00,
2013-03-17 15:58:00,32.8,25.8,30.13,NNE,24,4.0,4.0,75,0.00,,SKC,0.00,VWS V14.01,2013-03-17 19:58:00,
2013-03-17 15:59:00,32.8,25.8,30.12,North,10,4.0,6.0,75,0.00,,SKC,0.00,VWS V14.01,2013-03-17 19:59:00,
2013-03-17 16:00:00,32.8,25.8,30.13,NNE,15,0.0,2.0,75,0.00,,SKC,0.00,VWS V14.01,2013-03-17 20:00:00,
2013-03-17 16:01:00,32.8,25.8,30.13,NNE,16,3.0,3.0,75,0.00,,SKC,0.00,VWS V14.01,2013-03-17 20:01:00,
2013-03-17 16:02:00,32.8,25.8,30.13,NNE,16,1.0,3.0,75,0.00,,SKC,0.00,VWS V14.01,2013-03-17 20:02:00,
2013-03-17 16:03:00,32.8,25.8,30.13,West,272,1.0,3.0,75,0.00,,SKC,0.00,VWS V14.01,2013-03-17 20:03:00,
2013-03-17 16:04:00,32.8,25.8,30.13,NNE,25,2.0,2.0,75,0.00,,SKC,0.00,VWS V14.01,2013-03-17 20:04:00,
2013-03-17 16:05:00,32.8,25.8,30.13,NNW,336,0.0,0.0,75,0.00,,SKC,0.00,VWS V14.01,2013-03-17 20:05:00,
2013-03-17 16:06:00,32.8,25.8,30.13,NNW,336,0.0,0.0,75,0.00,,SKC,0.00,VWS V14.01,2013-03-17 20:06:00,
2013-03-17 16:07:00,32.8,25.8,30.13,NNW,336,2.0,4.0,75,0.00,,SKC,0.00,VWS V14.01,2013-03-17 20:07:00,
2013-03-17 16:08:00,32.8,25.8,30.13,NNW,340,0.0,3.0,75,0.00,,SKC,0.00,VWS V14.01,2013-03-17 20:08:00,
2013-03-17 16:09:00,32.8,25.8,30.13,NNE,16,0.0,3.0,75,0.00,,SKC,0.00,VWS V14.01,2013-03-17 20:09:00,
2013-03-17 16:10:00,32.9,25.9,30.13,NNW,340,0.0,1.0,75,0.00,,SKC,0.00,VWS V14.01,2013-03-17 20:10:00,
2013-03-17 16:11:00,32.9,25.9,30.13,NNW,340,0.0,1.0,75,0.00,,SKC,0.00,VWS V14.01,2013-03-17 20:11:00,
2013-03-17 16:12:00,32.9,25.9,30.13,NNW,340,1.0,1.0,75,0.00,,SKC,0.00,VWS V14.01,2013-03-17 20:12:00,
2013-03-17 16:13:00,32.9,25.9,30.13,NNW,340,0.0,1.0,75,0.00,,SKC,0.00,VWS V14.01,2013-03-17 20:13:00,
2013-03-17 16:14:00,32.8,25.8,30.13,NNW,336,0.0,0.0,75,0.00,,SKC,0.00,VWS V14.01,2013-03-17 20:14:00,
2013-03-17 16:15:00,32.9,25.9,30.13,NE,34,0.0,0.0,75,0.00,,SKC,0.00,VWS V14.01,2013-03-17 20:15:00,
2013-03-17 16:16:00,32.9,25.9,30.13,NE,34,2.0,4.0,75,0.00,,SKC,0.00,VWS V14.01,2013-03-17 20:16:00,
2013-03-17 16:17:00,32.9,25.9,30.13,NNE,21,1.0,4.0,75,0.00,,SKC,0.00,VWS V14.01,2013-03-17 20:17:00,
2013-03-17 16:18:00,33.0,26.0,30.13,NNE,23,2.0,2.0,75,0.00,,SKC,0.00,VWS V14.01,2013-03-17 20:18:00,
2013-03-17 16:19:00,32.9,25.9,30.13,NNW,340,0.0,0.0,75,0.00,,SKC,0.00,VWS V14.01,2013-03-17 20:19:00,
2013-03-17 16:20:00,33.0,26.0,30.13,NNE,24,1.0,3.0,75,0.00,,SKC,0.00,VWS V14.01,2013-03-17 20:20:00,
2013-03-17 16:21:00,33.0,26.0,30.13,NNE,24,0.0,1.0,75,0.00,,SKC,0.00,VWS V14.01,2013-03-17 20:21:00,
2013-03-17 16:22:00,33.0,26.0,30.13,NNE,23,0.0,2.0,75,0.00,,SKC,0.00,VWS V14.01,2013-03-17 20:22:00,
2013-03-17 16:23:00,33.0,26.0,30.13,NNE,23,0.0,1.0,75,0.00,,SKC,0.00,VWS V14.01,2013-03-17 20:23:00,
2013-03-17 16:24:00,32.9,25.9,30.13,NNE,21,4.0,4.0,75,0.00,,SKC,0.00,VWS V14.01,2013-03-17 20:24:00,
2013-03-17 16:25:00,33.1,26.0,30.13,North,355,4.0,4.0,75,0.00,,SKC,0.00,VWS V14.01,2013-03-17 20:25:00,
2013-03-17 16:26:00,33.1,26.0,30.13,NNE,15,3.0,5.0,75,0.00,,SKC,0.00,VWS V14.01,2013-03-17 20:26:00,
2013-03-17 16:27:00,33.1,26.0,30.13,NNE,27,2.0,5.0,75,0.00,,SKC,0.00,VWS V14.01,2013-03-17 20:27:00,
2013-03-17 16:28:00,33.1,26.0,30.13,NNE,27,0.0,3.0,75,0.00,,SKC,0.00,VWS V14.01,2013-03-17 20:28:00,
2013-03-17 16:29:00,33.0,26.0,30.13,NNE,23,0.0,2.0,75,0.00,,SKC,0.00,VWS V14.01,2013-03-17 20:29:00,
2013-03-17 16:30:00,33.1,26.0,30.13,North,360,1.0,6.0,75,0.00,,SKC,0.00,VWS V14.01,2013-03-17 20:30:00,
2013-03-17 16:31:00,33.1,25.7,30.13,North,360,5.0,6.0,74,0.00,,SKC,0.00,VWS V14.01,2013-03-17 20:31:00,
2013-03-17 16:32:00,33.1,25.7,30.13,North,5,3.0,5.0,74,0.00,,SKC,0.00,VWS V14.01,2013-03-17 20:32:00,
2013-03-17 16:33:00,33.1,25.7,30.13,North,5,0.0,3.0,74,0.00,,SKC,0.00,VWS V14.01,2013-03-17 20:33:00,
2013-03-17 16:34:00,33.1,26.0,30.13,NNE,16,5.0,5.0,75,0.00,,SKC,0.00,VWS V14.01,2013-03-17 20:34:00,
2013-03-17 16:35:00,33.1,25.7,30.13,North,5,0.0,1.0,74,0.00,,SKC,0.00,VWS V14.01,2013-03-17 20:35:00,
2013-03-17 16:36:00,33.1,26.0,30.13,North,5,0.0,1.0,75,0.00,,SKC,0.00,VWS V14.01,2013-03-17 20:36:00,
2013-03-17 16:37:00,33.1,26.0,30.13,North,355,2.0,2.0,75,0.00,,SKC,0.00,VWS V14.01,2013-03-17 20:37:00,
2013-03-17 16:38:00,33.2,26.1,30.13,North,9,0.0,5.0,75,0.00,,SKC,0.00,VWS V14.01,2013-03-17 20:38:00,
2013-03-17 16:39:00,33.1,25.7,30.13,North,360,4.0,5.0,74,0.00,,SKC,0.00,VWS V14.01,2013-03-17 20:39:00,
2013-03-17 16:40:00,33.2,25.8,30.13,NNE,15,0.0,2.0,74,0.00,,SKC,0.00,VWS V14.01,2013-03-17 20:40:00,
2013-03-17 16:41:00,33.2,26.1,30.13,NNE,15,2.0,2.0,75,0.00,,SKC,0.00,VWS V14.01,2013-03-17 20:41:00,
2013-03-17 16:42:00,33.2,25.8,30.13,NNE,15,1.0,2.0,74,0.00,,SKC,0.00,VWS V14.01,2013-03-17 20:42:00,
2013-03-17 16:43:00,33.2,25.8,30.13,NNE,15,0.0,2.0,74,0.00,,SKC,0.00,VWS V14.01,2013-03-17 20:43:00,
2013-03-17 16:44:00,33.1,26.0,30.13,North,5,2.0,2.0,75,0.00,,SKC,0.00,VWS V14.01,2013-03-17 20:44:00,
2013-03-17 16:45:00,33.3,25.9,30.13,North,360,0.0,1.0,74,0.00,,SKC,0.00,VWS V14.01,2013-03-17 20:45:00,
2013-03-17 16:46:00,33.3,25.9,30.13,North,360,1.0,4.0,74,0.00,,SKC,0.00,VWS V14.01,2013-03-17 20:46:00,
2013-03-17 16:47:00,33.3,25.9,30.13,North,360,2.0,4.0,74,0.00,,SKC,0.00,VWS V14.01,2013-03-17 20:47:00,
2013-03-17 16:48:00,33.3,26.2,30.13,North,360,0.0,2.0,75,0.00,,SKC,0.00,VWS V14.01,2013-03-17 20:48:00,
2013-03-17 16:49:00,33.2,25.8,30.13,NNE,15,1.0,2.0,74,0.00,,SKC,0.00,VWS V14.01,2013-03-17 20:49:00,
2013-03-17 16:50:00,33.3,26.2,30.13,NNE,28,2.0,5.0,75,0.00,,SKC,0.00,VWS V14.01,2013-03-17 20:50:00,
2013-03-17 16:51:00,33.3,26.2,30.13,NE,42,0.0,5.0,75,0.00,,SKC,0.00,VWS V14.01,2013-03-17 20:51:00,
2013-03-17 16:52:00,33.4,26.0,30.13,NE,42,0.0,1.0,74,0.00,,SKC,0.00,VWS V14.01,2013-03-17 20:52:00,
2013-03-17 16:53:00,33.4,26.0,30.13,North,9,3.0,4.0,74,0.00,,SKC,0.00,VWS V14.01,2013-03-17 20:53:00,
2013-03-17 16:54:00,33.3,25.9,30.13,North,360,2.0,4.0,74,0.00,,SKC,0.00,VWS V14.01,2013-03-17 20:54:00,
2013-03-17 16:55:00,33.4,26.0,30.13,North,5,0.0,1.0,74,0.00,,SKC,0.00,VWS V14.01,2013-03-17 20:55:00,
2013-03-17 16:56:00,33.4,26.0,30.13,NNE,13,4.0,4.0,74,0.00,,SKC,0.00,VWS V14.01,2013-03-17 20:56:00,
2013-03-17 16:57:00,33.4,26.0,30.13,NE,43,0.0,5.0,74,0.00,,SKC,0.00,VWS V14.01,2013-03-17 20:57:00,
2013-03-17 16:58:00,33.4,26.0,30.13,North,355,2.0,4.0,74,0.00,,SKC,0.00,VWS V14.01,2013-03-17 20:58:00,
2013-03-17 16:59:00,33.4,26.3,30.13,NE,42,0.0,0.0,75,0.00,,SKC,0.00,VWS V14.01,2013-03-17 20:59:00,
2013-03-17 17:00:00,33.5,26.1,30.13,North,360,0.0,1.0,74,0.00,,SKC,0.00,VWS V14.01,2013-03-17 21:00:00,
2013-03-17 17:01:00,33.5,26.1,30.13,North,360,0.0,1.0,74,0.00,,SKC,0.00,VWS V14.01,2013-03-17 21:01:00,
2013-03-17 17:02:00,33.5,26.1,30.13,North,360,0.0,4.0,74,0.00,,SKC,0.00,VWS V14.01,2013-03-17 21:02:00,
2013-03-17 17:03:00,33.5,26.1,30.13,North,360,0.0,0.0,74,0.00,,SKC,0.00,VWS V14.01,2013-03-17 21:03:00,
2013-03-17 17:04:00,33.4,26.0,30.13,NE,43,3.0,5.0,74,0.00,,SKC,0.00,VWS V14.01,2013-03-17 21:04:00,
2013-03-17 17:05:00,33.5,26.1,30.14,North,360,0.0,4.0,74,0.00,,SKC,0.00,VWS V14.01,2013-03-17 21:05:00,
2013-03-17 17:06:00,33.6,26.2,30.13,North,360,0.0,1.0,74,0.00,,SKC,0.00,VWS V14.01,2013-03-17 21:06:00,
2013-03-17 17:07:00,33.6,26.2,30.13,NNE,19,0.0,2.0,74,0.00,,SKC,0.00,VWS V14.01,2013-03-17 21:07:00,
2013-03-17 17:08:00,33.6,26.2,30.13,NNE,19,4.0,4.0,74,0.00,,SKC,0.00,VWS V14.01,2013-03-17 21:08:00,
2013-03-17 17:09:00,33.5,26.1,30.13,North,360,4.0,4.0,74,0.00,,SKC,0.00,VWS V14.01,2013-03-17 21:09:00,
2013-03-17 17:10:00,33.6,26.2,30.13,NNE,19,0.0,2.0,74,0.00,,SKC,0.00,VWS V14.01,2013-03-17 21:10:00,
2013-03-17 17:11:00,33.6,26.2,30.14,NNE,19,0.0,4.0,74,0.00,,SKC,0.00,VWS V14.01,2013-03-17 21:11:00,
2013-03-17 17:12:00,33.7,26.3,30.14,NNE,19,1.0,4.0,74,0.00,,SKC,0.00,VWS V14.01,2013-03-17 21:12:00,
2013-03-17 17:13:00,33.7,26.3,30.14,NNE,19,0.0,1.0,74,0.00,,SKC,0.00,VWS V14.01,2013-03-17 21:13:00,
2013-03-17 17:14:00,33.5,26.1,30.13,NNE,19,2.0,2.0,74,0.00,,SKC,0.00,VWS V14.01,2013-03-17 21:14:00,
2013-03-17 17:15:00,33.7,26.6,30.14,North,0,0.0,0.0,75,0.00,,SKC,0.00,VWS V14.01,2013-03-17 21:15:00,
2013-03-17 17:16:00,33.7,26.6,30.14,North,0,0.0,0.0,75,0.00,,SKC,0.00,VWS V14.01,2013-03-17 21:16:00,
2013-03-17 17:17:00,33.7,26.6,30.14,NNE,22,1.0,3.0,75,0.00,,SKC,0.00,VWS V14.01,2013-03-17 21:17:00,
2013-03-17 17:18:00,33.7,26.3,30.14,NNE,22,0.0,0.0,74,0.00,,SKC,0.00,VWS V14.01,2013-03-17 21:18:00,
2013-03-17 17:19:00,33.6,26.2,30.14,NNE,19,1.0,1.0,74,0.00,,SKC,0.00,VWS V14.01,2013-03-17 21:19:00,
2013-03-17 17:20:00,33.7,26.3,30.14,NNE,22,0.0,1.0,74,0.00,,SKC,0.00,VWS V14.01,2013-03-17 21:20:00,
2013-03-17 17:21:00,33.7,26.3,30.14,NNE,22,0.0,0.0,74,0.00,,SKC,0.00,VWS V14.01,2013-03-17 21:21:00,
2013-03-17 17:22:00,33.7,26.3,30.14,NNE,22,0.0,0.0,74,0.00,,SKC,0.00,VWS V14.01,2013-03-17 21:22:00,
2013-03-17 17:23:00,33.8,26.4,30.14,NNE,22,0.0,0.0,74,0.00,,SKC,0.00,VWS V14.01,2013-03-17 21:23:00,
2013-03-17 17:24:00,33.8,26.4,30.14,NNE,22,0.0,0.0,74,0.00,,SKC,0.00,VWS V14.01,2013-03-17 21:24:00,
2013-03-17 17:25:00,33.8,26.4,30.14,NNE,22,0.0,1.0,74,0.00,,SKC,0.00,VWS V14.01,2013-03-17 21:25:00,
2013-03-17 17:26:00,33.8,26.4,30.14,NNE,22,0.0,0.0,74,0.00,,SKC,0.00,VWS V14.01,2013-03-17 21:26:00,
2013-03-17 17:27:00,33.8,26.4,30.14,NNE,22,0.0,0.0,74,0.00,,SKC,0.00,VWS V14.01,2013-03-17 21:27:00,
2013-03-17 17:28:00,33.8,26.4,30.14,NNE,22,0.0,0.0,74,0.00,,SKC,0.00,VWS V14.01,2013-03-17 21:28:00,
2013-03-17 17:29:00,33.8,26.4,30.15,NNE,22,0.0,0.0,74,0.00,,SKC,0.00,VWS V14.01,2013-03-17 21:29:00,
2013-03-17 17:30:00,33.8,26.4,30.15,NNE,22,0.0,0.0,74,0.00,,SKC,0.00,VWS V14.01,2013-03-17 21:30:00,
2013-03-17 17:31:00,33.8,26.4,30.14,NNE,22,0.0,1.0,74,0.00,,SKC,0.00,VWS V14.01,2013-03-17 21:31:00,
2013-03-17 17:32:00,33.8,26.4,30.14,NNE,22,1.0,2.0,74,0.00,,SKC,0.00,VWS V14.01,2013-03-17 21:32:00,
2013-03-17 17:33:00,33.8,26.4,30.14,North,0,1.0,4.0,74,0.00,,SKC,0.00,VWS V14.01,2013-03-17 21:33:00,
2013-03-17 17:34:00,33.9,26.5,30.14,North,0,0.0,0.0,74,0.00,,SKC,0.00,VWS V14.01,2013-03-17 21:34:00,
2013-03-17 17:35:00,33.9,26.5,30.14,North,0,0.0,1.0,74,0.00,,SKC,0.00,VWS V14.01,2013-03-17 21:35:00,
2013-03-17 17:36:00,33.9,26.5,30.14,North,0,0.0,0.0,74,0.00,,SKC,0.00,VWS V14.01,2013-03-17 21:36:00,
2013-03-17 17:37:00,33.9,26.5,30.14,North,0,0.0,0.0,74,0.00,,SKC,0.00,VWS V14.01,2013-03-17 21:37:00,
2013-03-17 17:38:00,33.9,26.5,30.14,North,0,1.0,2.0,74,0.00,,SKC,0.00,VWS V14.01,2013-03-17 21:38:00,
2013-03-17 17:39:00,33.9,26.5,30.14,North,0,0.0,0.0,74,0.00,,SKC,0.00,VWS V14.01,2013-03-17 21:39:00,
2013-03-17 17:40:00,33.9,26.5,30.14,North,0,0.0,0.0,74,0.00,,SKC,0.00,VWS V14.01,2013-03-17 21:40:00,
2013-03-17 17:41:00,33.9,26.5,30.14,North,0,0.0,1.0,74,0.00,,SKC,0.00,VWS V14.01,2013-03-17 21:41:00,
2013-03-17 17:42:00,33.9,26.5,30.14,North,0,0.0,0.0,74,0.00,,SKC,0.00,VWS V14.01,2013-03-17 21:42:00,
2013-03-17 17:43:00,33.9,26.5,30.14,North,0,0.0,0.0,74,0.00,,SKC,0.00,VWS V14.01,2013-03-17 21:43:00,
2013-03-17 17:44:00,33.9,26.5,30.14,North,0,0.0,0.0,74,0.00,,SKC,0.00,VWS V14.01,2013-03-17 21:44:00,
2013-03-17 17:45:00,33.9,26.5,30.14,North,0,0.0,0.0,74,0.00,,SKC,0.00,VWS V14.01,2013-03-17 21:45:00,
2013-03-17 17:46:00,33.9,26.5,30.14,North,0,0.0,1.0,74,0.00,,SKC,0.00,VWS V14.01,2013-03-17 21:46:00,
2013-03-17 17:47:00,33.9,26.2,30.14,North,0,0.0,0.0,73,0.00,,SKC,0.00,VWS V14.01,2013-03-17 21:47:00,
2013-03-17 17:48:00,33.9,26.2,30.14,North,0,0.0,0.0,73,0.00,,SKC,0.00,VWS V14.01,2013-03-17 21:48:00,
2013-03-17 17:49:00,33.9,26.5,30.14,North,0,0.0,0.0,74,0.00,,SKC,0.00,VWS V14.01,2013-03-17 21:49:00,
2013-03-17 17:50:00,33.9,26.5,30.14,North,0,0.0,0.0,74,0.00,,SKC,0.00,VWS V14.01,2013-03-17 21:50:00,
2013-03-17 17:51:00,33.9,26.5,30.14,North,0,0.0,0.0,74,0.00,,SKC,0.00,VWS V14.01,2013-03-17 21:51:00,
2013-03-17 17:52:00,33.9,26.5,30.14,North,0,0.0,1.0,74,0.00,,SKC,0.00,VWS V14.01,2013-03-17 21:52:00,
2013-03-17 17:53:00,33.9,26.5,30.14,North,0,0.0,0.0,74,0.00,,SKC,0.00,VWS V14.01,2013-03-17 21:53:00,
2013-03-17 17:54:00,33.9,26.5,30.14,North,0,0.0,0.0,74,0.00,,SKC,0.00,VWS V14.01,2013-03-17 21:54:00,
2013-03-17 17:55:00,33.9,26.5,30.14,North,0,0.0,0.0,74,0.00,,SKC,0.00,VWS V14.01,2013-03-17 21:55:00,
2013-03-17 17:56:00,33.9,26.2,30.14,North,0,0.0,0.0,73,0.00,,SKC,0.00,VWS V14.01,2013-03-17 21:56:00,
2013-03-17 17:57:00,33.9,26.5,30.14,North,0,0.0,0.0,74,0.00,,SKC,0.00,VWS V14.01,2013-03-17 21:57:00,
2013-03-17 17:58:00,34.0,26.6,30.14,North,0,0.0,0.0,74,0.00,,SKC,0.00,VWS V14.01,2013-03-17 21:58:00,
2013-03-17 17:59:00,34.0,26.6,30.15,North,0,0.0,0.0,74,0.00,,SKC,0.00,VWS V14.01,2013-03-17 21:59:00,
2013-03-17 18:00:00,34.0,26.6,30.15,North,0,0.0,1.0,74,0.00,,SKC,0.00,VWS V14.01,2013-03-17 22:00:00,
2013-03-17 18:01:00,34.0,26.6,30.15,North,0,0.0,0.0,74,0.00,,SKC,0.00,VWS V14.01,2013-03-17 22:01:00,
2013-03-17 18:02:00,34.0,26.6,30.15,North,0,0.0,0.0,74,0.00,,SKC,0.00,VWS V14.01,2013-03-17 22:02:00,
2013-03-17 18:03:00,34.0,26.3,30.14,North,0,0.0,0.0,73,0.00,,SKC,0.00,VWS V14.01,2013-03-17 22:03:00,
2013-03-17 18:04:00,34.0,26.3,30.14,North,0,0.0,0.0,73,0.00,,SKC,0.00,VWS V14.01,2013-03-17 22:04:00,
2013-03-17 18:05:00,34.0,26.3,30.14,North,0,0.0,0.0,73,0.00,,SKC,0.00,VWS V14.01,2013-03-17 22:05:00,
2013-03-17 18:06:00,34.0,26.3,30.14,North,0,1.0,2.0,73,0.00,,SKC,0.00,VWS V14.01,2013-03-17 22:06:00,
2013-03-17 18:07:00,34.0,26.3,30.15,North,0,0.0,0.0,73,0.00,,SKC,0.00,VWS V14.01,2013-03-17 22:07:00,
2013-03-17 18:08:00,34.1,26.4,30.15,North,0,0.0,0.0,73,0.00,,SKC,0.00,VWS V14.01,2013-03-17 22:08:00,
2013-03-17 18:09:00,34.0,26.3,30.14,North,0,0.0,0.0,73,0.00,,SKC,0.00,VWS V14.01,2013-03-17 22:09:00,
2013-03-17 18:10:00,34.0,26.3,30.15,North,0,0.0,0.0,73,0.00,,SKC,0.00,VWS V14.01,2013-03-17 22:10:00,
2013-03-17 18:11:00,34.0,26.3,30.15,North,0,0.0,0.0,73,0.00,,SKC,0.00,VWS V14.01,2013-03-17 22:11:00,
2013-03-17 18:12:00,34.0,26.3,30.15,North,0,0.0,0.0,73,0.00,,SKC,0.00,VWS V14.01,2013-03-17 22:12:00,
2013-03-17 18:13:00,34.0,26.3,30.15,North,0,0.0,0.0,73,0.00,,SKC,0.00,VWS V14.01,2013-03-17 22:13:00,
2013-03-17 18:14:00,34.0,26.3,30.15,North,0,0.0,0.0,73,0.00,,SKC,0.00,VWS V14.01,2013-03-17 22:14:00,
2013-03-17 18:15:00,34.0,26.3,30.15,North,0,0.0,0.0,73,0.00,,SKC,0.00,VWS V14.01,2013-03-17 22:15:00,
2013-03-17 18:16:00,34.0,26.3,30.15,North,0,0.0,0.0,73,0.00,,SKC,0.00,VWS V14.01,2013-03-17 22:16:00,
2013-03-17 18:17:00,34.0,26.3,30.15,North,0,0.0,0.0,73,0.00,,SKC,0.00,VWS V14.01,2013-03-17 22:17:00,
2013-03-17 18:18:00,34.0,26.3,30.15,North,0,0.0,0.0,73,0.00,,SKC,0.00,VWS V14.01,2013-03-17 22:18:00,
2013-03-17 18:19:00,34.0,26.3,30.15,North,0,0.0,0.0,73,0.00,,SKC,0.00,VWS V14.01,2013-03-17 22:19:00,
2013-03-17 18:20:00,34.0,26.3,30.15,North,0,0.0,1.0,73,0.00,,SKC,0.00,VWS V14.01,2013-03-17 22:20:00,
2013-03-17 18:21:00,34.0,26.3,30.15,North,0,0.0,0.0,73,0.00,,SKC,0.00,VWS V14.01,2013-03-17 22:21:00,
2013-03-17 18:22:00,34.0,26.3,30.15,North,0,0.0,0.0,73,0.00,,SKC,0.00,VWS V14.01,2013-03-17 22:22:00,
2013-03-17 18:23:00,34.0,26.3,30.15,North,0,0.0,0.0,73,0.00,,SKC,0.00,VWS V14.01,2013-03-17 22:23:00,
2013-03-17 18:24:00,34.0,26.3,30.15,North,0,0.0,0.0,73,0.00,,SKC,0.00,VWS V14.01,2013-03-17 22:24:00,
2013-03-17 18:26:00,34.0,26.3,30.15,North,10,0.0,0.0,73,0.00,,SKC,0.00,VWS V14.01,2013-03-17 22:26:00,
2013-03-17 18:27:00,34.0,26.3,30.15,North,10,0.0,0.0,73,0.00,,SKC,0.00,VWS V14.01,2013-03-17 22:27:00,
2013-03-17 18:28:00,34.0,26.3,30.15,North,10,0.0,0.0,73,0.00,,SKC,0.00,VWS V14.01,2013-03-17 22:28:00,
2013-03-17 18:29:00,34.0,26.3,30.15,North,10,0.0,0.0,73,0.00,,SKC,0.00,VWS V14.01,2013-03-17 22:29:00,
2013-03-17 18:30:00,34.0,26.3,30.15,North,10,0.0,0.0,73,0.00,,SKC,0.00,VWS V14.01,2013-03-17 22:30:00,
2013-03-17 18:31:00,34.0,26.3,30.15,North,10,0.0,0.0,73,0.00,,SKC,0.00,VWS V14.01,2013-03-17 22:31:00,
2013-03-17 18:34:00,34.0,26.3,30.15,North,10,0.0,0.0,73,0.00,,SKC,0.00,VWS V14.01,2013-03-17 22:34:00,
2013-03-17 18:39:00,34.0,26.3,30.15,North,10,0.0,0.0,73,0.00,,SKC,0.00,VWS V14.01,2013-03-17 22:39:00,
2013-03-17 18:44:00,34.0,26.3,30.15,North,10,0.0,0.0,73,0.00,,SKC,0.00,VWS V14.01,2013-03-17 22:44:00,
2013-03-17 18:49:00,34.0,26.3,30.15,North,10,0.0,0.0,73,0.00,,SKC,0.00,VWS V14.01,2013-03-17 22:49:00,
2013-03-17 18:54:00,34.0,26.3,30.15,North,10,0.0,0.0,73,0.00,,SKC,0.00,VWS V14.01,2013-03-17 22:54:00,
2013-03-17 18:59:00,34.0,26.3,30.15,North,10,0.0,0.0,73,0.00,,SKC,0.00,VWS V14.01,2013-03-17 22:59:00,
2013-03-17 19:04:00,34.0,26.3,30.15,North,10,0.0,0.0,73,0.00,,SKC,0.00,VWS V14.01,2013-03-17 23:04:00,
2013-03-17 19:09:00,34.0,26.3,30.15,North,10,0.0,0.0,73,0.00,,SKC,0.00,VWS V14.01,2013-03-17 23:09:00,
2013-03-17 19:14:00,34.0,26.3,30.15,North,10,0.0,0.0,73,0.00,,SKC,0.00,VWS V14.01,2013-03-17 23:14:00,
2013-03-17 19:19:00,34.0,26.3,30.16,North,10,0.0,0.0,73,0.00,,SKC,0.00,VWS V14.01,2013-03-17 23:19:00,
2013-03-17 19:24:00,34.0,26.3,30.15,North,10,0.0,0.0,73,0.00,,SKC,0.00,VWS V14.01,2013-03-17 23:24:00,
2013-03-17 19:29:00,33.9,26.2,30.15,North,10,0.0,0.0,73,0.00,,SKC,0.00,VWS V14.01,2013-03-17 23:29:00,
2013-03-17 19:34:00,33.9,26.2,30.15,North,10,0.0,0.0,73,0.00,,SKC,0.00,VWS V14.01,2013-03-17 23:34:00,
2013-03-17 19:39:00,33.9,26.5,30.15,North,10,0.0,0.0,74,0.00,,SKC,0.00,VWS V14.01,2013-03-17 23:39:00,
2013-03-17 19:44:00,33.9,26.5,30.15,North,10,0.0,0.0,74,0.00,,SKC,0.00,VWS V14.01,2013-03-17 23:44:00,
2013-03-17 19:49:00,33.8,26.4,30.15,North,10,0.0,0.0,74,0.00,,SKC,0.00,VWS V14.01,2013-03-17 23:49:00,
2013-03-17 19:54:00,33.8,26.4,30.15,North,10,0.0,0.0,74,0.00,,SKC,0.00,VWS V14.01,2013-03-17 23:54:00,
2013-03-17 19:59:00,33.8,26.4,30.15,North,10,0.0,0.0,74,0.00,,SKC,0.00,VWS V14.01,2013-03-17 23:59:00,
2013-03-17 20:04:00,33.7,26.3,30.15,North,10,0.0,0.0,74,0.00,,SKC,0.00,VWS V14.01,2013-03-18 00:04:00,
2013-03-17 20:09:00,33.7,26.3,30.15,North,10,0.0,0.0,74,0.00,,SKC,0.00,VWS V14.01,2013-03-18 00:09:00,
2013-03-17 20:14:00,33.6,26.2,30.16,North,10,0.0,0.0,74,0.00,,SKC,0.00,VWS V14.01,2013-03-18 00:14:00,
2013-03-17 20:19:00,33.6,26.5,30.16,North,10,0.0,0.0,75,0.00,,SKC,0.00,VWS V14.01,2013-03-18 00:19:00,
2013-03-17 20:24:00,33.5,26.4,30.16,North,10,0.0,0.0,75,0.00,,SKC,0.00,VWS V14.01,2013-03-18 00:24:00,
2013-03-17 20:29:00,33.5,26.4,30.15,North,10,0.0,0.0,75,0.00,,SKC,0.00,VWS V14.01,2013-03-18 00:29:00,
2013-03-17 20:34:00,33.5,26.4,30.16,North,10,0.0,0.0,75,0.00,,SKC,0.00,VWS V14.01,2013-03-18 00:34:00,
2013-03-17 20:39:00,33.4,26.3,30.16,North,10,0.0,0.0,75,0.00,,SKC,0.00,VWS V14.01,2013-03-18 00:39:00,
2013-03-17 20:44:00,33.4,26.3,30.16,North,10,0.0,0.0,75,0.00,,SKC,0.00,VWS V14.01,2013-03-18 00:44:00,
2013-03-17 20:49:00,33.4,26.3,30.16,North,10,0.0,0.0,75,0.00,,SKC,0.00,VWS V14.01,2013-03-18 00:49:00,
2013-03-17 20:54:00,33.3,26.6,30.16,North,10,0.0,0.0,76,0.00,,SKC,0.00,VWS V14.01,2013-03-18 00:54:00,
2013-03-17 20:59:00,33.3,26.6,30.17,North,10,0.0,0.0,76,0.00,,SKC,0.00,VWS V14.01,2013-03-18 00:59:00,
2013-03-17 21:04:00,33.3,26.6,30.17,North,10,0.0,0.0,76,0.00,,SKC,0.00,VWS V14.01,2013-03-18 01:04:00,
2013-03-17 21:09:00,33.3,26.6,30.17,North,10,0.0,0.0,76,0.00,,SKC,0.00,VWS V14.01,2013-03-18 01:09:00,
2013-03-17 21:14:00,33.2,26.5,30.17,North,10,0.0,0.0,76,0.00,,SKC,0.00,VWS V14.01,2013-03-18 01:14:00,
2013-03-17 21:19:00,33.2,26.5,30.17,North,10,0.0,0.0,76,0.00,,SKC,0.00,VWS V14.01,2013-03-18 01:19:00,
2013-03-17 21:24:00,33.2,26.5,30.18,North,10,0.0,0.0,76,0.00,,SKC,0.00,VWS V14.01,2013-03-18 01:24:00,
2013-03-17 21:29:00,33.2,26.5,30.18,North,10,0.0,0.0,76,0.00,,SKC,0.00,VWS V14.01,2013-03-18 01:29:00,
2013-03-17 21:34:00,33.1,26.4,30.18,North,10,0.0,0.0,76,0.00,,SKC,0.00,VWS V14.01,2013-03-18 01:34:00,
2013-03-17 21:39:00,33.1,26.4,30.18,North,10,0.0,0.0,76,0.00,,SKC,0.00,VWS V14.01,2013-03-18 01:39:00,
2013-03-17 21:44:00,33.1,26.4,30.18,North,10,0.0,0.0,76,0.00,,SKC,0.00,VWS V14.01,2013-03-18 01:44:00,
2013-03-17 21:49:00,33.1,26.4,30.18,North,10,0.0,0.0,76,0.00,,SKC,0.00,VWS V14.01,2013-03-18 01:49:00,
2013-03-17 21:54:00,33.0,26.3,30.18,North,10,0.0,0.0,76,0.00,,SKC,0.00,VWS V14.01,2013-03-18 01:54:00,
2013-03-17 21:59:00,33.0,26.0,30.18,North,10,0.0,0.0,75,0.00,,SKC,0.00,VWS V14.01,2013-03-18 01:59:00,
2013-03-17 22:04:00,33.0,26.3,30.18,North,10,0.0,0.0,76,0.00,,SKC,0.00,VWS V14.01,2013-03-18 02:04:00,
2013-03-17 22:09:00,33.0,26.3,30.18,North,10,0.0,0.0,76,0.00,,SKC,0.00,VWS V14.01,2013-03-18 02:09:00,
2013-03-17 22:14:00,33.0,26.6,30.18,North,10,0.0,0.0,77,0.00,,SKC,0.00,VWS V14.01,2013-03-18 02:14:00,
2013-03-17 22:19:00,33.0,26.9,30.18,North,10,0.0,0.0,78,0.00,,SKC,0.00,VWS V14.01,2013-03-18 02:19:00,
2013-03-17 22:24:00,32.9,26.8,30.18,North,10,0.0,0.0,78,0.00,,SKC,0.00,VWS V14.01,2013-03-18 02:24:00,
2013-03-17 22:29:00,32.9,27.1,30.18,North,10,0.0,0.0,79,0.00,,SKC,0.00,VWS V14.01,2013-03-18 02:29:00,
2013-03-17 22:34:00,32.9,27.1,30.19,North,10,0.0,0.0,79,0.00,,SKC,0.00,VWS V14.01,2013-03-18 02:34:00,
2013-03-17 22:39:00,33.0,27.5,30.19,North,10,0.0,0.0,80,0.00,,SKC,0.00,VWS V14.01,2013-03-18 02:39:00,
2013-03-17 22:44:00,32.9,27.7,30.19,North,10,0.0,0.0,81,0.00,,SKC,0.00,VWS V14.01,2013-03-18 02:44:00,
2013-03-17 22:49:00,32.9,28.0,30.19,North,10,0.0,0.0,82,0.00,,SKC,0.00,VWS V14.01,2013-03-18 02:49:00,
2013-03-17 22:54:00,32.8,28.2,30.19,North,10,0.0,0.0,83,0.00,,SKC,0.00,VWS V14.01,2013-03-18 02:54:00,
2013-03-17 22:59:00,32.8,28.2,30.19,North,10,0.0,0.0,83,0.00,,SKC,0.00,VWS V14.01,2013-03-18 02:59:00,
2013-03-17 23:04:00,32.7,28.4,30.19,North,10,0.0,0.0,84,0.00,,SKC,0.00,VWS V14.01,2013-03-18 03:04:00,
2013-03-17 23:09:00,32.6,28.3,30.19,North,10,0.0,2.0,84,0.00,,SKC,0.00,VWS V14.01,2013-03-18 03:09:00,
2013-03-17 23:14:00,32.5,28.5,30.19,North,10,0.0,0.0,85,0.00,,SKC,0.00,VWS V14.01,2013-03-18 03:14:00,
2013-03-17 23:19:00,32.3,28.3,30.19,NNW,333,0.0,0.0,85,0.00,,SKC,0.00,VWS V14.01,2013-03-18 03:19:00,
2013-03-17 23:24:00,32.2,27.9,30.19,WNW,299,0.0,0.0,84,0.00,,SKC,0.00,VWS V14.01,2013-03-18 03:24:00,
2013-03-17 23:29:00,32.0,27.7,30.19,WNW,299,0.0,0.0,84,0.00,,SKC,0.00,VWS V14.01,2013-03-18 03:29:00,
2013-03-17 23:34:00,32.0,27.4,30.19,West,267,0.0,0.0,83,0.00,,SKC,0.00,VWS V14.01,2013-03-18 03:34:00,
2013-03-17 23:39:00,31.8,26.9,30.19,SSE,157,4.0,7.0,82,0.00,,SKC,0.00,VWS V14.01,2013-03-18 03:39:00,
2013-03-17 23:44:00,31.7,25.9,30.19,NNW,333,4.0,6.0,79,0.00,,SKC,0.00,VWS V14.01,2013-03-18 03:44:00,
2013-03-17 23:49:00,31.6,26.1,30.19,NNW,338,0.0,0.0,80,0.00,,SKC,0.00,VWS V14.01,2013-03-18 03:49:00,
2013-03-17 23:54:00,31.6,26.5,30.19,SSE,168,0.0,1.0,81,0.00,,SKC,0.00,VWS V14.01,2013-03-18 03:54:00,
2013-03-17 23:59:00,31.5,26.4,30.19,SW,221,0.0,0.0,81,0.00,,SKC,0.00,VWS V14.01,2013-03-18 03:59:00,